[[{"header":{"parameterUnit":"m.s-1","parameterCategory":1,"la1":30.6,"la2":28.766,"lo1":-90.7593,"lo2":-88.6598,"dy":0.0162,"dx":0.0183,"nx":116,"ny":114,"refTime":"2023-06-23T06:00:00:Z","depth":0,"parameterNumber":2,"parameterNumberName":"U-component_of_WINDS"},"data":[0.0,0.0,0.0,0.0,0.0,0.0,0.0,0.0,0.0,0.0,0.0,0.0,0.0,0.0,0.0,0.0,0.0,0.0,0.0,0.0,0.0,0.0,0.0,0.0,0.0,0.0,0.0,0.0,0.0,0.0,0.0,0.0,0.0,0.0,0.0,0.0,0.0,0.0,0.0,0.0,0.0,0.0,0.0,0.0,0.0,0.0,0.0,0.0,0.0,0.0,0.0,0.0,0.0,0.0,0.0,0.0,0.0,0.0,0.0,0.0,0.0,0.0,0.0,0.0,0.0,0.0,0.0,0.0,0.0,0.0,0.0,0.0,0.0,0.0,0.0,0.0,0.0,0.0,0.0,0.0,0.0,0.0,0.0,0.0,0.0,0.0,0.0,0.0,0.0,0.0,0.0,0.0,0.0,0.0,0.0,0.0,0.0,0.0,0.0,0.0,0.0,0.0,0.0,0.0,0.0,0.0,0.0,0.0,0.0,0.0,0.0,0.0,0.0,0.0,0.0,0.0,0.0,0.0,0.0,0.0,0.0,0.0,0.0,0.0,0.0,0.0,0.0,0.0,0.0,0.0,0.0,0.0,0.0,0.0,0.0,0.0,0.0,0.0,0.0,0.0,0.0,0.0,0.0,0.0,0.0,0.0,0.0,0.0,0.0,0.0,0.0,0.0,0.0,0.0,0.0,0.0,0.0,0.0,0.0,0.0,0.0,0.0,0.0,0.0,0.0,0.0,0.0,0.0,0.0,0.0,0.0,0.0,0.0,0.0,0.0,0.0,0.0,0.0,0.0,0.0,0.0,0.0,0.0,0.0,0.0,0.0,0.0,0.0,0.0,0.0,0.0,0.0,0.0,0.0,0.0,0.0,0.0,0.0,0.0,0.0,0.0,0.0,0.0,0.0,0.0,0.0,0.0,0.0,0.0,0.0,0.0,0.0,0.0,0.0,0.0,0.0,0.0,0.0,0.0,0.0,0.0,0.0,0.0,0.0,0.0,0.0,0.0,0.0,0.0,0.0,0.0,0.0,0.0,0.0,0.0,0.0,0.0,0.0,0.0,0.0,0.0,0.0,0.0,0.0,0.0,0.0,0.0,0.0,0.0,0.0,0.0,0.0,0.0,0.0,0.0,0.0,0.0,0.0,0.0,0.0,0.0,0.0,0.0,0.0,0.0,0.0,0.0,0.0,0.0,0.0,0.0,0.0,0.0,0.0,0.0,0.0,0.0,0.0,0.0,0.0,0.0,0.0,0.0,0.0,0.0,0.0,0.0,0.0,0.0,0.0,0.0,0.0,0.0,0.0,0.0,0.0,0.0,0.0,0.0,0.0,0.0,0.0,0.0,0.0,0.0,0.0,0.0,0.0,0.0,0.0,0.0,0.0,0.0,0.0,0.0,0.0,0.0,0.0,0.0,0.0,0.0,0.0,0.0,0.0,0.0,0.0,0.0,0.0,0.0,0.0,0.0,0.0,0.0,0.0,0.0,0.0,0.0,0.0,0.0,0.0,0.0,0.0,0.0,0.0,0.0,0.0,0.0,0.0,0.0,0.0,0.0,0.0,0.0,0.0,0.0,0.0,0.0,0.0,0.0,0.0,0.0,0.0,0.0,0.0,0.0,0.0,0.0,0.0,0.0,0.0,0.0,0.0,0.0,0.0,0.0,0.0,0.0,0.0,0.0,0.0,0.0,0.0,0.0,0.0,0.0,0.0,0.0,0.0,0.0,0.0,0.0,0.0,0.0,0.0,0.0,0.0,0.0,0.0,0.0,0.0,0.0,0.0,0.0,0.0,0.0,0.0,0.0,0.0,0.0,0.0,0.0,0.0,0.0,0.0,0.0,0.0,0.0,0.0,0.0,0.0,0.0,0.0,0.0,0.0,0.0,0.0,0.0,0.0,0.0,0.0,0.0,0.0,0.0,0.0,0.0,0.0,0.0,0.0,0.0,0.0,0.0,0.0,0.0,0.0,0.0,0.0,0.0,0.0,0.0,0.0,0.0,0.0,0.0,0.0,0.0,0.0,0.0,0.0,0.0,0.0,0.0,0.0,0.0,0.0,0.0,0.0,0.0,0.0,0.0,0.0,0.0,0.0,0.0,0.0,0.0,0.0,0.0,0.0,0.0,0.0,0.0,0.0,0.0,0.0,0.0,0.0,0.0,0.0,0.0,0.0,0.0,0.0,0.0,0.0,0.0,0.0,0.0,0.0,0.0,0.0,0.0,0.0,0.0,0.0,0.0,0.0,0.0,0.0,0.0,0.0,0.0,0.0,0.0,0.0,0.0,0.0,0.0,0.0,0.0,0.0,0.0,0.0,0.0,0.0,0.0,0.0,0.0,0.0,0.0,0.0,0.0,0.0,0.0,0.0,0.0,0.0,0.0,0.0,0.0,0.0,0.0,0.0,0.0,0.0,0.0,0.0,0.0,0.0,0.0,0.0,0.0,0.0,0.0,0.0,0.0,0.0,0.0,0.0,0.0,0.0,0.0,0.0,0.0,0.0,0.0,0.0,0.0,0.0,0.0,0.0,0.0,0.0,0.0,0.0,0.0,0.0,0.0,0.0,0.0,0.0,0.0,0.0,0.0,0.0,0.0,0.0,0.0,0.0,0.0,0.0,0.0,0.0,0.0,0.0,0.0,0.0,0.0,0.0,0.0,0.0,0.0,0.0,0.0,0.0,0.0,0.0,0.0,0.0,0.0,0.0,0.0,0.0,0.0,0.0,0.0,0.0,0.0,0.0,0.0,0.0,0.0,0.0,0.0,0.0,0.0,0.0,0.0,0.0,0.0,0.0,0.0,0.0,0.0,0.0,0.0,0.0,0.0,0.0,0.0,0.0,0.0,0.0,0.0,0.0,0.0,0.0,0.0,0.0,0.0,0.0,0.0,0.0,0.0,0.0,0.0,0.0,0.0,0.0,0.0,0.0,0.0,0.0,0.0,0.0,0.0,0.0,0.0,0.0,0.0,0.0,0.0,0.0,0.0,0.0,0.0,0.0,0.0,0.0,0.0,0.0,0.0,0.0,0.0,0.0,0.0,0.0,0.0,0.0,0.0,0.0,0.0,0.0,0.0,0.0,0.0,0.0,0.0,0.0,0.0,0.0,0.0,0.0,0.0,0.0,0.0,0.0,0.0,0.0,0.0,0.0,0.0,0.0,0.0,0.0,0.0,0.0,0.0,0.0,0.0,0.0,0.0,0.0,0.0,0.0,0.0,0.0,0.0,0.0,0.0,0.0,0.0,0.0,0.0,0.0,0.0,0.0,0.0,0.0,0.0,0.0,0.0,0.0,0.0,0.0,0.0,0.0,0.0,0.0,0.0,0.0,0.0,0.0,0.0,0.0,0.0,0.0,0.0,0.0,0.0,0.0,0.0,0.0,0.0,0.0,0.0,0.0,0.0,0.0,0.0,0.0,0.0,0.0,0.0,0.0,0.0,0.0,0.0,0.0,0.0,0.0,0.0,0.0,0.0,0.0,0.0,0.0,0.0,0.0,0.0,0.0,0.0,0.0,0.0,0.0,0.0,0.0,0.0,0.0,0.0,0.0,0.0,0.0,0.0,0.0,0.0,0.0,0.0,0.0,0.0,0.0,0.0,0.0,0.0,0.0,0.0,0.0,0.0,0.0,0.0,0.0,0.0,0.0,0.0,0.0,0.0,0.0,0.0,0.0,0.0,0.0,0.0,0.0,0.0,0.0,0.0,0.0,0.0,0.0,0.0,0.0,0.0,0.0,0.0,0.0,0.0,0.0,0.0,0.0,0.0,0.0,0.0,0.0,0.0,0.0,0.0,0.0,0.0,0.0,0.0,0.0,0.0,0.0,0.0,0.0,0.0,0.0,0.0,0.0,0.0,0.0,0.0,0.0,0.0,0.0,0.0,0.0,0.0,0.0,0.0,0.0,0.0,0.0,0.0,0.0,0.0,0.0,0.0,0.0,0.0,0.0,0.0,0.0,0.0,0.0,0.0,0.0,0.0,0.0,0.0,0.0,0.0,0.0,0.0,0.0,0.0,0.0,0.0,0.0,0.0,0.0,0.0,0.0,0.0,0.0,0.0,0.0,0.0,0.0,0.0,0.0,0.0,0.0,0.0,0.0,0.0,0.0,0.0,0.0,0.0,0.0,0.0,0.0,0.0,0.0,0.0,0.0,0.0,0.0,0.0,0.0,0.0,0.0,0.0,0.0,0.0,0.0,0.0,0.0,0.0,0.0,0.0,0.0,0.0,0.0,0.0,0.0,0.0,0.0,0.0,0.0,0.0,0.0,0.0,0.0,0.0,0.0,0.0,0.0,0.0,0.0,0.0,0.0,0.0,0.0,0.0,0.0,0.0,0.0,0.0,0.0,0.0,0.0,0.0,0.0,0.0,0.0,0.0,0.0,0.0,0.0,0.0,0.0,0.0,0.0,0.0,0.0,0.0,0.0,0.0,0.0,0.0,0.0,0.0,0.0,0.0,0.0,0.0,0.0,0.0,0.0,0.0,0.0,0.0,0.0,0.0,0.0,0.0,0.0,0.0,0.0,0.0,0.0,0.0,0.0,0.0,0.0,0.0,0.0,0.0,0.0,0.0,0.0,0.0,0.0,0.0,0.0,0.0,0.0,0.0,0.0,0.0,0.0,0.0,0.0,0.0,0.0,0.0,0.0,0.0,0.0,0.0,0.0,0.0,0.0,0.0,0.0,0.0,0.0,0.0,0.0,0.0,0.0,0.0,0.0,0.0,0.0,0.0,0.0,0.0,0.0,0.0,0.0,0.0,0.0,0.0,0.0,0.0,0.0,0.0,0.0,0.0,0.0,0.0,0.0,0.0,0.0,0.0,0.0,0.0,0.0,0.0,0.0,0.0,0.0,0.0,0.0,0.0,0.0,0.0,0.0,0.0,0.0,0.0,0.0,0.0,0.0,0.0,0.0,0.0,0.0,0.0,0.0,0.0,0.0,0.0,0.0,0.0,0.0,0.0,0.0,0.0,0.0,0.0,0.0,0.0,0.0,0.0,0.0,0.0,0.0,0.0,0.0,0.0,0.0,0.0,0.0,0.0,0.0,0.0,0.0,0.0,0.0,0.0,0.0,0.0,0.0,0.0,0.0,0.0,0.0,0.0,0.0,0.0,0.0,0.0,0.0,0.0,0.0,0.0,0.0,0.0,0.0,0.0,0.0,0.0,0.0,0.0,0.0,0.0,0.0,0.0,0.0,0.0,0.0,0.0,0.0,0.0,0.0,0.0,0.0,0.0,0.0,0.0,0.0,0.0,0.0,0.0,0.0,0.0,0.0,0.0,0.0,0.0,0.0,0.0,0.0,0.0,0.0,0.0,0.0,0.0,0.0,0.0,0.0,0.0,0.0,0.0,0.0,0.0,0.0,0.0,0.0,0.0,0.0,0.0,0.0,0.0,0.0,0.0,0.0,0.0,0.0,0.0,0.0,0.0,0.0,0.0,0.0,0.0,0.0,0.0,0.0,0.0,0.0,0.0,0.0,0.0,0.0,0.0,0.0,0.0,0.0,0.0,0.0,0.0,0.0,0.0,0.0,0.0,0.0,0.0,0.0,0.0,0.0,0.0,0.0,0.0,0.0,0.0,0.0,0.0,0.0,0.0,0.0,0.0,0.0,0.0,0.0,0.0,0.0,0.0,0.0,0.0,0.0,0.0,0.0,0.0,0.0,0.0,0.0,0.0,0.0,0.0,0.0,0.0,0.0,0.0,0.0,0.0,0.0,0.0,0.0,0.0,0.0,0.0,0.0,0.0,0.0,0.0,0.0,0.0,0.0,0.0,0.0,0.0,0.0,0.0,0.0,0.0,0.0,0.0,0.0,0.0,0.0,0.0,0.0,0.0,0.0,0.0,0.0,0.0,0.0,0.0,0.0,0.0,0.0,0.0,0.0,0.0,0.0,0.0,0.0,0.0,0.0,0.0,0.0,0.0,0.0,0.0,0.0,0.0,0.0,0.0,0.0,0.0,0.0,0.0,0.0,0.0,0.0,0.0,0.0,0.0,0.0,0.0,0.0,0.0,0.0,0.0,0.0,0.0,0.0,0.0,0.0,0.0,0.0,0.0,0.0,0.0,0.0,0.0,0.0,0.0,0.0,0.0,0.0,0.0,0.0,0.0,0.0,-0.984,-0.9904,0.0,0.0,0.0,0.0,0.0,0.0,0.0,0.0,0.0,0.0,0.0,0.0,0.0,0.0,0.0,0.0,0.0,0.0,0.0,0.0,0.0,0.0,0.0,0.0,0.0,0.0,0.0,0.0,0.0,0.0,0.0,0.0,0.0,0.0,0.0,0.0,0.0,0.0,0.0,0.0,0.0,0.0,0.0,0.0,0.0,0.0,0.0,0.0,0.0,0.0,0.0,0.0,0.0,0.0,0.0,0.0,0.0,0.0,0.0,0.0,0.0,0.0,0.0,0.0,0.0,0.0,0.0,0.0,0.0,0.0,0.0,0.0,0.0,0.0,0.0,0.0,0.0,0.0,0.0,0.0,0.0,0.0,0.0,0.0,0.0,0.0,0.0,0.0,0.0,0.0,0.0,0.0,0.0,0.0,0.0,0.0,0.0,0.0,0.0,0.0,0.0,0.0,0.0,0.0,0.0,0.0,0.0,0.0,0.0,0.0,0.0,0.0,0.0,0.0,-1.0856,-1.0654,0.0,0.0,0.0,0.0,0.0,0.0,0.0,0.0,0.0,0.0,0.0,0.0,0.0,0.0,0.0,0.0,0.0,0.0,0.0,0.0,0.0,0.0,0.0,0.0,0.0,0.0,0.0,0.0,0.0,0.0,0.0,0.0,0.0,0.0,0.0,0.0,0.0,0.0,0.0,0.0,0.0,0.0,0.0,0.0,0.0,0.0,0.0,0.0,0.0,0.0,0.0,0.0,0.0,0.0,0.0,0.0,0.0,0.0,0.0,0.0,0.0,0.0,0.0,0.0,0.0,0.0,0.0,0.0,0.0,0.0,0.0,0.0,0.0,0.0,0.0,0.0,0.0,0.0,0.0,0.0,0.0,0.0,0.0,0.0,0.0,0.0,0.0,0.0,0.0,0.0,0.0,0.0,0.0,0.0,0.0,0.0,0.0,0.0,0.0,0.0,0.0,0.0,0.0,0.0,0.0,0.0,0.0,0.0,-1.101,-1.1217,-1.1106,-1.2067,-1.221,-1.1605,-1.1106,-1.0756,-1.053,-1.0861,0.0,0.0,0.0,0.0,0.0,0.0,0.0,0.0,0.0,0.0,0.0,0.0,0.0,0.0,0.0,0.0,0.0,0.0,0.0,0.0,0.0,0.0,0.0,0.0,0.0,0.0,0.0,0.0,0.0,0.0,0.0,0.0,0.0,0.0,0.0,0.0,0.0,0.0,-0.817,-0.8332,-0.8362,-0.8233,-0.7549,0.0,0.0,0.0,0.0,0.0,0.0,0.0,0.0,0.0,0.0,0.0,0.0,0.0,0.0,0.0,0.0,0.0,0.0,0.0,0.0,0.0,0.0,0.0,0.0,0.0,0.0,0.0,0.0,0.0,0.0,0.0,0.0,0.0,0.0,0.0,0.0,0.0,0.0,0.0,0.0,0.0,0.0,0.0,-0.1345,-0.3537,0.0,0.0,0.0,0.0,0.0,0.0,0.0,0.0,0.0,0.0,0.0,0.0,0.0,-1.1205,-1.1745,-1.2304,-1.2436,-1.214,-1.2649,-1.2449,-1.1689,-1.2246,-1.1959,-1.102,-1.0945,0.0,-1.0935,-1.0987,0.0,0.0,0.0,0.0,0.0,0.0,0.0,0.0,0.0,0.0,0.0,0.0,0.0,0.0,0.0,0.0,0.0,0.0,0.0,0.0,0.0,0.0,0.0,0.0,0.0,0.0,0.0,0.0,0.0,0.0,0.0,0.0,0.0,0.0,0.0,0.0,-0.7838,-0.9074,-0.9642,-0.9928,-0.9817,-0.9309,-0.8374,-0.782,-0.7509,-0.7086,0.0,0.0,0.0,0.0,0.0,0.0,0.0,0.0,0.0,0.0,0.0,0.0,0.0,0.0,0.0,0.0,0.0,0.0,0.0,0.0,0.0,0.0,0.0,0.0,0.0,0.0,0.0,0.0,0.0,0.0,0.0,0.0,0.0,0.0,0.0,0.0,0.0,0.0,0.0,0.0878,-0.148,-0.4412,-0.4311,-0.4045,0.0,0.0,0.0,0.0,0.0,0.0,0.0,0.0,0.0,-1.1191,-1.1903,-1.2411,-1.2703,-1.3015,-1.3054,-1.2822,-1.2519,-1.1972,-1.1276,-1.1169,-1.0747,-1.007,-1.007,-0.975,-0.9239,-0.9847,-0.9949,-0.9649,0.0,0.0,0.0,0.0,-1.1166,-1.1546,0.0,0.0,0.0,0.0,0.0,0.0,0.0,0.0,0.0,0.0,0.0,0.0,0.0,0.0,0.0,-0.8092,0.0,0.0,0.0,0.0,0.0,0.0,0.0,0.0,0.0,0.0,0.0,0.0,-0.9371,-1.0234,-1.0483,-1.0638,-1.0345,-0.9629,-0.8701,-0.807,-0.7703,-0.7128,-0.655,0.0,0.0,0.0,0.0,0.0,0.0,0.0,0.0,0.0,0.0,0.0,0.0,0.0,0.0,0.0,0.0,0.0,0.0,0.0,0.0,0.0,0.0,0.0,0.0,0.0,0.0,0.0,0.0,0.0,0.0,0.0,0.0,0.0,0.0,0.0,0.0,0.0,0.0,-0.038,-0.228,-0.4818,-0.5012,-0.497,0.0,0.0,0.0,0.0,0.0,0.0,-0.9874,-1.0754,-1.131,-1.1449,-1.2551,-1.299,-1.2641,-1.2728,-1.2636,-1.2318,-1.1614,-1.0951,-1.0251,-0.9858,-0.9268,-0.8508,-0.8551,-0.8061,-0.7325,-0.8488,-0.8756,-0.8452,-0.8865,-0.9183,-0.9506,-1.0244,-1.0909,-1.1461,0.0,0.0,0.0,0.0,0.0,0.0,0.0,0.0,0.0,0.0,0.0,0.0,0.0,0.0,-0.7255,-0.9235,-0.8994,-0.8703,0.0,0.0,0.0,0.0,0.0,0.0,0.0,0.0,0.0,-0.9569,-0.9055,-0.9357,-1.0384,-0.9569,-0.9056,-0.8716,-0.7853,-0.7482,-0.7503,-0.7279,-0.6316,-0.4984,0.0,0.0,0.0,0.0,0.0,0.0,0.0,0.0,0.0,0.0,0.0,0.0,0.0,0.0,0.0,0.0,0.0,0.0,0.0,0.0,0.0,0.0,0.0,0.0,0.0,0.0,0.0,0.0,0.0,0.0,0.0,0.0,0.0,0.0,0.0,0.0,0.0,0.0,0.0,-0.5427,-0.6021,0.0,0.0,0.0,0.0,-0.8894,-0.9479,-1.0403,-1.1863,-1.261,-1.2892,-1.2724,-1.2908,-1.2572,-1.1682,-1.168,-1.1183,-1.0251,-1.0194,-0.9636,-0.8606,-0.8606,-0.7651,-0.6098,-0.6216,-0.6056,-0.5827,-0.7277,-0.7799,-0.7669,-0.7669,-0.8301,-0.9224,-0.9266,-0.969,-1.0336,0.0,0.0,0.0,0.0,0.0,0.0,0.0,0.0,0.0,0.0,0.0,0.0,0.0,-0.731,-0.7514,-0.8884,-0.8396,-0.8126,-0.8381,0.0,0.0,0.0,0.0,0.0,0.0,0.0,-0.846,-0.913,-0.9403,-0.9761,-1.019,-0.9362,-0.8702,-0.8146,-0.7188,-0.6493,-0.6055,-0.5876,-0.5487,-0.503,-0.4786,-0.4478,0.0,0.0,0.0,0.0,0.0,0.0,0.0,0.0,0.0,0.0,0.0,0.0,0.0,0.0,0.0,0.0,0.0,0.0,0.0,0.0,0.0,0.0,0.0,0.0,0.0,0.0,0.0,0.0,0.0,0.0,0.0,0.0,0.0,0.0,0.0,0.0,0.0,-0.6702,-0.7052,0.0,-0.7578,-0.7517,-0.8119,-0.9696,-0.9677,-1.0227,-1.1699,-1.1408,-1.1111,-1.0948,-1.0724,-1.0253,-0.9535,-0.9535,-0.9217,-0.8573,-0.8206,-0.7658,-0.6969,-0.6855,-0.6506,-0.5857,-0.5492,-0.5379,-0.5396,-0.5134,-0.5458,-0.6116,-0.6121,-0.6331,-0.68,-0.7502,-0.7939,-0.8301,0.0,0.0,0.0,0.0,0.0,0.0,0.0,0.0,0.0,0.0,0.0,-0.675,-0.7195,-0.7245,-0.7469,-0.7999,-0.7618,-0.7391,-0.7425,0.0,0.0,0.0,0.0,0.0,0.0,-0.7723,-0.8376,-0.8578,-0.8874,-0.9092,-0.924,-0.8211,-0.7456,-0.6934,-0.6024,-0.5293,-0.4701,-0.4631,-0.4613,-0.4684,-0.4707,-0.4487,-0.4132,0.0,0.0,0.0,0.0,0.0,0.0,0.0,0.0,0.0,0.0,0.0,0.0,0.0,0.0,0.0,0.0,0.0,0.0,0.0,0.0,0.0,0.0,0.0,0.0,0.0,0.0,0.0,0.0,0.0,0.0,0.0,0.0,0.0,0.0,-0.5733,-0.6034,-0.7518,-0.7629,-0.7715,-0.7996,-0.7968,-0.8346,-0.9292,-0.9213,-0.9529,-1.045,-1.0012,-0.9683,-0.961,-0.8889,-0.8319,-0.7916,-0.7111,-0.6429,-0.589,-0.5806,-0.5418,-0.4852,-0.5425,-0.528,-0.4453,-0.3611,-0.3302,-0.3324,-0.2613,-0.3029,-0.4132,-0.4105,-0.4109,-0.4199,-0.4946,-0.5753,-0.6591,0.0,0.0,0.0,0.0,0.0,0.0,0.0,0.0,0.0,0.0,-0.5429,-0.5751,-0.5875,-0.6749,-0.7139,-0.6708,-0.6774,-0.6583,-0.5924,-0.5503,0.0,0.0,0.0,0.0,-0.6168,-0.7129,-0.7743,-0.8008,-0.736,-0.7179,-0.7461,-0.6019,-0.5271,-0.5118,-0.4379,-0.3855,-0.351,-0.37,-0.3765,-0.3833,-0.4797,-0.4546,-0.3551,0.0,0.0,0.0,0.0,0.0,0.0,0.0,0.0,0.0,0.0,0.0,0.0,0.0,0.0,0.0,0.0,0.0,0.0,0.0,0.0,0.0,0.0,0.0,0.0,0.0,0.0,0.0,0.0,0.0,0.0,0.0,0.0,0.0,-0.747,-0.745,-0.7503,-0.7808,-0.77,-0.7563,-0.7424,-0.7718,-0.7845,-0.7754,-0.815,-0.8366,-0.8237,-0.8593,-0.879,-0.8741,-0.7397,-0.6664,-0.6704,-0.4423,-0.2936,-0.2225,-0.302,-0.2985,-0.2291,-0.424,-0.3904,-0.1685,-0.048,0.0217,0.0462,0.0209,-0.0558,-0.1657,-0.1695,-0.1731,-0.1725,-0.1725,-0.3231,-0.5256,0.0,0.0,0.0,0.0,0.0,0.0,0.0,0.0,0.0,0.0,-0.5277,-0.5402,-0.5343,-0.5644,-0.5943,-0.612,-0.5894,-0.5575,-0.5192,0.0,0.0,0.0,0.0,0.0,-0.5311,-0.5951,-0.6175,-0.599,-0.5775,-0.5435,-0.5054,-0.4349,-0.3935,-0.3729,-0.3421,-0.328,-0.3194,-0.3075,-0.2987,-0.2971,-0.2843,-0.258,-0.2279,0.0,0.0,0.0,0.0,0.0,0.0,0.0,0.0,0.0,0.0,0.0,0.0,0.0,0.0,0.0,0.0,0.0,0.0,0.0,0.0,0.0,0.0,0.0,0.0,0.0,0.0,0.0,0.0,0.0,0.0,0.0,-0.6269,-0.6295,-0.6597,-0.716,-0.7334,-0.6756,-0.7288,-0.7728,-0.7775,-0.6705,-0.6699,-0.8286,-0.7034,-0.5747,-0.4809,-0.4384,-0.3844,-0.315,-0.2323,-0.1906,-0.1892,-0.0827,-0.0392,-0.0617,-0.0838,-0.0839,-0.0663,-0.1195,-0.1101,-0.0437,0.0796,0.1862,0.2731,0.2639,0.2434,0.1962,0.0172,-0.0478,-0.0492,-0.0491,-0.1639,-0.3312,0.0,0.0,0.0,0.0,0.0,0.0,0.0,0.0,0.0,0.0,-0.4359,-0.4358,-0.4272,-0.4897,-0.5199,-0.4964,-0.4108,-0.3326,-0.2751,0.0,0.0,0.0,0.0,-0.383,-0.4049,-0.4652,-0.4935,-0.4871,-0.4716,-0.4422,-0.4045,-0.3825,-0.3642,-0.3489,-0.2534,-0.2436,-0.2907,-0.2753,-0.1685,-0.0039,0.0328,-0.0127,-0.1047,-0.1064,-0.1204,-0.1604,-0.3087,-0.3636,-0.3704,-0.3704,0.0,0.0,0.0,0.0,0.0,0.0,0.0,0.0,0.0,0.0,0.0,0.0,0.0,0.0,0.0,0.0,0.0,0.0,0.0,0.0,0.0,0.0,0.0,0.0,-0.6139,-0.5935,-0.5297,-0.6585,-0.7389,-0.6769,-0.7075,-0.7075,-0.6491,-0.4397,-0.3648,-0.4963,-0.3773,-0.2576,-0.164,-0.0659,0.0134,0.067,0.1697,0.2469,0.2906,0.2973,0.2813,0.2471,0.2115,0.1808,0.1502,0.1505,0.1772,0.222,0.245,0.3129,0.4035,0.3721,0.3592,0.3398,0.0,0.0,0.0,0.0,0.0267,-0.1463,0.0,0.0,0.0,0.0,0.0,0.0,0.0,0.0,0.0,0.0,0.0,-0.28,-0.2903,-0.4053,-0.4396,-0.3342,-0.1896,-0.054,0.0,0.0,0.0,-0.0868,-0.2152,-0.2735,-0.2501,-0.3372,-0.3916,-0.4041,-0.3808,-0.3682,-0.369,-0.3709,-0.3752,-0.3773,-0.1918,-0.1579,-0.2404,-0.2609,-0.0272,0.3621,0.3612,0.2336,0.0383,0.0265,0.0134,-0.0268,-0.2417,-0.3372,-0.3609,-0.3609,0.0,0.0,0.0,0.0,0.0,0.0,0.0,0.0,0.0,0.0,0.0,0.0,0.0,0.0,0.0,0.0,0.0,0.0,0.0,0.0,0.0,0.0,0.0,0.0,-0.5713,-0.5193,-0.3637,-0.5114,-0.6447,-0.6548,-0.6032,-0.5189,-0.4026,-0.1249,0.0555,0.0663,0.0793,0.1048,0.1444,0.2632,0.0,0.0,0.0,0.5835,0.6786,0.624,0.5886,0.5842,0.5096,0.4422,0.3811,0.384,0.4393,0.5262,0.4272,0.4168,0.4727,0.406,0.3751,0.3575,0.2455,0.1251,0.0447,0.2608,0.2018,0.0134,0.0,0.0,0.0,0.0,0.0,0.0,0.0,0.0,0.0,-0.224,-0.1213,-0.0862,-0.1562,-0.184,-0.1734,-0.1076,-0.0532,0.0853,0.0,0.0,0.0698,0.1186,-0.0415,-0.1316,-0.1235,-0.238,-0.262,-0.1902,-0.1838,-0.1823,-0.1812,-0.1813,-0.2226,-0.2946,-0.2543,-0.1672,-0.0621,-0.2067,-0.0243,0.3591,0.3591,0.3331,0.2794,0.1827,0.0847,-0.0045,-0.0534,-0.1961,-0.3588,-0.3588,-0.3805,-0.4101,-0.4101,0.0,0.0,0.0,0.0,0.0,0.0,0.0,0.0,0.0,0.0,0.0,0.0,0.0,0.0,0.0,0.0,0.0,0.0,0.0,0.0,-0.6144,-0.4497,-0.2733,-0.1808,-0.0052,0.047,-0.1204,-0.0523,-0.0153,-0.0786,0.183,0.3843,0.4636,0.4909,0.5012,0.4941,0.549,0.552,0.4863,0.563,0.5913,0.5613,0.5961,0.5884,0.5404,0.5265,0.0,0.4957,0.5216,0.5301,0.529,0.5276,0.5251,0.5183,0.5048,0.47,0.4176,0.349,0.2506,0.1517,0.1966,0.1649,0.0977,0.0,0.0,0.0,0.0,0.0,0.0,0.0,0.0,0.0,0.0,0.0659,0.1625,0.1219,0.1166,0.102,0.0743,0.1515,0.0,0.0,0.3536,0.2766,0.2647,0.1943,0.1194,0.0465,-0.0298,-0.0699,-0.0635,-0.02,0.007,0.0226,-0.0367,-0.0908,-0.1336,-0.1348,-0.0159,0.1753,0.0832,0.1678,0.3598,0.3618,0.3588,0.3544,0.2951,0.2322,0.165,0.0445,-0.0768,-0.1794,-0.1793,-0.2333,-0.2945,-0.2748,-0.3231,-0.3897,0.0,0.0,0.0,0.0,0.0,0.0,0.0,0.0,0.0,0.0,0.0,0.0,0.0,0.0,-0.5514,0.0,0.0,-0.3192,-0.2749,-0.1924,-0.0657,0.1343,0.2603,0.2858,0.1581,0.3035,0.4222,0.4367,0.531,0.603,0.6427,0.663,0.6655,0.6527,0.7091,0.7197,0.6618,0.689,0.686,0.6405,0.6539,0.6471,0.6161,0.6161,0.5996,0.5744,0.5908,0.5897,0.575,0.5556,0.5585,0.5744,0.5437,0.513,0.4826,0.4539,0.3744,0.2768,0.312,0.2896,0.2408,0.0,0.0,0.0,0.0,0.0,0.0,0.0,0.0,0.0,0.0,0.2377,0.3598,0.3605,0.3556,0.3217,0.0,0.0,0.0,0.0,0.502,0.4568,0.4118,0.4197,0.3681,0.2501,0.2041,0.1526,0.0943,0.1659,0.2009,0.2021,0.1142,0.0588,0.0339,0.0413,0.1502,0.3341,0.3516,0.3621,0.3667,0.3636,0.3581,0.3581,0.3581,0.3585,0.336,0.1369,0.0484,0.0264,0.0307,-0.0397,-0.1248,-0.0896,-0.1936,-0.3227,-0.2992,-0.3163,0.0,0.0,0.0,0.0,0.0,0.0,0.0,0.0,0.0,-0.67,-0.5855,-0.6084,-0.5666,-0.3176,-0.1829,-0.049,0.1229,0.1296,0.2152,0.5099,0.4922,0.4501,0.4421,0.5869,0.7344,0.8629,0.8242,0.7759,0.7548,0.7802,0.7866,0.7672,0.8386,0.8546,0.8037,0.8078,0.7915,0.7513,0.7314,0.7193,0.7108,0.7139,0.6901,0.6355,0.6404,0.6398,0.6307,0.5825,0.591,0.6313,0.5788,0.5543,0.5543,0.5543,0.4935,0.4058,0.4604,0.442,0.3943,0.0,0.0,0.0,0.0,0.0,0.0,0.0,0.0,0.0,0.0,0.0,0.0,0.0,0.0,0.0,0.0,0.0,0.0,0.6278,0.5595,0.5454,0.6142,0.545,0.4985,0.4822,0.4087,0.3907,0.4355,0.4442,0.3969,0.2976,0.313,0.2618,0.1598,0.1835,0.2102,0.2394,0.3248,0.3681,0.3868,0.3681,0.3581,0.3581,0.3581,0.3581,0.352,0.3089,0.2153,0.1183,0.1479,0.1035,0.0357,0.0601,0.0093,-0.0615,-0.0608,0.0,-0.1514,-0.1526,-0.2822,-0.4325,-0.4986,-0.5713,-0.6519,0.0,0.0,-0.8009,-0.7218,-0.561,-0.4039,-0.3063,-0.0,0.2473,0.2874,0.498,0.7245,0.9288,0.8698,0.856,0.9768,0.8528,0.7865,0.8659,0.9214,0.9409,0.9094,0.9903,1.0156,0.9628,0.9945,0.9651,0.8475,0.8685,0.8357,0.7513,0.7923,0.7902,0.7459,0.7666,0.7489,0.6907,0.7207,0.7187,0.6894,0.6852,0.6852,0.6872,0.6597,0.6474,0.6474,0.6474,0.6056,0.5434,0.5291,0.5178,0.5091,0.0,0.0,0.0,0.0,0.0,0.0,0.0,0.0,0.0,0.0,0.0,0.0,0.0,0.0,0.0,0.0,0.0,0.0,0.6893,0.6511,0.6886,0.8479,0.7479,0.6937,0.7072,0.5968,0.5508,0.5786,0.524,0.4866,0.4742,0.4265,0.3709,0.3044,0.3199,0.3271,0.3398,0.3798,0.4181,0.4594,0.4518,0.4608,0.4785,0.4468,0.434,0.4291,0.3691,0.3298,0.0,0.0,0.2995,0.2859,0.3048,0.306,0.2796,0.1732,0.1736,0.0,-0.0,-0.1839,-0.3453,-0.447,-0.5657,-0.6613,-0.7098,-0.7816,-0.8067,-0.6795,-0.575,-0.4112,-0.1108,0.2383,0.5164,0.0,0.6965,0.8243,1.028,0.9799,0.9798,1.1208,1.0289,0.9622,0.99,1.0187,1.0292,1.0176,1.0572,1.0681,1.0424,1.0557,1.0311,0.9624,0.9329,0.8922,0.8314,0.8144,0.8007,0.7951,0.8092,0.8092,0.7979,0.8124,0.8108,0.7987,0.8219,0.8338,0.8369,0.8468,0.8292,0.7919,0.7747,0.7493,0.7097,0.6174,0.561,0.5303,0.0,0.0,0.0,0.0,0.0,0.0,0.0,0.0,0.0,0.0,0.0,0.0,0.0,0.0,0.0,0.0,0.0,0.0,0.0,0.7455,0.8208,1.0149,0.9272,0.8795,0.8888,0.7675,0.7085,0.7172,0.6285,0.5969,0.6185,0.555,0.4913,0.4384,0.459,0.4718,0.4797,0.4599,0.4889,0.5408,0.5105,0.5259,0.5662,0.5091,0.4909,0.4836,0.4069,0.4047,0.0,0.0,0.4455,0.4618,0.4808,0.5049,0.504,0.3771,0.3943,0.3945,0.1382,-0.0523,-0.216,-0.3632,-0.5018,-0.6168,-0.684,-0.7464,-0.7554,-0.6253,-0.5246,-0.3471,0.0151,0.3789,0.668,0.798,0.8357,0.9061,1.0805,1.0772,1.0956,1.1972,1.1674,1.1384,1.1384,1.1225,1.1166,1.1384,1.1384,1.1384,1.1384,1.1384,1.1152,1.0677,1.0287,0.9737,0.9024,0.8882,0.8673,0.8401,0.8658,0.8691,0.848,0.848,0.8528,0.8675,0.9096,0.9356,0.9517,0.9877,0.975,0.9307,0.8972,0.8795,0.852,0.7326,0.6628,0.624,0.0,0.0,0.0,0.0,0.0,0.0,0.0,0.0,0.0,0.0,0.0,0.0,0.0,0.0,0.0,0.0,0.0,0.0,0.0,0.8332,0.9224,1.0698,1.0491,1.0268,1.014,0.9138,0.8807,0.9117,0.836,0.7661,0.6981,0.7218,0.6732,0.5652,0.6136,0.634,0.6294,0.5578,0.5681,0.6253,0.5157,0.5093,0.5631,0.5119,0.4984,0.501,0.4418,0.0,0.0,0.4973,0.509,0.5086,0.5227,0.5298,0.0,0.5389,0.4983,0.4189,0.2889,0.123,-0.0474,-0.2202,-0.3607,-0.5035,-0.6928,-0.7031,-0.6529,-0.5996,-0.3534,-0.1147,-0.0158,0.3508,0.6611,0.7321,0.9206,1.0872,1.1642,1.2307,1.2745,1.2871,1.2832,1.2832,0.0,1.2187,1.208,1.2774,1.2832,1.2832,1.2832,1.2832,1.2368,1.1387,1.1598,1.097,0.9419,1.0556,1.0267,0.868,0.9587,0.9316,0.7919,0.7919,0.8127,0.8553,0.9074,0.9542,0.9993,1.0262,1.0364,1.0331,0.9864,0.9678,0.9596,0.8898,0.8594,0.8643,0.0,0.0,0.0,0.0,0.0,0.0,0.0,0.0,0.0,0.0,0.0,0.0,0.0,0.0,0.0,0.0,0.0,0.0,0.0,0.7966,0.9965,1.152,1.1394,1.1522,1.2118,1.1182,1.087,1.1274,1.0364,0.9818,0.952,0.8992,0.8192,0.7243,0.7722,0.7749,0.7478,0.7538,0.7978,0.8524,0.7886,0.8126,0.8692,0.7554,0.749,0.7896,0.0,0.0,0.0,0.5891,0.6046,0.615,0.6553,0.6471,0.6198,0.6303,0.5716,0.4841,0.4092,0.2599,0.0954,-0.0487,-0.2189,-0.3805,-0.516,-0.605,-0.6559,-0.638,-0.4104,-0.141,0.1092,0.4939,0.8099,0.9227,1.0916,1.2327,1.3044,1.3331,1.3474,1.3505,1.3152,0.0,0.0,0.0,0.0,1.2881,1.2881,1.2881,1.2881,1.2881,1.2754,1.2407,1.1563,1.0856,1.034,0.9845,0.9471,0.9236,1.0202,1.0201,0.9375,1.0052,1.0422,1.0558,1.1019,1.1314,1.1472,1.1882,1.1789,1.1288,1.0948,1.0751,1.0679,1.0561,1.0567,1.0502,0.0,0.0,0.0,0.0,0.0,0.0,0.0,0.0,0.0,0.0,0.0,0.0,0.0,0.0,0.0,0.0,0.0,0.0,0.0,0.0,0.9591,1.1583,1.1527,1.2096,1.3466,1.2384,1.2048,1.249,1.1398,1.0865,1.0818,0.9944,0.9209,0.8688,0.9287,0.9289,0.882,0.9257,0.9591,0.9861,0.9343,0.9587,1.0021,0.904,0.9079,0.0,0.0,0.0,0.7107,0.7036,0.7015,0.711,0.7208,0.7015,0.6791,0.6991,0.6487,0.577,0.5536,0.4204,0.2694,0.1818,0.011,-0.1488,-0.221,-0.3312,-0.4255,-0.4223,-0.2447,-0.0,0.2869,0.5995,0.8474,0.9588,1.1489,1.301,1.347,1.3701,1.3822,1.3794,1.3286,1.2774,0.0,0.0,0.0,1.2881,1.2881,1.2881,1.2881,1.2881,1.2881,1.2881,1.1999,1.1425,1.1166,1.0576,1.0186,1.0115,1.0274,1.0222,0.997,1.0894,1.1366,1.1564,1.2008,1.2324,1.248,1.2764,1.2608,1.215,1.1836,1.1631,1.1565,1.1509,1.1614,1.1669,0.0,0.0,0.0,0.0,0.0,0.0,0.0,0.0,0.0,0.0,0.0,0.0,0.0,0.0,0.0,0.0,0.0,0.0,0.0,0.0,0.0,1.0767,1.0902,1.1919,1.4001,1.2719,1.2272,1.2781,1.1504,1.09,1.0945,1.0234,0.9855,0.9876,1.0723,1.0819,1.0277,1.0648,1.0631,1.031,0.9713,0.9621,0.9839,0.9683,0.0,0.0,0.0,0.0,0.0,0.8291,0.7942,0.7817,0.7216,0.7068,0.7148,0.7428,0.7192,0.6927,0.7188,0.5981,0.4594,0.459,0.3099,0.1663,0.1605,0.0884,0.0221,0.0221,0.138,0.3009,0.0,0.0,0.7934,0.866,1.114,1.302,1.3152,1.3652,1.395,0.0,0.0,0.0,0.0,0.0,0.0,1.2725,1.2774,1.2832,1.2822,1.2832,1.2832,1.2822,1.2832,1.2452,1.1715,1.2384,1.2128,1.1039,0.9904,0.9487,0.9719,1.048,1.1013,1.1415,1.1958,1.2443,1.2832,1.2881,1.2881,1.2842,1.2422,1.2266,1.2207,1.1822,1.1939,1.2219,0.0,0.0,0.0,0.0,0.0,0.0,0.0,0.0,0.0,0.0,0.0,0.0,0.0,0.0,0.0,0.0,0.0,0.0,0.0,0.0,0.0,0.0,0.0,0.0,0.0,0.0,0.0,0.0,0.0,1.1815,1.1502,1.1361,1.0909,1.0202,1.1132,1.143,1.1283,1.164,1.1987,1.2175,0.0,1.1705,1.2016,0.0,0.0,0.0,0.0,0.0,0.0,0.0,0.0,0.8099,0.7531,0.7662,0.7946,0.7468,0.7419,0.7373,0.6913,0.6431,0.5973,0.5629,0.4638,0.3684,0.3441,0.3335,0.3329,0.3361,0.4084,0.5076,0.6199,0.0,0.0,0.9867,1.2351,0.0,1.4281,1.4822,0.0,1.4549,0.0,1.3102,1.1913,1.1814,0.0,0.0,1.1334,1.1525,1.203,1.1625,1.1584,1.208,1.1584,1.1023,1.0312,1.0218,0.9805,0.9138,0.9676,0.9779,0.9499,1.0376,1.0837,1.098,1.163,1.1978,1.2129,1.2666,1.2881,1.292,1.324,1.3114,1.2743,1.3113,1.3014,1.2715,0.0,0.0,0.0,0.0,0.0,0.0,0.0,0.0,0.0,0.0,0.0,0.0,0.0,0.0,0.0,0.0,0.0,0.0,0.0,0.0,0.0,0.0,0.0,0.0,0.0,0.0,0.0,0.0,0.0,0.0,0.0,1.0649,1.0449,1.0326,1.1103,1.1255,1.1031,1.2043,0.0,0.0,0.0,0.0,0.0,0.0,0.0,0.0,0.0,0.0,0.0,0.0,0.0,0.8224,0.7692,0.7796,0.8154,0.7873,0.7916,0.7896,0.7261,0.7074,0.6934,0.6226,0.5615,0.5218,0.502,0.5092,0.5284,0.5383,0.5748,0.624,0.6921,0.8404,0.9717,0.0,0.0,0.0,1.4429,1.4917,1.5131,0.0,1.4143,0.0,1.1507,1.1366,1.0805,0.9526,1.0305,1.0965,1.1366,1.1015,1.0965,1.1366,1.1015,1.0618,1.0269,0.9592,0.9211,0.9003,0.9593,0.974,0.9602,1.0428,1.0813,1.0864,1.1516,1.1814,1.1864,1.2608,1.2881,1.292,1.3286,1.32,1.2929,1.3286,1.319,1.2881,0.0,0.0,0.0,0.0,0.0,0.0,0.0,0.0,0.0,0.0,0.0,0.0,0.0,0.0,0.0,0.0,0.0,0.0,0.0,0.0,0.0,0.0,0.0,0.0,0.0,0.0,0.0,0.0,0.0,0.0,0.0,0.0,0.0,0.0,0.0,0.0,0.0,0.0,0.0,0.0,0.0,0.0,0.0,0.0,0.0,0.0,0.0,0.0,0.0,0.0,0.881,0.8327,0.7926,0.7941,0.818,0.8303,0.8397,0.8318,0.7781,0.7723,0.7553,0.6668,0.635,0.6299,0.6299,0.6268,0.6297,0.6503,0.6676,0.6849,0.7275,0.8684,0.9765,0.9831,0.0,1.396,1.4071,1.4603,1.4896,1.4607,1.419,1.312,1.1015,1.0813,0.9938,0.7877,0.9377,1.0399,1.0391,1.0289,1.0289,1.0391,1.0399,1.045,1.0501,0.973,0.9444,0.9658,0.9437,0.9444,0.9666,1.0269,1.0517,1.0568,1.1366,1.1665,1.1715,1.2559,1.2881,1.2929,1.2968,1.292,1.2774,1.2861,1.2822,1.2764,0.0,0.0,0.0,0.0,0.0,0.0,0.0,0.0,0.0,0.0,-0.3581,-0.3581,0.0,0.0,0.0,0.0,0.0,0.0,0.0,0.0,0.0,0.0,0.0,0.0,0.0,0.0,0.0,0.0,0.0,0.0,0.0,0.0,0.0,0.0,0.0,0.0,0.0,0.0,0.0,0.0,0.0,0.0,0.0,0.0,0.0,0.0,0.0,0.0,0.0,0.0,0.8618,0.8844,0.9196,0.9397,0.93,0.8427,0.8415,0.8528,0.7614,0.7827,0.8169,0.773,0.7152,0.6753,0.691,0.6568,0.0,0.6401,0.6987,0.7545,0.7611,0.8975,1.0222,1.0549,1.2536,1.4038,1.3879,1.5203,1.5648,0.0,1.4283,1.3538,1.1057,1.0813,0.0,0.0,0.8031,0.8224,0.8134,0.7623,0.7576,0.8128,0.8218,0.8488,0.9044,0.8933,0.8908,0.8956,0.8908,0.8908,0.8956,0.9106,0.9159,0.9211,1.0415,1.0965,1.1065,1.2363,1.2881,1.2978,1.3467,1.2957,1.207,1.2599,1.2453,1.1972,0.0,0.0,0.0,0.0,0.0,0.0,0.0,0.0,-0.4229,-0.4187,-0.4229,-0.4108,-0.3633,-0.3581,0.0,0.0,0.0,0.0,0.0,0.0,0.0,0.0,0.0,0.0,0.0,0.0,0.4312,0.4495,0.0,0.0,0.0,0.5438,0.6192,0.0,0.0,0.0,0.0,0.0,0.0,0.0,0.0,0.0,0.0,0.0,0.0,0.0,0.0,0.0,0.0,0.0,0.9444,0.9479,0.9415,0.9508,0.9552,0.8993,0.8905,0.8802,0.774,0.7933,0.8214,0.732,0.7161,0.7245,0.7449,0.0,0.0,0.758,0.7958,0.8262,0.8262,0.9519,0.0,1.0788,1.2365,1.3739,1.4218,1.5098,1.5346,1.4389,1.4514,1.3679,1.1057,1.0813,0.9776,0.7337,0.7128,0.7122,0.7101,0.6794,0.674,0.7047,0.7117,0.7283,0.7587,0.8037,0.8209,0.8209,0.8593,0.8804,0.8804,0.8804,0.8804,0.8857,1.0218,1.0813,1.0914,1.2314,1.2881,1.2871,1.2812,1.2355,1.1814,1.1747,1.1548,1.1266,0.0,0.0,0.0,0.0,0.0,0.0,0.0,-0.4299,-0.4621,-0.4536,-0.4592,-0.4393,-0.3722,-0.3626,-0.3626,0.0,0.0,0.0,0.0,0.0,0.0,0.0,0.0,0.0,0.0,0.0,0.0,0.0474,0.0685,0.0,0.0,0.0,0.0,0.0,0.5111,0.5747,0.0,0.0,0.0,0.0,0.0,0.0,0.0,0.0,0.0,0.0,0.0,0.0,0.0,0.0,0.9814,0.9632,0.9512,0.9699,1.0015,0.9813,0.9687,0.9358,0.835,0.8473,0.8538,0.7225,0.7313,0.7767,0.7997,0.7977,0.0,0.8684,0.8804,0.8804,0.8804,0.971,1.0479,0.0,1.1893,1.3177,1.3964,1.4706,1.4963,0.0,1.4606,0.0,1.1249,1.0864,0.0,0.7015,0.6529,0.6312,0.615,0.6154,0.6154,0.6154,0.6312,0.6367,0.6367,0.7235,0.7723,0.7723,0.8427,0.8804,0.8804,0.8804,0.8804,0.8857,1.0218,1.0813,1.0922,1.2147,1.2666,1.2608,1.1882,1.1516,1.1316,1.0762,1.0568,1.0568,0.0,0.0,0.0,0.0,0.0,0.0,0.0,-0.3835,-0.3882,-0.3886,-0.3767,-0.3733,-0.3761,-0.3771,-0.3771,0.0,0.0,0.0,0.0,0.0,0.0,0.0,0.0,0.0,0.0,0.0,0.0,-0.3941,-0.3893,0.0,0.0,0.0,0.0,0.0,0.0,0.3369,0.4831,0.0,0.0,0.0,0.0,0.0,0.0,0.0,0.0,0.0,0.0,0.0,0.0,0.0,0.0,0.8852,1.0161,1.1123,1.1591,1.0807,0.0,0.0,0.9804,0.9952,1.0029,0.8807,0.8466,0.8438,0.8582,0.0,0.8048,0.8684,0.8804,0.8804,0.8804,0.9082,0.947,0.982,0.0,1.2136,1.2094,1.4082,1.5128,1.4003,0.0,0.0,1.1809,1.1149,0.9887,0.7771,0.6357,0.5328,0.4736,0.468,0.468,0.468,0.5273,0.5597,0.5597,0.7009,0.7723,0.7723,0.8427,0.8804,0.8804,0.8804,0.8804,0.8857,1.0218,1.0813,1.0864,1.1616,1.1913,1.1823,1.1166,1.0517,0.9961,0.9917,0.9917,0.9917,0.0,0.0,0.0,0.0,0.0,0.0,0.0,-0.4289,-0.4475,-0.4445,-0.4495,-0.4482,-0.4353,-0.415,-0.3995,0.0,0.0,0.0,0.0,0.0,0.0,0.0,0.0,0.0,0.0,0.0,-0.2856,-0.3115,-0.4063,0.0,0.0,0.0,0.0,0.0,0.0,0.172,0.3178,0.0,0.0,0.0,0.0,0.0,0.0,0.0,0.0,0.0,0.0,0.0,0.0,0.0,0.0,0.0,0.9972,1.0978,0.0,0.0,1.1676,1.149,1.1018,1.0895,1.0634,0.943,0.9076,0.8971,0.8761,0.0,0.8469,0.8736,0.8427,0.8156,0.8156,0.8567,0.8971,0.9089,0.0,0.0,1.228,1.3046,1.3675,1.4286,1.4236,0.0,0.0,0.0,0.9776,0.723,0.6086,0.5218,0.4519,0.4519,0.4519,0.4519,0.4732,0.4893,0.4893,0.5869,0.6578,0.702,0.7777,0.8374,0.8804,0.8804,0.8804,0.8857,0.9814,1.0218,1.0261,1.1366,1.1566,1.1166,1.0914,1.0415,0.9762,0.9361,0.9211,0.9211,0.0,0.0,0.0,0.0,0.0,-0.3894,-0.415,-0.4424,-0.4617,-0.4665,-0.4654,-0.459,-0.4479,-0.4253,-0.405,-0.3938,0.0,0.0,0.0,0.0,0.0,0.0,0.0,0.0,0.0,0.0,0.0,-0.277,-0.3918,-0.4499,0.0,0.0,-0.2314,-0.1293,0.0,0.0,0.0,0.0,0.0,0.0,0.0,0.0,0.0,0.0,0.0,0.0,0.0,0.0,0.0,0.0,0.0,0.0,0.0,0.0,0.0,0.0,1.2298,1.2307,1.2248,1.2192,1.1866,1.0591,1.0147,0.9912,0.0,0.0,0.8791,0.9034,0.8362,0.7723,0.7723,0.8078,0.8324,0.8106,0.0,1.0417,1.1469,1.1814,1.2449,1.3674,0.0,1.3052,1.1978,1.0663,0.8947,0.6745,0.6091,0.5437,0.4574,0.4519,0.4519,0.4519,0.4519,0.4519,0.4519,0.5164,0.576,0.6312,0.7235,0.7996,0.848,0.8699,0.8804,0.8857,0.9517,0.9814,0.9865,1.0813,1.0914,1.0466,1.0269,0.9806,0.9138,0.8633,0.8321,0.8156,0.0,0.0,0.0,0.0,0.0,0.0,0.0,-0.3988,-0.3904,-0.417,-0.3866,-0.37,-0.39,-0.3883,-0.3933,-0.4019,0.0,0.0,0.0,0.0,0.0,0.0,0.0,0.0,0.0,0.0,0.0,-0.4193,-0.4398,-0.4487,-0.4477,-0.448,-0.4484,-0.4379,0.0,0.0,0.0,0.0,0.0,0.0,0.0,0.0,0.0,0.0,0.0,0.0,0.0,0.0,0.0,0.0,0.0,0.0,0.0,0.0,0.0,0.0,1.2529,1.3196,1.3631,1.407,1.4044,1.2709,1.1934,1.146,0.0,0.9942,0.8886,0.9628,0.8666,0.7723,0.7723,0.7723,0.745,0.675,0.8435,0.0,0.8835,1.0436,1.1693,0.0,0.0,1.1978,0.9852,0.8502,0.7396,0.6642,0.6588,0.5991,0.457,0.4519,0.4519,0.4519,0.4519,0.4519,0.4519,0.5164,0.5487,0.5538,0.7009,0.7723,0.7723,0.848,0.8804,0.8857,0.9517,0.9814,0.9814,0.9814,0.9814,0.9762,0.9061,0.8368,0.7723,0.7723,0.7235,0.6642,0.0,0.0,0.0,0.0,0.0,0.0,0.0,-0.3921,-0.3829,-0.399,-0.4018,-0.3791,-0.3144,-0.3698,-0.4127,-0.4123,0.0,0.0,0.0,0.0,0.0,0.0,0.0,0.0,0.0,0.0,0.0,0.0,0.0,-0.4542,-0.5055,-0.5055,-0.5218,-0.5433,-0.4268,-0.3776,0.0,0.0,0.0,0.0,0.0,0.0,0.0,0.0,0.0,0.0,0.0,0.0,0.0,0.0,0.0,0.0,0.0,0.0,0.0,0.0,0.0,0.0,1.357,1.4118,1.4226,1.3144,1.2281,1.163,1.1361,1.0257,0.9345,0.973,0.8283,0.6966,0.6966,0.6524,0.614,0.5873,0.6838,0.0,0.0,0.0,0.0,1.0213,1.093,1.0756,0.0,0.0,0.7906,0.6696,0.6145,0.5437,0.4574,0.4519,0.4519,0.4519,0.4519,0.4519,0.4519,0.4736,0.5058,0.5487,0.5977,0.674,0.7723,0.7937,0.8321,0.8804,0.9008,0.9106,0.9159,0.9614,0.9242,0.8402,0.8652,0.8019,0.6966,0.6966,0.6804,0.6588,0.0,0.0,0.0,0.0,0.0,0.0,0.0,-0.389,-0.3887,-0.4115,-0.3762,-0.3438,-0.3158,-0.3799,-0.4168,-0.411,0.0,0.0,0.0,0.0,0.0,0.0,0.0,0.0,0.0,0.0,0.0,0.0,0.0,0.0,0.0,0.0,-0.5672,-0.6004,-0.5419,0.0,0.0,0.0,0.0,0.0,0.0,0.0,-0.1682,0.0,0.0,0.0,0.0,0.0,0.0,0.0,0.0,0.0,0.0,0.0,0.0,0.0,0.6064,0.8907,0.0,1.357,1.3224,1.2898,1.2388,0.0,0.0,1.0687,0.9779,0.9773,0.8059,0.6534,0.6258,0.5814,0.5433,0.5164,0.6105,0.6686,0.0,0.0,0.0,0.6705,0.0,0.0,0.0,0.7476,0.7143,0.6253,0.576,0.5218,0.4519,0.4519,0.4519,0.4519,0.4519,0.4519,0.4519,0.4519,0.4736,0.5109,0.5378,0.5977,0.6902,0.7182,0.7557,0.7996,0.7996,0.7996,0.0,0.8396,0.8078,0.7343,0.7747,0.7208,0.6204,0.6204,0.6041,0.5828,0.0,0.0,0.0,0.0,0.0,0.0,0.0,0.0,0.0,-0.4396,-0.3323,-0.2883,-0.3801,-0.4082,-0.4143,-0.4036,0.0,0.0,0.0,0.0,0.0,0.0,0.0,0.0,0.0,0.0,0.0,-0.2596,-0.4415,-0.5191,-0.5078,0.0,0.0,-0.6391,-0.634,0.0,0.0,0.0,0.0,0.0,0.0,0.0,0.0,0.0,0.0,0.0,0.0,0.0,0.0,0.0,0.0,0.0,0.0,0.0,0.0,0.0,0.0,0.0,0.0,1.1941,1.1184,1.2047,1.2114,1.2015,0.0,0.0,0.0,0.0,0.0,0.6317,0.5651,0.5487,0.5222,0.4629,0.59,0.0,0.0,0.1949,0.0,0.0,0.1815,0.0,0.4941,0.5251,0.537,0.5542,0.5487,0.5164,0.4515,0.4519,0.4519,0.4519,0.4519,0.4519,0.4519,0.4519,0.4519,0.4519,0.5109,0.5433,0.5542,0.6199,0.6534,0.6588,0.6588,0.6588,0.6588,0.6588,0.6588,0.6529,0.6529,0.6091,0.5433,0.5433,0.5058,0.4519,0.0,0.0,0.0,0.0,0.0,0.0,0.0,0.0,0.0,0.0,-0.3879,-0.3822,-0.3907,-0.407,-0.4184,0.0,0.0,0.0,0.0,0.0,0.0,0.0,0.0,0.0,0.0,0.0,0.0,-0.4376,-0.4853,-0.5663,-0.6796,-0.6545,0.0,0.0,0.0,0.0,0.0,0.0,0.0,0.0,0.0,0.0,0.0,0.0,0.0,0.0,-0.4896,-0.5088,0.0,0.0,0.0,0.0,0.0,0.0,0.0,0.0,-0.3577,-0.1087,0.2289,0.0,0.8203,1.0224,0.99,0.9196,0.0,0.0,0.0,0.0,0.0,0.0,0.0,0.0,0.0,0.4543,0.0,0.2151,-0.0,-0.1347,0.0,-0.33,-0.152,0.0582,0.2661,0.3444,0.4354,0.5727,0.512,0.468,0.4519,0.4519,0.4519,0.4519,0.4519,0.4519,0.4519,0.4519,0.4519,0.4519,0.468,0.5003,0.5487,0.5706,0.6091,0.6588,0.6588,0.6588,0.6588,0.6588,0.6258,0.576,0.576,0.5328,0.4732,0.4732,0.4625,0.4519,0.0,0.0,0.0,0.0,0.0,0.0,0.0,0.0,0.0,0.0,0.0,0.0,0.0,0.0,0.0,0.0,0.0,0.0,0.0,0.0,0.0,0.0,0.0,0.0,0.0,0.0,0.0,0.0,0.0,-0.793,0.0,0.0,0.0,0.0,0.0,0.0,0.0,0.0,0.0,0.0,-0.4067,0.0,0.0,0.0,0.0,0.0,-0.4617,-0.4801,0.0,-0.496,-0.5172,-0.54,0.0,0.0,0.0,0.0,-0.5224,-0.3932,-0.27,0.1334,0.5619,0.7638,0.7975,0.7849,0.0,0.0,0.0,0.0,0.0,0.0,0.0,0.0,0.0,0.0,0.1008,0.0,0.0,0.0,-0.554,-0.6219,-0.4108,-0.1926,0.0,0.141,0.3262,0.5132,0.4802,0.4522,0.4519,0.4519,0.4519,0.4519,0.4519,0.4519,0.4519,0.4519,0.4519,0.4519,0.4522,0.4688,0.5066,0.5018,0.5238,0.5618,0.5618,0.5614,0.5664,0.5664,0.5386,0.5058,0.5058,0.4842,0.4519,0.4519,0.4519,0.4519,0.0,0.0,0.0,0.0,0.0,0.0,0.0,0.0,0.0,0.0,0.0,0.0,0.0,0.0,0.0,0.0,0.0,0.0,0.0,0.0,0.0,0.0,0.0,0.0,0.0,0.0,0.0,0.0,0.0,0.0,0.0,0.0,-0.8572,0.0,0.0,0.0,0.0,0.0,0.0,0.0,-0.4971,0.0,0.0,0.0,0.0,0.0,0.0,0.0,0.0,-0.4586,-0.487,-0.5303,-0.5303,0.0,0.0,0.0,0.0,0.0,-0.5069,-0.1389,0.2646,0.4234,0.5485,0.6304,0.6304,0.0,0.0,0.0,0.0,0.0,0.0,-0.0554,0.0,0.0,0.0,0.0,-0.8858,-0.8686,-0.8129,-0.8049,-0.6215,0.0,-0.3384,-0.066,0.1832,0.3685,0.4252,0.4477,0.4522,0.4522,0.4522,0.4522,0.4522,0.4522,0.4522,0.4522,0.4522,0.4522,0.4477,0.4369,0.4141,0.4147,0.4203,0.4307,0.4421,0.4473,0.4519,0.4519,0.4519,0.4519,0.4519,0.4519,0.4519,0.4519,0.4519,0.4519,0.0,0.0,0.0,0.0,0.0,0.0,0.0,0.0,0.0,0.0,0.0,0.0,0.0,0.0,0.0,0.0,0.0,0.0,0.0,0.0,0.0,0.0,0.0,0.0,0.0,0.0,0.0,0.0,0.0,0.0,-1.3465,-1.1025,-0.8869,-0.702,0.0,-0.6618,-0.6534,-0.5928,-0.5655,-0.5546,-0.5382,0.0,0.0,0.0,0.0,0.0,0.0,0.0,0.0,-0.5071,-0.5216,-0.5303,-0.5303,0.0,0.0,0.0,0.0,0.0,-0.4666,-0.3656,-0.2341,-0.0575,0.0603,0.1295,0.1295,0.0,0.0,0.0,0.0,0.0,0.0,-0.3051,-0.5593,0.0,0.0,-0.8569,0.0,0.0,-1.0048,-0.9561,0.0,-0.6867,-0.5088,-0.2551,-0.0555,0.0612,0.3072,0.4494,0.449,0.449,0.449,0.449,0.449,0.449,0.449,0.448,0.4477,0.4477,0.4487,0.3808,0.2565,0.2567,0.2788,0.3287,0.4138,0.4473,0.4519,0.4519,0.4519,0.4519,0.4519,0.4519,0.4519,0.4519,0.4519,0.4519,0.0,0.0,0.0,0.0,0.0,0.0,0.0,0.0,0.0,0.0,0.0,0.0,0.0,0.0,0.0,0.0,0.0,0.0,0.0,0.0,0.0,0.0,0.0,0.0,0.0,0.0,0.0,0.0,0.0,-1.4357,-1.4179,-1.0567,-0.8031,-0.655,0.0,-0.5905,-0.5982,-0.5651,-0.5487,-0.5487,0.0,0.0,0.0,0.0,0.0,0.0,0.0,0.0,0.0,0.0,-0.4403,-0.4403,-0.4403,0.0,0.0,0.0,0.0,0.0,-0.4134,-0.3967,-0.3708,-0.2872,-0.2251,-0.1894,-0.2045,0.0,0.0,0.0,0.0,0.0,0.0,0.0,-0.6847,-0.7766,0.0,-0.9042,-0.9767,-1.0045,-0.984,0.0,0.0,-0.7489,-0.5766,-0.4114,-0.2493,-0.0944,0.05,0.1499,0.2054,0.2054,0.2054,0.2054,0.2054,0.2334,0.2899,0.3125,0.3239,0.3294,0.4098,0.4104,0.3365,0.1733,0.1172,0.1504,0.3585,0.449,0.448,0.448,0.448,0.448,0.4473,0.4525,0.4525,0.4525,0.4477,0.448,0.0,0.0,0.0,0.0,0.0,0.0,0.0,0.0,0.0,0.0,0.0,0.0,0.0,0.0,0.0,0.0,0.0,0.0,0.0,0.0,0.0,0.0,0.0,0.0,0.0,0.0,-1.2406,-1.364,-1.5232,-1.5224,-1.3648,-0.9766,-0.7335,0.0,0.0,-0.5116,-0.5273,-0.5273,-0.5273,-0.5218,0.0,0.0,0.0,0.0,0.0,0.0,0.0,0.0,0.0,0.0,0.0,0.0,0.0,0.0,0.0,-0.3622,-0.3792,-0.3972,-0.3787,-0.3797,-0.3748,-0.3498,0.0,-0.3688,-0.3921,0.0,0.0,0.0,0.0,0.0,0.0,-0.5466,0.0,-0.8317,-0.8363,-0.8555,-0.9575,-0.9702,-0.9362,-0.8336,-0.809,-0.7421,-0.5985,-0.5022,-0.3883,-0.2332,-0.2223,-0.1887,-0.1107,-0.1051,-0.1051,-0.1051,-0.1051,-0.0665,0.0111,0.1504,0.24,0.2738,0.32,0.3431,0.3375,0.1065,-0.0,0.0112,0.2465,0.3649,0.3981,0.3981,0.3981,0.3981,0.3971,0.4196,0.448,0.4082,0.3974,0.3981,0.0,0.0,0.0,0.0,0.0,0.0,0.0,0.0,0.0,0.0,0.0,0.0,0.0,0.0,0.0,0.0,0.0,0.0,0.0,0.0,0.0,0.0,0.0,0.0,0.0,-1.1603,-1.3922,-1.5866,-1.7187,-1.5952,-1.2301,-0.9621,-0.7469,-0.5804,0.0,0.0,-0.457,-0.457,-0.457,-0.4625,-0.5218,0.0,0.0,0.0,0.0,0.0,0.0,0.0,0.0,0.0,0.0,0.0,0.0,0.0,-0.4264,-0.3751,-0.4076,-0.4485,-0.3817,-0.3605,-0.3372,-0.2219,-0.2793,0.0,-0.3884,-0.4076,0.0,-0.445,0.0,0.0,0.0,-0.5069,-0.5963,-0.7038,-0.7796,-0.8324,-0.8657,0.0,-0.9369,-0.851,-0.7673,-0.6796,-0.587,-0.4998,-0.4418,-0.4307,-0.4262,-0.4265,-0.4209,-0.415,-0.415,-0.415,-0.415,-0.4157,-0.4051,0.0112,0.2916,0.4284,0.1625,0.0336,0.0336,0.0112,-0.0,-0.0,0.0223,0.1116,0.2343,0.2343,0.2343,0.2343,0.2343,0.3244,0.4324,0.2903,0.2343,0.2343,0.0,0.0,0.0,0.0,0.0,0.0,0.0,0.0,0.0,0.0,0.0,0.0,0.0,0.0,0.0,0.0,0.0,0.0,0.0,0.0,0.0,0.0,0.0,-0.8386,-1.0251,-1.1887,-1.3546,-1.5177,-1.4813,-1.3209,-1.0401,-0.793,0.0,0.0,0.0,0.0,0.0,-0.5066,-0.505,-0.4858,-0.4856,-0.4948,0.0,0.0,0.0,0.0,0.0,0.0,0.0,0.0,-0.4565,-0.4136,0.0,-0.418,-0.388,-0.3667,-0.3806,-0.3806,-0.2768,-0.1917,-0.126,-0.0797,0.0,0.0,0.0,0.0,0.0,0.0,-0.4409,0.0,0.0,0.0,-0.5916,-0.7118,-0.7812,-0.8312,-0.8574,-0.9207,-0.9317,-0.8384,-0.7994,-0.737,-0.6392,-0.5982,-0.5782,-0.5782,-0.5786,-0.5622,-0.5124,-0.5124,-0.4908,-0.4529,-0.4477,-0.448,-0.449,-0.184,0.0223,0.1679,0.056,-0.0,-0.0,-0.0,-0.0,-0.0,-0.0,0.0336,0.0838,0.0838,0.0838,0.0838,0.0837,0.2348,0.4448,0.3819,0.2464,0.0838,0.0,0.0,0.0,0.0,0.0,0.0,0.0,0.0,0.0,0.0,0.0,0.0,0.0,0.0,0.0,0.0,0.0,0.0,0.0,0.0,0.0,0.0,0.0,-0.8224,-0.9808,-1.0544,-1.208,-1.4439,-1.2736,-1.0779,-0.8627,0.0,0.0,0.0,0.0,0.0,0.0,0.0,-0.5275,-0.5076,-0.4671,-0.4893,0.0,0.0,0.0,0.0,0.0,0.0,0.0,0.0,-0.4613,-0.418,0.0,-0.41,-0.3442,-0.2672,-0.2455,-0.2279,-0.147,-0.0269,0.078,0.0,0.0,0.0,0.0,0.0,0.0,0.0,-0.4184,0.0,0.0,0.0,0.0,0.0,-0.7531,-0.8102,-0.8279,-0.894,-0.9078,-0.8229,-0.809,-0.7671,-0.6809,-0.6628,-0.6588,-0.6588,-0.6588,-0.6258,-0.5542,-0.5487,-0.5218,-0.4515,-0.4519,-0.4522,-0.448,-0.3466,-0.1953,-0.0,-0.0,-0.0,-0.0,-0.0,-0.0,-0.0,-0.0,-0.0,-0.0,-0.0,-0.0,-0.0,-0.0,0.1287,0.3091,0.3091,0.1794,-0.0,0.0,0.0,0.0,0.0,0.0,0.0,0.0,0.0,0.0,0.0,0.0,0.0,0.0,0.0,0.0,0.0,0.0,0.0,0.0,0.0,0.0,0.0,0.0,-0.7238,-0.7321,-0.7458,-0.9672,-1.4036,-1.1504,-0.9174,-0.7064,-0.5776,0.0,0.0,0.0,0.0,0.0,0.0,-0.5108,-0.5072,-0.4667,-0.4893,-0.5571,0.0,0.0,0.0,0.0,0.0,0.0,0.0,-0.4049,-0.3755,0.0,0.0,0.0,-0.0709,-0.0,0.0044,0.0044,0.11,0.2496,0.0,0.0,0.0,0.0,0.0,0.0,-0.2615,0.0,-0.4519,-0.4519,-0.5058,0.0,-0.5487,-0.674,-0.7723,-0.7723,-0.8321,-0.8577,-0.7996,-0.7761,-0.7492,-0.6997,-0.6709,-0.6588,-0.6642,-0.6642,-0.6312,-0.5542,-0.5487,-0.5218,-0.4515,-0.4519,-0.4522,-0.448,-0.449,-0.2965,-0.0,-0.0,-0.0,-0.0,-0.0,-0.0,-0.0,-0.0,-0.0,-0.0,-0.0,-0.0,-0.0,-0.0,-0.0,-0.0,-0.0,-0.0,-0.0,0.0,0.0,0.0,0.0,0.0,0.0,0.0,0.0,0.0,0.0,0.0,0.0,0.0,0.0,0.0,0.0,0.0,0.0,0.0,0.0,0.0,0.0,0.0,0.0,0.0,0.0,-0.9124,-0.9803,-0.8807,-0.7599,0.0,0.0,0.0,-0.537,0.0,0.0,0.0,0.0,-0.5829,-0.5939,-0.5136,-0.5602,-0.6764,0.0,0.0,0.0,0.0,0.0,0.0,0.0,0.0,0.0,0.0,0.0,-0.0934,-0.0222,0.1202,0.2729,0.3527,0.4044,0.0,0.0,0.0,0.0,0.0,0.0,0.0,0.0,-0.5117,-0.5382,-0.5878,-0.615,0.0,-0.6258,-0.7074,-0.7723,-0.7723,-0.8321,-0.8732,-0.8536,-0.8039,-0.786,-0.8213,-0.7711,-0.7616,-0.8103,-0.8156,-0.761,-0.6367,-0.6258,-0.5714,-0.4519,-0.4519,-0.4519,-0.4522,-0.4487,-0.3527,-0.1561,-0.0504,-0.0,-0.0,-0.0,-0.0,-0.0,-0.0,-0.0,-0.0,-0.0,-0.0,-0.0,-0.0,-0.0,-0.0,-0.0,-0.0,-0.0,0.0,0.0,0.0,0.0,0.0,0.0,0.0,0.0,0.0,0.0,0.0,0.0,0.0,0.0,0.0,0.0,0.0,0.0,0.0,0.0,0.0,0.0,0.0,0.0,0.0,-0.7544,-0.7489,0.0,0.0,0.0,0.0,0.0,0.0,-0.5045,0.0,-0.5831,0.0,0.0,0.0,-0.556,-0.5047,-0.559,-0.6784,0.0,0.0,0.0,0.0,0.0,0.0,0.0,0.0,0.0,0.0,0.0,0.0,0.169,0.3034,0.4228,0.5197,0.5508,0.0,0.0,0.0,0.4896,0.2404,0.0,0.0,0.0,0.0,-0.6445,-0.694,-0.7213,0.0,-0.7074,-0.767,-0.8156,-0.8156,-0.8533,-0.8804,-0.8804,-0.8427,-0.8315,-0.8752,-0.8374,-0.8321,-0.8752,-0.8804,-0.8262,-0.7074,-0.675,-0.6095,-0.4948,-0.4625,-0.4519,-0.4525,-0.4487,-0.4039,-0.3079,-0.1008,-0.0,-0.0,-0.0,-0.0,-0.0,-0.0,-0.0,-0.0,-0.0,-0.0,-0.0,-0.0,-0.0,-0.0,-0.0,-0.0,-0.0,0.0,0.0,0.0,0.0,0.0,0.0,0.0,0.0,0.0,0.0,0.0,0.0,0.0,0.0,0.0,0.0,0.0,0.0,0.0,0.0,0.0,0.0,0.0,0.0,0.0,0.0,0.0,0.0,0.0,0.0,0.0,0.0,-0.3842,-0.4673,0.0,-0.4995,0.0,0.0,0.0,-0.444,-0.4574,-0.5185,-0.6011,-0.6574,0.0,0.0,0.0,0.0,0.0,0.0,0.0,0.0,0.0,-0.0971,0.0804,0.4172,0.4944,0.4874,0.5581,0.0,0.0,0.0,0.0,0.0,-0.0764,-0.4474,-0.7274,-0.8432,0.0,-0.7811,-0.7817,-0.8357,-0.8587,-0.7931,-0.8374,-0.8804,-0.8804,-0.8804,-0.8804,-0.8804,-0.8804,-0.8804,-0.8804,-0.8804,-0.8804,-0.8804,-0.8804,-0.848,-0.7723,-0.702,-0.6258,-0.5542,-0.4842,-0.4522,-0.4477,-0.4376,-0.4271,-0.4281,-0.1401,-0.0,-0.0,-0.0,-0.0,-0.0,-0.0,-0.0,-0.0,-0.0,-0.0,-0.0,-0.0,-0.0,-0.0,-0.0,-0.0,-0.0,0.0,0.0,0.0,0.0,0.0,0.0,0.0,0.0,0.0,0.0,0.0,0.0,0.0,0.0,0.0,0.0,0.0,0.0,0.0,0.0,0.0,0.0,0.0,0.0,0.0,0.0,0.0,0.0,0.0,0.0,0.0,0.0,0.0,-0.5311,0.0,-0.5461,0.0,0.0,-0.4703,-0.4758,-0.4328,-0.4721,-0.566,-0.6238,-0.6573,0.0,0.0,0.0,0.0,0.0,0.0,0.0,-0.3381,-0.1085,0.1768,0.3443,0.4386,0.5116,0.0,0.6866,0.0,0.0,0.0,-0.118,-0.4612,-0.7482,-0.9263,-0.8784,-0.8985,-0.9275,-0.9318,-0.9436,-0.934,-0.8692,-0.8699,-0.8804,-0.8804,-0.8804,-0.8804,-0.8804,-0.8804,-0.8804,-0.8804,-0.8804,-0.8804,-0.8804,-0.8804,-0.848,-0.7723,-0.702,-0.6258,-0.5542,-0.4842,-0.4519,-0.4522,-0.3292,-0.2681,-0.2683,-0.084,-0.0,-0.0,-0.0,-0.0,-0.0,-0.0,-0.0,-0.0,-0.0,-0.0,-0.0,-0.0,-0.0,-0.0,-0.0,-0.0,-0.0,0.0,0.0,0.0,0.0,0.0,0.0,0.0,0.0,0.0,0.0,0.0,0.0,0.0,0.0,0.0,0.0,0.0,0.0,0.0,0.0,0.0,0.0,0.0,0.0,0.0,0.0,0.0,0.0,0.0,0.0,0.0,0.0,0.0,-0.5962,0.0,-0.533,0.0,0.0,-0.4178,-0.3943,-0.3901,-0.4265,-0.4862,-0.5435,-0.5708,-0.5763,-0.5613,0.0,0.0,0.0,0.0,0.0,0.0,0.0,0.1285,0.306,0.4159,0.5105,0.0,0.0,0.0,0.0,0.0,0.0,-0.8803,-1.0202,-1.0683,-0.9887,-0.9717,-0.9784,-0.9806,-0.9488,-0.9072,-0.8368,-0.799,-0.7723,-0.7723,-0.7723,-0.7883,-0.8215,-0.8262,-0.8262,-0.8262,-0.8262,-0.8262,-0.8262,-0.8262,-0.8262,-0.8209,-0.7509,-0.6799,-0.6036,-0.5328,-0.4846,-0.4525,-0.3685,-0.2959,-0.2174,-0.0726,-0.0,-0.0,-0.0,-0.0,-0.0,-0.0,-0.0,-0.0,-0.0,-0.0,-0.0,-0.0,-0.0,-0.0,-0.0,-0.0,-0.0,0.0,0.0,0.0,0.0,0.0,0.0,0.0,0.0,0.0,0.0,0.0,0.0,0.0,0.0,0.0,0.0,0.0,0.0,0.0,0.0,0.0,0.0,0.0,0.0,0.0,0.0,0.0,0.0,0.0,0.0,0.0,0.0,0.0,-0.6641,0.0,0.0,0.0,0.0,0.0,-0.3011,-0.3456,-0.3699,-0.3876,-0.4483,-0.4809,-0.4914,-0.4537,-0.4657,-0.4921,-0.4297,0.0,0.0,0.0,0.0,0.0496,0.2904,0.402,0.4852,0.0,0.0,0.0,0.0,0.0,0.0,-1.2258,-1.2302,-1.172,-1.1107,-1.0415,-0.9909,-0.9814,-0.9214,-0.8482,-0.7824,-0.7074,-0.6588,-0.6588,-0.6696,-0.6966,-0.7456,-0.7616,-0.767,-0.7509,-0.7503,-0.7563,-0.767,-0.7723,-0.8049,-0.8752,-0.8103,-0.7343,-0.6642,-0.5869,-0.5167,-0.4532,-0.456,-0.389,-0.2645,-0.0844,-0.0,-0.0,-0.0,0.028,0.0784,0.0784,0.0616,0.0392,0.0392,0.0392,0.0392,0.0392,0.0392,0.0392,0.0392,0.0392,0.0336,0.0,0.0,0.0,0.0,0.0,0.0,0.0,0.0,0.0,0.0,0.0,0.0,0.0,0.0,0.0,0.0,0.0,0.0,-0.8643,0.0,0.0,-0.8929,-0.8937,-0.8818,0.0,0.0,0.0,0.0,0.0,0.0,0.0,0.0,0.0,-0.7416,0.0,0.0,0.0,0.0,0.0,-0.3245,-0.3095,-0.3025,-0.3115,-0.3716,-0.3804,-0.366,-0.4188,-0.417,-0.383,-0.3714,-0.4045,0.0,0.0,0.0,0.0469,0.2908,0.367,0.4022,0.0,0.0,0.0,0.0,0.0,-1.4121,0.0,0.0,-1.2473,0.0,-1.1116,-1.0466,-0.9917,-0.9214,-0.8482,-0.7824,-0.7074,-0.6588,-0.6588,-0.7128,-0.7343,-0.6804,-0.7289,-0.7456,-0.6804,-0.675,-0.702,-0.767,-0.7723,-0.8049,-0.8752,-0.8103,-0.7343,-0.6642,-0.5869,-0.5164,-0.4519,-0.4666,-0.4677,-0.4442,-0.1455,-0.0,-0.0,-0.0,0.1401,0.3884,0.3884,0.3142,0.1898,0.1898,0.1898,0.1898,0.1898,0.1898,0.1898,0.1898,0.1898,0.173,0.0,0.0,0.0,0.0,0.0,0.0,0.0,0.0,0.0,0.0,0.0,0.0,0.0,0.0,0.0,-0.9942,-1.0138,-1.005,-0.9524,-0.9776,-0.9791,-0.9512,-0.947,-0.9325,-0.8939,0.0,0.0,0.0,0.0,0.0,0.0,-0.986,-0.9137,0.0,0.0,0.0,0.0,0.0,0.0,0.0,-0.2921,-0.2784,-0.2833,-0.3082,-0.3093,-0.2933,-0.2734,-0.2845,-0.3147,-0.3475,-0.2859,-0.1751,-0.0418,0.0,0.0,0.0,0.0584,0.0682,0.1118,0.0,0.0,0.0,-1.3433,-1.5188,-1.4107,0.0,-1.3533,-1.257,-1.1787,-1.099,-0.9961,-0.8862,-0.7919,-0.7182,-0.6475,-0.5873,-0.5496,-0.6036,-0.6357,-0.6036,-0.6637,-0.6799,-0.6036,-0.5982,-0.6145,-0.6465,-0.6465,-0.6794,-0.7503,-0.7235,-0.6745,-0.5982,-0.5651,-0.5211,-0.4646,-0.4635,-0.4688,-0.4755,-0.3258,-0.1642,-0.0,-0.0,0.1625,0.4514,0.4514,0.4107,0.3471,0.3471,0.3471,0.3471,0.3471,0.3471,0.3471,0.3471,0.3474,0.3421,0.0,0.0,0.0,0.0,0.0,0.0,0.0,0.0,0.0,0.0,0.0,0.0,0.0,0.0,0.0,0.0,-1.0929,-1.0945,-1.0548,-1.0627,-1.0533,-1.0136,-0.9981,-0.976,-0.941,0.0,0.0,0.0,0.0,0.0,-1.1361,-1.0564,-0.9907,0.0,-0.7444,0.0,0.0,0.0,0.0,0.0,-0.2984,-0.2781,0.0,0.0,-0.2477,-0.2594,-0.1911,-0.1808,-0.2078,-0.2529,-0.1482,-0.009,-0.0719,-0.153,0.0,0.0,0.0,-0.3077,0.0,0.0,0.0,0.0,-1.4949,-1.5213,0.0,0.0,-1.415,0.0,-1.2464,-1.176,-1.0939,-0.9356,-0.796,-0.7272,-0.6509,-0.5751,-0.4897,-0.5492,-0.5869,-0.5328,-0.6036,-0.6258,-0.5328,-0.5273,-0.5328,-0.5483,-0.5487,-0.5814,-0.6588,-0.6588,-0.6258,-0.5542,-0.5487,-0.5227,-0.4629,-0.4558,-0.464,-0.4766,-0.4661,-0.3159,-0.0558,-0.0168,0.1456,0.394,0.4337,0.4501,0.4487,0.4487,0.4487,0.4487,0.4487,0.4487,0.4487,0.4487,0.4494,0.4448,0.0,0.0,0.0,0.0,0.0,0.0,0.0,0.0,0.0,0.0,0.0,0.0,-1.0829,-1.1002,-1.1228,-1.1664,-1.1737,-1.1737,-1.1726,-1.1255,-1.0975,-1.0926,-1.0487,0.0,-1.0234,0.0,0.0,0.0,0.0,0.0,-1.2413,-1.0699,-0.9441,-0.8507,-0.7461,-0.6309,-0.5207,0.0,0.0,0.0,0.0,0.0,0.0,0.0,-0.1933,0.0,-0.2656,-0.1556,-0.0127,-0.0177,-0.009,-0.0405,-0.2712,-0.344,-0.3935,0.0,0.0,0.0,0.0,0.0,0.0,0.0,0.0,0.0,0.0,0.0,-1.3815,-1.3768,-1.3215,-1.2908,-1.3412,-1.137,-0.9379,-0.8678,-0.7982,-0.7026,-0.5647,-0.6686,-0.6853,-0.4787,-0.5773,-0.6046,-0.468,-0.457,-0.4842,-0.5433,-0.5487,-0.5814,-0.6588,-0.6588,-0.6258,-0.5542,-0.5487,-0.5167,-0.4529,-0.4609,-0.4677,-0.468,-0.4752,-0.3863,-0.2063,-0.0614,0.0838,0.2408,0.3872,0.4484,0.4519,0.4519,0.4519,0.4519,0.4519,0.4519,0.4519,0.4519,0.4525,0.4311,0.0,0.0,0.0,0.0,0.0,0.0,0.0,0.0,0.0,0.0,0.0,0.0,0.0,-1.155,-1.1986,-1.2245,-1.2246,-1.2102,-1.1811,-1.1627,-1.1356,-1.1019,-1.0829,-1.0457,-0.9804,0.0,0.0,0.0,0.0,-1.1196,-1.0993,-0.9895,-0.8549,-0.7048,-0.6218,-0.5612,-0.5132,-0.4199,0.0,0.0,0.0,0.0,0.0,0.0,0.0,0.0,0.0,0.0,-0.022,-0.1792,-0.2299,-0.2702,-0.5044,-0.5233,-0.498,-0.7098,-0.765,-0.7928,0.0,0.0,0.0,-1.3088,-1.3669,-1.4033,-1.382,-1.4054,-1.431,-1.4365,-1.4481,-1.4642,-1.488,-1.2781,-1.063,-0.9482,-0.8743,-0.7664,-0.5756,-0.6362,-0.6367,-0.468,-0.5332,-0.5546,-0.4574,-0.4519,-0.4625,-0.4842,-0.4838,-0.4952,-0.5226,-0.5226,-0.5117,-0.4842,-0.4838,-0.4732,-0.4519,-0.4613,-0.4643,-0.4545,-0.4611,-0.43,-0.3574,-0.1115,0.0279,0.0948,0.3421,0.4494,0.4473,0.4473,0.4525,0.4519,0.4519,0.4519,0.4519,0.4519,0.4473,0.4262,0.0,0.0,0.0,0.0,0.0,0.0,0.0,0.0,0.0,0.0,0.0,0.0,0.0,0.0,-1.2008,-1.2245,-1.2258,-1.2138,-1.1811,-1.1627,-1.1356,-1.1019,-1.0667,-1.0254,-0.9765,0.0,0.0,0.0,0.0,0.0,0.0,-0.8988,-0.7582,-0.6042,-0.5073,-0.4628,0.0,0.0,0.0,-0.3673,0.0,0.0,-0.0621,0.0,0.0,0.0,0.0,0.0,0.0,-0.3075,-0.4126,-0.499,-0.651,-0.7054,-0.7475,-0.8888,-0.9486,0.0,-1.0841,0.0,0.0,0.0,0.0,-1.3434,-1.3511,-1.3773,-1.415,-1.4595,-1.5017,-1.5365,-1.5543,-1.3674,-1.1684,-1.0489,-0.9614,-0.8292,-0.619,-0.6431,-0.6273,-0.4688,-0.5297,-0.5517,-0.4581,-0.4522,-0.4522,-0.4519,-0.4519,-0.4519,-0.4519,-0.4519,-0.4519,-0.4519,-0.4519,-0.4519,-0.4519,-0.4562,-0.4562,-0.4519,-0.4525,-0.4477,-0.4421,-0.2399,-0.0947,0.0111,0.2125,0.3249,0.3744,0.4307,0.4473,0.4522,0.4519,0.4519,0.4519,0.4519,0.4477,0.4268,0.0,0.0,0.0,0.0,0.0,0.0,0.0,0.0,0.0,-0.8725,0.0,0.0,0.0,0.0,0.0,-1.1774,-1.1774,-1.1774,-1.1774,-1.1282,-1.0981,-1.0981,-1.006,-0.9765,-1.0283,0.0,0.0,0.0,0.0,0.0,0.0,0.0,-0.6579,0.0,-0.4127,-0.3493,-0.3411,0.0,-0.2609,-0.2682,0.0,-0.0669,0.3249,0.0,0.0,0.0,0.0044,-0.1575,0.0,-0.3712,0.0,0.0,0.0,-0.8968,-1.1358,-1.1639,-1.2001,0.0,0.0,0.0,0.0,0.0,0.0,0.0,-1.2908,0.0,-1.311,-1.4411,-1.4652,-1.4835,-1.5398,-1.3986,-1.2512,-1.176,-1.0545,-0.8964,-0.6848,-0.7052,-0.6628,-0.4643,-0.5665,-0.5949,-0.4591,-0.448,-0.4473,-0.4519,-0.4519,-0.4519,-0.4519,-0.4519,-0.4519,-0.4519,-0.4519,-0.4519,-0.4519,-0.4519,-0.4519,-0.4519,-0.4519,-0.4522,-0.448,-0.448,-0.2903,-0.0112,-0.0056,0.0837,0.2232,0.3744,0.4421,0.4477,0.4522,0.4519,0.4519,0.4519,0.4477,0.4268,0.0,0.0,0.0,0.0,0.0,0.0,-0.871,-0.8751,-0.8791,0.0,0.0,0.0,-1.0833,-1.1619,-1.2029,-1.1811,-1.1431,-1.1094,-1.0736,-1.0582,-1.0505,-1.0505,-1.0235,-0.9961,-0.9725,0.0,0.0,0.0,0.0,0.0,0.0,0.0,0.0,0.0,-0.3792,-0.306,-0.2284,-0.2574,0.0,0.0,-0.0944,-0.0194,0.0,0.0,0.0,0.0,0.0,-0.2592,-0.6074,0.0,-0.6937,-0.8135,0.0,0.0,0.0,0.0,0.0,0.0,-1.3856,0.0,0.0,0.0,0.0,0.0,0.0,0.0,-1.2406,-1.3758,-1.4029,-1.3871,-1.3497,-1.2243,-1.1081,-1.0501,-1.0185,-0.9109,-0.6445,-0.6539,-0.5813,-0.3181,-0.3181,-0.3403,-0.34,-0.4079,-0.4473,-0.4519,-0.4519,-0.4519,-0.4519,-0.4519,-0.4519,-0.4519,-0.4519,-0.4519,-0.4519,-0.4519,-0.4519,-0.4519,-0.4519,-0.4519,-0.4522,-0.4477,-0.4027,-0.3125,-0.0949,0.0223,0.067,0.1059,0.2512,0.448,0.4477,0.4525,0.4519,0.4519,0.4525,0.4314,0.0,0.0,0.0,0.0,0.0,0.0,-0.845,-0.8603,-0.876,0.0,0.0,0.0,-1.2155,-1.2341,-1.2294,-1.1847,-1.1132,-1.0687,-1.0611,-1.039,-1.0283,-1.0283,-0.9883,-0.9597,-0.9518,0.0,0.0,0.0,0.0,0.0,0.0,0.0,0.0,0.0,0.0,0.0,0.0,0.0,0.0,0.0,-0.0686,0.0,0.0,0.1071,0.2111,0.0,0.0,0.0,-0.752,-0.7555,-0.8407,0.0,0.0,0.0,0.0,0.0,0.0,0.0,0.0,0.0,0.0,0.0,0.0,0.0,-1.2861,-1.2521,-1.2406,0.0,-1.3117,-1.2811,-1.2657,-1.114,-0.974,-0.9432,-0.7978,-0.6211,-0.4303,-0.5022,-0.4823,-0.2454,-0.1675,-0.1675,-0.2563,-0.3802,-0.448,-0.4519,-0.4519,-0.4519,-0.4519,-0.4519,-0.4519,-0.4519,-0.4519,-0.4519,-0.4519,-0.4519,-0.4519,-0.4519,-0.4519,-0.4519,-0.4519,-0.4525,-0.4473,-0.4421,-0.2623,-0.1172,-0.0,-0.0,0.1059,0.2734,0.403,0.4484,0.4477,0.4525,0.4477,0.4428,0.0,0.0,0.0,-0.9263,-0.9228,-0.913,-0.8241,-0.855,-0.8855,0.0,-1.1232,-1.3267,-1.3954,-1.3111,-1.2295,-1.1847,-1.0916,-1.0534,-1.0905,-1.0534,-1.0283,-1.0196,-0.9279,-0.8999,-0.9399,-0.8439,0.0,0.0,0.0,0.0,0.0,0.0,0.0,0.0,0.0,0.0,0.0,0.0,0.0,-0.1906,-0.2209,-0.1953,0.0,0.0,0.0312,0.1515,0.275,-0.1349,-0.752,-0.8415,-0.9807,0.0,0.0,0.0,0.0,0.0,-1.6629,0.0,0.0,0.0,0.0,0.0,-1.4204,0.0,-1.29,-1.2667,-1.257,0.0,-1.192,-1.1563,-1.2141,-1.0135,-0.8344,-0.825,-0.4992,-0.2151,-0.1374,-0.2558,-0.314,-0.2065,-0.0783,-0.0671,-0.2289,-0.3699,-0.449,-0.4522,-0.4522,-0.4519,-0.4519,-0.4519,-0.4519,-0.4519,-0.4519,-0.4519,-0.4519,-0.4519,-0.4519,-0.4519,-0.4519,-0.4519,-0.4519,-0.4519,-0.4522,-0.4477,-0.448,-0.2959,-0.0447,-0.0112,-0.0,0.0279,0.2977,0.412,0.4235,0.4225,0.435,0.4482,0.0,0.0,-1.0712,-0.9762,-0.9606,-0.9592,-0.939,-0.9,-0.8857,-0.9195,-1.1127,-1.2931,0.0,-1.3504,-1.2671,-1.1884,-1.1207,-1.0753,-1.0467,-1.0351,-1.0127,-0.9677,-0.9439,-0.9199,-0.8878,-0.8242,-0.7953,-0.8077,0.0,0.0,0.0,0.0,0.0,0.0,0.0,0.0,0.0,0.0,0.0,-0.5504,-0.5557,0.0,-0.4319,-0.3282,-0.2325,-0.1323,0.0178,-0.0312,-0.2612,-0.9206,-1.2073,-1.3201,0.0,0.0,0.0,-1.7038,0.0,0.0,0.0,0.0,0.0,0.0,-1.4204,0.0,-1.2258,-1.1566,-1.1208,0.0,-1.0156,-0.9311,-0.9477,-0.7812,-0.6192,-0.5452,-0.4608,-0.3188,-0.061,0.1447,0.1953,-0.0167,-0.0168,-0.1062,-0.3766,-0.4337,-0.4504,-0.449,-0.448,-0.4473,-0.4519,-0.4519,-0.4519,-0.4519,-0.4519,-0.4519,-0.4519,-0.4519,-0.4519,-0.4519,-0.4519,-0.4519,-0.4519,-0.4519,-0.4519,-0.4522,-0.4477,-0.4138,-0.3408,-0.1004,-0.0,0.0056,0.0633,0.1626,0.2673,0.2671,0.3433,0.4521,0.0,0.0,-1.1065,-1.0415,-1.0416,-1.0363,-0.9765,-0.9944,-1.0132,0.0,0.0,0.0,0.0,0.0,-1.2948,-1.2532,-1.1568,-1.0961,-1.0854,-1.0366,-0.9708,-0.8898,-0.8881,-0.8683,-0.8277,-0.8021,-0.8036,-0.8316,0.0,0.0,0.0,0.0,0.0,0.0,0.0,0.0,0.0,0.0,-0.7059,-0.7411,-0.6825,0.0,-0.5893,-0.5072,-0.4019,-0.2846,-0.2083,-0.3403,-0.6215,-1.0692,-1.2992,0.0,-1.6291,-1.6862,-1.6913,0.0,-1.791,-1.7987,0.0,0.0,0.0,-1.505,-1.4215,0.0,0.0,-1.1566,-1.1116,-1.0415,-0.9467,-0.8423,-0.7498,-0.5742,-0.4216,-0.3471,-0.2742,-0.173,-0.0223,0.2571,0.3934,0.2404,0.0894,-0.0614,-0.2127,-0.2916,-0.3365,-0.3357,-0.4092,-0.4487,-0.448,-0.4473,-0.4525,-0.4525,-0.4522,-0.4519,-0.4519,-0.4519,-0.4519,-0.4519,-0.4519,-0.4519,-0.4519,-0.4519,-0.4519,-0.4519,-0.4525,-0.4473,-0.4366,-0.2845,-0.1915,-0.143,-0.2007,-0.0876,0.1078,0.1119,0.1614,0.2383,-1.0965,0.0,0.0,-1.1065,-1.1331,-1.1278,-1.0363,-1.096,-1.1511,0.0,0.0,0.0,0.0,0.0,0.0,0.0,-1.1909,-1.1236,-1.1457,-1.0488,-0.9436,-0.8456,-0.8458,-0.827,-0.7818,-0.8047,-0.839,-0.8829,0.0,0.0,0.0,0.0,0.0,0.0,0.0,0.0,0.0,0.0,0.0,-0.8693,0.0,-0.7114,-0.6898,-0.6435,-0.5305,-0.3938,-0.3757,-0.6799,-1.1068,-1.185,-1.3445,-1.5358,-1.7176,-1.7374,0.0,0.0,0.0,0.0,0.0,0.0,0.0,-1.5005,-1.4133,-1.3273,0.0,0.0,0.0,-0.9865,-0.902,-0.8106,-0.673,-0.4845,0.0,-0.2726,0.0,0.0,0.0,0.2291,0.0,0.4442,0.235,0.0615,0.0056,-0.1063,-0.1789,-0.1785,-0.2907,-0.3755,-0.4039,-0.403,-0.4196,-0.4484,-0.4473,-0.4525,-0.4525,-0.4525,-0.4525,-0.4525,-0.4525,-0.4522,-0.4522,-0.4522,-0.4519,-0.4519,-0.4519,-0.4522,-0.4477,-0.4477,-0.3937,-0.3224,-0.4279,-0.3143,-0.0805,-0.0241,-0.0,0.0185,-1.1566,-1.1765,0.0,0.0,-1.1981,-1.2136,-1.1999,-1.189,0.0,0.0,0.0,0.0,0.0,0.0,0.0,0.0,0.0,-1.1713,-1.168,-1.0548,-0.9674,-0.9195,-0.9074,-0.8664,-0.7912,-0.8763,-0.9266,-0.9306,-0.9731,0.0,0.0,0.0,0.0,0.0,-1.0257,0.0,0.0,0.0,-0.9674,0.0,-0.9419,-0.8638,0.0,-0.7636,-0.6606,-0.5158,-0.4252,-0.6706,-1.0471,0.0,-1.3825,-1.659,0.0,-1.9367,-1.9337,-1.9485,0.0,0.0,0.0,0.0,-1.6722,-1.5084,-1.3784,-1.258,-1.1208,0.0,-0.9814,-0.9061,0.0,-0.7955,-0.841,0.0,0.0,-0.4385,-0.411,-0.3051,-0.0389,0.1056,0.2508,0.4281,0.4169,0.2919,0.028,-0.0168,-0.0224,-0.0223,-0.0391,-0.106,-0.2399,-0.2454,-0.3074,-0.4438,-0.4494,-0.4494,-0.4494,-0.4494,-0.4494,-0.4494,-0.4494,-0.4487,-0.4477,-0.4477,-0.4473,-0.4519,-0.4519,-0.4519,-0.4522,-0.4477,-0.4512,-0.4604,-0.5115,-0.4768,-0.3668,-0.0959,-0.0,-0.0,-1.1765,-1.1814,0.0,0.0,-1.2539,-1.2594,-1.2349,-1.2518,0.0,0.0,0.0,0.0,0.0,0.0,0.0,0.0,0.0,-1.2157,0.0,0.0,-0.9591,-0.9414,-0.9314,-0.9109,-0.8704,-0.9726,-1.0426,-1.0785,-1.1244,0.0,0.0,0.0,0.0,0.0,-1.138,0.0,-1.0899,0.0,-1.0117,0.0,0.0,0.0,0.0,-0.768,-0.6531,-0.5101,-0.4291,-0.5524,-0.7953,0.0,-1.3383,0.0,0.0,0.0,0.0,-1.874,0.0,0.0,0.0,-1.6824,-1.6074,-1.4097,-1.3125,-1.2213,-1.0616,-1.0012,-0.9614,-0.8956,0.0,0.0,0.0,0.0,0.0,0.0,-0.4769,-0.4051,-0.279,0.0,0.2565,0.4274,0.3984,0.3019,0.1453,0.0503,-0.0,-0.0,-0.0,-0.028,-0.0895,-0.0949,-0.1228,-0.1843,-0.2738,-0.3188,-0.3188,-0.3188,-0.3188,-0.3188,-0.3188,-0.3186,-0.3183,-0.4089,-0.4484,-0.4473,-0.4473,-0.4525,-0.4519,-0.4473,-0.4628,-0.4604,-0.2734,-0.327,-0.4803,-0.3234,-0.1501,-0.0,-1.208,0.0,0.0,0.0,-1.2918,-1.2888,-1.2765,-1.3435,0.0,0.0,0.0,0.0,-1.5731,-1.5548,0.0,0.0,-1.2962,-1.2256,0.0,0.0,-0.9752,-0.9689,-0.9827,-0.979,-0.9512,-1.0833,-1.1747,-1.2163,-1.284,-1.3349,0.0,0.0,0.0,0.0,0.0,-1.1476,-1.0894,0.0,-1.0381,-1.0264,-0.9754,-0.9056,-0.8216,-0.7186,-0.6065,-0.4886,-0.4317,-0.4985,-0.6744,-1.0489,-1.2818,-1.4639,-1.7326,-1.7716,-1.7159,0.0,0.0,0.0,-1.5868,-1.538,-1.4686,-1.2948,-1.2131,-1.1429,-1.0125,-0.9666,-0.9361,-0.891,-0.8804,0.0,0.0,0.0,-0.7289,-0.6032,0.0,-0.4783,-0.4546,-0.1336,0.184,0.4216,0.3863,0.3239,0.285,0.1842,0.0893,0.0056,-0.0,-0.0,-0.0,-0.0,-0.0,-0.0,-0.1061,-0.1619,-0.1619,-0.1619,-0.1619,-0.1619,-0.1619,-0.1619,-0.1618,-0.274,-0.3469,-0.3913,-0.4314,-0.448,-0.4473,-0.448,-0.4088,-0.3251,-0.0603,-0.0747,-0.2424,-0.2526,-0.1446,-0.0,-1.2871,-1.2871,0.0,0.0,0.0,0.0,-1.3866,0.0,0.0,0.0,0.0,0.0,0.0,0.0,0.0,0.0,0.0,-1.1773,-1.1701,0.0,-1.0401,-1.011,-1.0777,-1.0822,-1.0074,-1.2069,-1.3156,-1.3156,-1.4295,0.0,0.0,0.0,0.0,0.0,0.0,-1.1428,-1.0981,-1.0905,-1.0654,-1.0273,-0.9865,-0.8732,-0.7221,0.0,-0.5478,-0.4853,-0.4559,0.0,-0.7902,-1.0473,-1.2363,-1.393,-1.5709,-1.5879,-1.5243,-1.4549,-1.4372,-1.4306,-1.3718,-1.3113,-1.2464,-1.1871,-1.0797,-0.988,-0.9814,-0.9309,-0.8804,-0.8804,-0.8804,-0.8804,-0.8752,-0.8156,-0.7456,-0.6696,-0.6168,0.0,0.0,-0.3074,-0.0446,0.3996,0.4448,0.4438,0.4438,0.4383,0.3135,0.0223,-0.0,-0.0,-0.0,-0.0,-0.0,-0.0,-0.0056,-0.0056,-0.0056,-0.0056,-0.0056,-0.0056,-0.0056,-0.0056,-0.0056,-0.0112,-0.0949,-0.2343,-0.3866,-0.4497,-0.4494,-0.4497,-0.2794,-0.0112,0.0239,0.2337,0.4869,0.3085,0.1447,-0.0,0.0,0.0,0.0,0.0,0.0,0.0,0.0,-1.5689,0.0,0.0,-1.7688,0.0,0.0,-1.6441,-1.5316,0.0,0.0,-1.2112,-1.1722,-1.0989,0.0,-1.1455,-1.1535,-1.1572,-1.1474,-1.2902,-1.3723,-1.382,-1.4554,0.0,0.0,0.0,0.0,0.0,0.0,-1.2052,0.0,0.0,0.0,0.0,0.0,-0.8692,-0.7144,0.0,-0.6273,-0.5575,-0.5828,-0.6593,-0.7818,-1.029,-0.9954,-0.8952,-1.103,-1.0423,-0.8921,-0.879,-0.989,-1.0954,-1.023,-1.0431,-1.0613,-0.9895,-0.927,-0.8587,-0.7842,-0.7498,-0.7343,-0.7343,-0.7471,-0.7478,-0.7376,-0.7253,-0.6859,-0.6,-0.5896,-0.5238,0.0,0.0056,0.2406,0.291,0.3869,0.4497,0.4497,0.4504,0.4051,0.303,0.1119,-0.0,-0.0,-0.0,-0.0,-0.0,-0.0,0.0953,0.2977,0.2977,0.2465,0.1452,0.1452,0.1452,0.1449,0.1449,0.1002,0.0222,-0.0277,-0.0887,-0.1496,-0.1499,-0.0944,0.0223,0.2574,0.4189,0.5171,0.468,0.4101,0.3209,-1.3094,0.0,0.0,0.0,0.0,0.0,0.0,0.0,0.0,0.0,-1.8825,0.0,-1.8159,0.0,-1.5311,0.0,-1.2693,-1.1807,-1.144,-1.1128,0.0,-1.1982,-1.2139,-1.2205,-1.219,-1.3299,-1.3926,-1.3971,-1.4767,-1.5332,0.0,0.0,0.0,0.0,0.0,-1.233,-1.0864,-1.1291,-1.1032,0.0,0.0,-0.8786,0.0,0.0,-0.6875,-0.6081,-0.6171,-0.6598,-0.73,-0.8532,-0.7091,-0.4968,-0.6342,-0.5018,-0.3013,-0.3118,-0.4392,-0.57,-0.5468,-0.6373,-0.7391,-0.7204,-0.745,-0.7527,-0.6794,-0.6603,-0.6603,-0.6603,-0.6703,-0.6809,-0.6778,-0.6778,-0.658,-0.6016,-0.5627,-0.4643,0.0,0.0727,0.2749,0.2238,0.3079,0.3697,0.3697,0.319,0.291,0.2912,0.1566,0.0559,0.0056,-0.0,-0.0,-0.0,0.1027,0.2514,0.4478,0.4478,0.399,0.3019,0.3019,0.3019,0.3019,0.3019,0.2847,0.2561,0.2561,0.2223,0.1608,0.161,0.161,0.1842,0.4092,0.4977,0.5019,0.5322,0.5411,0.4898,-1.3668,0.0,0.0,0.0,-1.5386,0.0,0.0,0.0,-1.9641,0.0,-1.943,-1.935,-1.8161,-1.6127,-1.4465,-1.3447,-1.1929,-1.0958,-1.0891,-1.1332,0.0,0.0,-1.2373,-1.2608,-1.2144,-1.3175,-1.3768,-1.3768,0.0,0.0,0.0,0.0,0.0,0.0,-1.3365,0.0,-1.0642,-1.1,-1.0535,-0.95,-0.9272,-0.8996,-0.8646,-0.7937,-0.7145,-0.6349,-0.5748,-0.5982,-0.6396,-0.5628,-0.3939,-0.2164,-0.1757,0.0148,0.2246,0.2363,0.1946,0.1295,0.0522,-0.106,-0.272,-0.3691,-0.5083,-0.6235,-0.6248,-0.6248,-0.6248,-0.6248,-0.6281,-0.6439,-0.6771,-0.6616,-0.6384,-0.6381,-0.5341,-0.3943,-0.2305,-0.0898,0.0505,0.1911,0.1958,0.1895,0.1895,0.0611,-0.0222,-0.0223,0.1058,0.1338,0.0,-0.0,-0.0,-0.0,0.2949,0.45,0.45,0.4519,0.4494,0.4494,0.4494,0.4494,0.4494,0.4494,0.4494,0.4494,0.4494,0.4494,0.4494,0.4494,0.4487,0.4494,0.4707,0.4766,0.4755,0.5122,0.5321,0.4907,-1.3857,-1.5038,-1.6262,0.0,-1.7545,-1.7059,0.0,0.0,0.0,0.0,-1.8739,-1.8171,-1.6951,-1.532,-1.3876,-1.2806,-1.1624,0.0,0.0,0.0,0.0,-1.1074,-1.1442,-1.1592,-1.1434,-1.2521,-1.3072,-1.3072,0.0,0.0,-1.4926,0.0,0.0,0.0,0.0,0.0,-1.0606,-1.0805,-1.0424,-0.966,-0.9066,-0.8482,-0.7883,-0.7182,-0.6768,-0.6508,-0.6347,-0.6091,-0.5756,-0.5734,-0.3079,0.0585,0.2878,0.5101,0.7075,0.8015,0.8043,0.7554,0.6673,0.4984,0.3304,0.2475,0.0741,-0.0867,-0.131,-0.1379,-0.1379,-0.1379,-0.2128,-0.2804,-0.2724,-0.3273,-0.3615,-0.3357,-0.4008,-0.3599,-0.0953,-0.0224,0.0168,0.0505,-0.1399,-0.28,-0.28,-0.3137,-0.3363,-0.3357,-0.2968,-0.1958,-0.0112,-0.0,-0.0,-0.0,0.2949,0.4497,0.449,0.4505,0.448,0.4525,0.4525,0.4525,0.4525,0.4525,0.4525,0.4525,0.4525,0.4525,0.4525,0.4525,0.4525,0.4536,0.4694,0.4772,0.4702,0.3774,0.4238,0.4894,-1.4842,-1.639,0.0,-2.0309,0.0,0.0,-1.9512,-2.0113,0.0,-1.9091,-1.8313,0.0,-1.6157,-1.4612,-1.3336,-1.2563,-1.1529,0.0,-1.0576,0.0,0.0,-1.0885,-1.1095,-1.1087,-1.0859,-1.1549,-1.1944,-1.1944,-1.3243,0.0,-1.3878,0.0,0.0,0.0,0.0,-1.1842,-1.0196,-0.9685,-0.9065,-0.8383,-0.7953,-0.754,0.0,-0.6416,-0.6091,-0.6091,-0.5769,-0.5601,-0.5374,-0.4549,-0.1633,0.2197,0.5004,0.8931,1.2491,1.233,1.2168,1.1762,1.0663,0.904,0.7359,0.6123,0.4474,0.303,0.2669,0.2591,0.2558,0.2558,0.2001,0.1063,-0.0435,-0.116,-0.1482,-0.1296,-0.1961,-0.1964,-0.0224,-0.0,-0.0,-0.0,-0.2639,-0.4511,-0.4507,-0.4501,-0.4497,-0.449,-0.4501,-0.3444,-0.1082,-0.0354,-0.0,-0.0,0.1634,0.3188,0.4464,0.4485,0.4484,0.4477,0.4477,0.4477,0.4477,0.4477,0.4477,0.4477,0.4477,0.4477,0.4477,0.4477,0.4477,0.4487,0.4572,0.4653,0.4606,0.3797,0.3308,0.2776,-1.6473,0.0,0.0,0.0,0.0,0.0,0.0,-2.1258,0.0,-1.8852,0.0,-1.6438,-1.5285,-1.3783,-1.2736,-1.2393,-1.1437,-1.0779,-1.0697,-1.0697,-1.0601,-1.0427,-1.0628,-1.0479,-0.9955,-1.0202,-1.0402,-1.0501,-1.1773,-1.2416,-1.257,0.0,0.0,0.0,0.0,0.0,0.0,-0.819,-0.7289,-0.6588,-0.648,-0.648,-0.6367,-0.5651,-0.5378,-0.5269,-0.4736,-0.4897,-0.5101,-0.3154,-0.0487,0.2483,0.5236,1.1036,1.65,1.5119,1.4677,1.4395,1.3315,1.178,1.0146,0.8325,0.6832,0.5707,0.5575,0.5468,0.5389,0.5389,0.542,0.4439,0.1255,0.05,0.0292,0.0057,-0.0,-0.0,-0.0,-0.0,-0.017,-0.0565,-0.2711,0.0,-0.4497,-0.4484,-0.448,-0.4477,-0.449,-0.386,-0.2383,-0.0846,-0.0125,-0.032,-0.0376,0.0927,0.3648,0.384,0.3881,0.3919,0.4036,0.4095,0.4095,0.3981,0.3922,0.3922,0.3922,0.3978,0.4095,0.4095,0.415,0.4212,0.4176,0.4321,0.4503,0.4523,0.2602,-0.0,-1.8652,0.0,0.0,0.0,0.0,-1.9698,-1.9436,-1.8839,-1.7978,-1.6826,-1.5249,-1.3931,-1.3358,-1.2378,-1.1767,-1.177,-1.0922,0.0,0.0,0.0,0.0,-0.8385,-0.828,-0.7977,-0.744,-0.7802,-0.8369,-0.9044,-0.9761,-1.0475,-1.1157,0.0,0.0,0.0,0.0,0.0,-0.8037,-0.783,0.0,-0.6534,-0.5928,-0.5706,-0.5597,-0.4952,-0.468,-0.468,-0.4519,-0.457,-0.4622,-0.4233,-0.2652,-0.0163,0.3368,0.8156,1.2792,1.4676,1.5325,1.5452,1.5656,1.4049,1.2072,1.0934,0.908,0.7415,0.6676,0.5886,0.5394,0.5394,0.5384,0.5212,0.4546,0.3259,0.175,0.0234,-0.0,-0.0,-0.0,-0.0,-0.0902,-0.3406,-0.3033,-0.3111,-0.4379,-0.448,-0.4477,-0.4522,-0.4484,-0.4045,-0.2921,-0.1014,-0.068,-0.2169,-0.2211,-0.1762,-0.0734,0.0176,0.0682,0.0774,0.1609,0.2001,0.2001,0.1166,0.0777,0.0777,0.0775,0.1274,0.2001,0.2001,0.2227,0.2631,0.259,0.3397,0.4516,0.4511,0.2563,-0.0,-1.9889,0.0,0.0,0.0,0.0,0.0,0.0,-1.361,-1.2812,-1.372,-1.2818,-1.1899,-1.1282,-1.1483,-1.15,-1.1097,-1.0747,-1.0251,-0.9545,-0.8933,-0.8261,-0.7432,-0.7263,-0.6955,-0.639,-0.6793,-0.7192,-0.7635,-0.8204,-0.8711,-0.9179,-0.9908,0.0,0.0,0.0,-0.8679,0.0,0.0,-0.681,-0.6168,-0.5344,-0.4963,-0.4967,-0.4643,-0.448,-0.448,-0.448,-0.448,-0.448,-0.4473,-0.2837,-0.0331,0.1967,0.7193,1.2887,1.4809,1.588,1.6476,1.6371,1.4846,1.2929,1.142,0.9542,0.7903,0.7064,0.6141,0.5428,0.5428,0.5432,0.5391,0.5375,0.4403,0.3435,0.2903,0.1203,-0.0,-0.0,-0.1606,-0.3324,-0.481,-0.4109,-0.3854,-0.4606,-0.4577,-0.4522,-0.4519,-0.4477,-0.4061,-0.3026,-0.2701,-0.2607,-0.2706,-0.358,-0.3964,-0.3648,-0.2984,-0.2534,-0.234,-0.1826,-0.1187,-0.0444,-0.0944,-0.1557,-0.2339,-0.2336,-0.2058,-0.1506,0.0057,0.086,0.0863,-0.101,0.0842,0.4505,0.4507,0.262,-0.0,0.0,-1.9902,0.0,0.0,-1.5285,-1.1713,-1.0115,-0.8081,-0.7668,-1.027,-1.0143,-0.9731,-0.9496,-1.0404,-1.0945,-1.074,-1.0535,-1.0177,-0.9479,-0.83,-0.7349,-0.6651,-0.6493,-0.6143,-0.5585,-0.5901,-0.6161,-0.6367,-0.6881,-0.7189,-0.7405,-0.8547,0.0,0.0,0.0,0.0,0.0,-0.6912,-0.6327,-0.58,-0.4864,-0.4314,-0.4039,-0.4039,-0.4039,-0.4039,-0.4039,-0.4212,-0.4383,-0.3747,-0.1947,0.0222,0.1618,0.7246,1.3569,1.4742,1.6058,1.7037,1.6754,1.5325,1.3511,1.1784,0.9944,0.8253,0.7395,0.6362,0.547,0.537,0.5338,0.5384,0.5368,0.4958,0.483,0.5164,0.2624,0.0426,0.0062,-0.2433,-0.4566,-0.5294,-0.5065,-0.4817,-0.4721,-0.4597,-0.4519,-0.4519,-0.4473,-0.4126,-0.3355,-0.4351,-0.4371,-0.3183,-0.4589,-0.5392,-0.5357,-0.505,-0.4776,-0.4539,-0.4542,-0.3877,-0.2679,-0.2679,-0.3355,-0.4497,-0.4494,-0.4501,-0.4238,-0.122,-0.0,-0.0295,-0.3116,-0.1543,0.2475,0.3279,0.2046,-0.0,0.0,0.0,0.0,0.0,0.0,-0.861,-0.4647,-0.3809,-0.4542,-0.7033,-0.6748,-0.6977,-0.8619,-0.8599,-0.9158,-1.0995,-0.9992,-0.9271,-0.9333,-0.7898,-0.6609,-0.5518,-0.5222,-0.4804,-0.4214,-0.4337,-0.4805,-0.5597,-0.5536,-0.5914,-0.6691,-0.6848,-0.723,0.0,0.0,-0.8374,-0.767,-0.6912,-0.6327,-0.58,-0.4864,-0.3688,-0.2399,-0.2399,-0.2399,-0.2399,-0.2399,-0.3307,-0.4107,-0.1337,-0.0222,0.0499,0.3227,0.8003,1.2842,1.4023,1.5429,1.6752,1.7679,1.6298,1.441,1.3497,1.1498,0.9437,0.7968,0.6739,0.5785,0.5248,0.5264,0.5315,0.5162,0.5237,0.5172,0.4664,0.34,0.1904,0.0257,-0.0321,-0.1719,-0.4989,-0.5072,-0.4786,-0.457,-0.4532,-0.4519,-0.4519,-0.4473,-0.448,-0.4369,-0.4723,-0.4826,-0.4694,-0.5148,-0.5287,-0.5135,-0.5068,-0.4921,-0.4694,-0.4536,-0.4403,-0.4307,-0.4307,-0.4373,-0.4497,-0.4487,-0.4494,-0.4238,-0.122,-0.0,-0.0059,-0.0366,-0.2103,-0.4103,-0.0803,0.0251,-0.0,0.0,0.0,0.0,0.0,0.0,0.0,0.0,-0.1672,-0.1272,-0.4206,-0.5486,-0.6428,-0.7331,-0.8286,-0.9085,-0.9651,-0.9099,-0.8657,-0.8495,-0.7244,-0.6337,-0.5873,-0.5474,-0.5164,-0.4927,-0.522,-0.5357,-0.5271,-0.5362,-0.5367,-0.5336,-0.5764,-0.6578,-0.767,-0.7563,-0.7563,-0.7616,-0.6598,-0.6246,-0.622,-0.4997,-0.3026,-0.0895,-0.0895,-0.0895,-0.1007,-0.1903,-0.3205,-0.389,-0.0,0.195,0.3229,0.6058,0.8954,1.1752,1.4205,1.5639,1.6667,1.7382,1.6182,1.4452,1.3353,1.154,0.9707,0.8724,0.7549,0.6491,0.5778,0.5359,0.5104,0.5128,0.5111,0.5118,0.5057,0.4308,0.2885,0.0329,-0.0,-0.0513,-0.1965,-0.3211,-0.4155,-0.469,-0.4584,-0.4522,-0.448,-0.4473,-0.4507,-0.4596,-0.4813,-0.491,-0.4991,-0.5264,-0.5348,-0.5291,-0.5294,-0.469,-0.3498,-0.4297,-0.4601,-0.448,-0.4473,-0.4477,-0.4487,-0.4497,-0.4504,-0.4238,-0.122,-0.0,-0.0,-0.0,-0.0888,-0.2224,-0.2989,-0.1855,-0.0,-1.723,0.0,-1.5563,0.0,-1.0008,-0.6998,-0.5058,-0.1812,-0.0678,-0.3658,-0.5852,-0.7072,-0.6923,-0.7961,-0.8685,-0.8904,-0.8459,-0.8165,-0.807,-0.6904,-0.6184,-0.6184,-0.5864,-0.5649,-0.5649,-0.6072,-0.5977,-0.5242,-0.5425,-0.5164,-0.4519,-0.5164,-0.5946,-0.6759,-0.6206,-0.6479,-0.7259,-0.5684,-0.5863,-0.7065,-0.5246,-0.2695,-0.0,-0.0,-0.0,-0.0112,-0.1178,-0.2249,-0.2643,0.1004,0.3244,0.4934,0.7328,0.9174,1.1068,1.3947,1.5608,1.6582,1.6873,1.5847,1.4398,1.3212,1.1694,1.028,0.9261,0.8265,0.7286,0.6189,0.5638,0.5305,0.5057,0.502,0.504,0.522,0.4945,0.395,0.1633,0.0575,-0.0,-0.0,-0.1373,-0.2949,-0.4602,-0.4369,-0.419,-0.4494,-0.4477,-0.4567,-0.4623,-0.4853,-0.5013,-0.5014,-0.5274,-0.5382,-0.5389,-0.5396,-0.4517,-0.2705,-0.4069,-0.4664,-0.4484,-0.448,-0.448,-0.4435,-0.3538,-0.3203,-0.2986,-0.0872,-0.0,-0.0,-0.0,-0.064,-0.1871,-0.4435,-0.3464,-0.0773,-1.7108,-1.5947,-1.4831,-1.4602,-1.0918,-0.7775,-0.7164,-0.4649,-0.3682,-0.6062,-0.805,-0.8871,-0.7812,-0.7197,-0.7515,-0.9249,-0.8222,-0.7774,-0.8429,-0.7052,-0.6184,-0.6184,-0.6064,-0.5975,-0.5975,-0.641,-0.6253,-0.5483,-0.5487,-0.5164,-0.4519,-0.5164,-0.5181,-0.4509,-0.4442,-0.5239,-0.6426,-0.3968,-0.5179,-0.8533,-0.5656,-0.2695,-0.0,-0.0,-0.0,-0.0,-0.0,-0.0056,0.0168,0.1675,0.3244,0.4768,0.6159,0.8404,1.0882,1.2949,1.4923,1.6509,1.6446,1.5564,1.4474,1.3431,1.2488,1.1352,0.9587,0.8951,0.8127,0.6185,0.6125,0.6083,0.5067,0.5036,0.5021,0.4836,0.5133,0.5188,0.455,0.1865,-0.0,-0.0,-0.0,-0.123,-0.4228,-0.3583,-0.3405,-0.4438,-0.4477,-0.4522,-0.448,-0.4894,-0.5064,-0.4925,-0.522,-0.5379,-0.5379,-0.5399,-0.4522,-0.2705,-0.3896,-0.4499,-0.4497,-0.4507,-0.4514,-0.434,-0.1345,-0.0056,-0.0056,-0.0,-0.0,-0.0,-0.0,-0.2204,-0.5317,-0.5355,-0.4222,-0.2691,-1.6471,-1.6209,-1.5639,-1.4939,-1.2651,-1.0685,-0.9916,-0.8153,-0.7195,-0.8123,-0.8636,-0.8886,-0.8926,-0.8599,-0.861,-0.9138,-0.8649,-0.8391,-0.8641,-0.8157,-0.7889,-0.7889,-0.7865,-0.7771,-0.7589,-0.7874,-0.7616,-0.6722,-0.6401,-0.566,-0.4519,-0.4743,-0.5046,-0.5321,-0.2636,-0.2245,-0.3533,-0.2758,-0.3744,-0.5596,-0.2637,-0.0841,-0.0,-0.0,-0.0,-0.0,-0.0,-0.0,0.0224,0.173,0.3244,0.4657,0.5555,0.7693,1.0458,1.3346,1.5014,1.594,1.6305,1.5564,1.4501,1.3782,1.2332,1.099,1.043,0.9127,0.7676,0.6564,0.6066,0.5608,0.4938,0.4872,0.4991,0.5189,0.5315,0.4507,0.2032,0.0719,-0.0353,-0.1409,-0.1482,-0.1898,-0.2852,-0.3577,-0.4141,-0.4494,-0.3498,-0.3429,-0.464,-0.4857,-0.5078,-0.5206,-0.5339,-0.4834,-0.3551,-0.2345,-0.1434,-0.0861,-0.1231,-0.1965,-0.2963,-0.4029,-0.4495,-0.434,-0.1289,-0.0,-0.0,-0.0,-0.0,-0.0247,-0.2719,-0.4361,-0.5408,-0.5418,-0.5016,-0.471,-1.6519,-1.6516,-1.6142,-1.5556,-1.402,-1.2679,-1.2168,-1.0854,-0.9957,-1.0237,-0.979,-0.9649,-1.0241,-1.0013,-0.9709,-0.9384,-0.9105,-0.9053,-0.9235,-0.9215,-0.9187,-0.9187,-0.93,-0.9129,-0.8722,-0.8989,-0.841,-0.7015,-0.6196,-0.534,-0.4525,-0.4525,-0.421,-0.3599,-0.1488,-0.022,0.0326,0.0332,-0.1563,-0.434,-0.2469,-0.1344,-0.0838,-0.0838,-0.0503,-0.0,-0.0,-0.0,0.0224,0.173,0.3244,0.4601,0.5281,0.7041,0.9424,1.2225,1.3936,1.4971,1.5318,1.4892,1.4133,1.3273,1.2101,1.1065,1.0517,0.9327,0.7949,0.6825,0.632,0.584,0.4841,0.4728,0.45,0.35,0.3457,0.2541,-0.0181,-0.1234,-0.1788,-0.2187,-0.2715,-0.3074,-0.3074,-0.3919,-0.449,-0.4501,-0.3608,-0.3556,-0.4604,-0.4832,-0.5024,-0.5206,-0.5349,-0.4846,-0.3694,-0.2621,-0.1314,-0.0,-0.0,-0.0483,-0.1392,-0.2376,-0.2791,-0.2681,-0.0815,-0.0,-0.0,-0.0,-0.0794,-0.2266,-0.451,-0.5418,-0.5399,-0.5393,-0.5688,-0.6194,-1.7089,-1.6896,-1.6489,-1.6514,-1.5039,-1.3862,-1.3826,-1.2696,-1.1923,-1.2144,-1.1313,-1.0969,-1.1601,-1.1271,-1.0771,-1.0045,-0.9744,-0.9759,-1.0185,-1.0105,-1.0091,-1.0127,-1.0288,-1.0091,-0.9475,-0.9678,-0.8738,-0.6588,-0.5226,-0.4522,-0.4477,-0.4522,-0.3011,-0.032,-0.1096,0.0656,0.4164,0.4174,0.0838,-0.4514,-0.4511,-0.3649,-0.2343,-0.2343,-0.1506,-0.0279,-0.0056,-0.0,0.0224,0.1563,0.313,0.4601,0.5226,0.6392,0.7964,1.0058,1.2057,1.3564,1.3647,1.3695,1.3321,1.2061,1.1715,1.1316,1.0012,0.9428,0.8631,0.6954,0.6804,0.6497,0.4834,0.4478,0.3447,0.0233,-0.0175,-0.0641,-0.2217,-0.371,-0.4089,-0.2674,-0.3749,-0.4605,-0.4549,-0.4553,-0.4501,-0.4511,-0.4521,-0.4478,-0.4494,-0.4635,-0.473,-0.4726,-0.5055,-0.5205,-0.5205,-0.5363,-0.3604,-0.0,-0.0,-0.0,-0.0,-0.0247,-0.0371,-0.037,-0.0247,-0.0185,-0.0185,-0.0186,-0.2204,-0.5199,-0.5345,-0.548,-0.5512,-0.5522,-0.621,-0.7192,0.0,0.0,-1.7209,-1.7686,-1.5969,-1.4329,-1.3862,-1.3122,-1.2445,-1.1816,-1.182,-1.1704,-1.1232,-1.1432,-1.1697,-1.1849,-1.1463,-1.1297,-1.1398,-1.1016,-1.0923,-1.1267,-1.0483,-1.0032,-0.9987,-0.9551,-0.8435,-0.6588,-0.571,-0.5003,-0.4522,-0.4473,-0.4122,-0.3322,-0.1275,0.0167,0.1054,0.1057,-0.1115,-0.4514,-0.4504,-0.4268,-0.3981,-0.3981,-0.3755,-0.3135,-0.0837,-0.0,0.0056,0.0391,0.2291,0.4549,0.4698,0.5719,0.7295,0.9571,1.1184,1.2209,1.2484,1.2395,1.2015,1.1258,1.0661,1.0064,0.9211,0.8526,0.7794,0.6815,0.6237,0.5605,0.4661,0.2635,0.0112,-0.2947,-0.43,-0.4968,-0.5016,-0.5652,-0.595,-0.5592,-0.5563,-0.5466,-0.5281,-0.4812,-0.4494,-0.4487,-0.4487,-0.4527,-0.4507,-0.3416,-0.285,-0.287,-0.3162,-0.3353,-0.3353,-0.4727,-0.3593,-0.0,-0.0,-0.0,-0.0124,-0.2851,-0.4119,-0.403,-0.2651,-0.203,-0.2033,-0.2078,-0.2553,-0.348,-0.4888,-0.5951,-0.6726,-0.6709,-0.731,-0.8238,-1.8047,-1.8288,-1.8124,-1.8507,-1.6386,-1.4443,-1.3894,-1.3016,-1.2282,-1.1967,-1.2138,-1.216,-1.1715,-1.1957,-1.221,-1.2473,-1.2258,-1.2102,-1.2102,-1.1987,-1.1783,-1.1529,-1.106,-1.0386,-0.9557,-0.9177,-0.8015,-0.6091,-0.5382,-0.4842,-0.4525,-0.4477,-0.4487,-0.4448,-0.2798,-0.2069,-0.2074,-0.2069,-0.3021,-0.4497,-0.449,-0.4487,-0.448,-0.448,-0.4484,-0.4262,-0.2627,-0.1173,-0.0,-0.0,0.1563,0.3583,0.4255,0.5234,0.6396,0.7781,0.9443,1.0964,1.1592,1.1524,1.114,1.0509,0.9865,0.9263,0.8857,0.848,0.7996,0.7235,0.6524,0.571,0.4684,0.2613,0.0111,-0.2681,-0.5096,-0.6394,-0.5786,-0.6218,-0.6485,-0.615,-0.5882,-0.5559,-0.5113,-0.471,-0.4191,-0.3486,-0.2823,-0.3032,-0.4455,-0.2388,-0.1181,-0.1224,-0.1389,-0.1477,-0.1477,-0.0804,0.0532,0.2435,0.0788,-0.0,-0.0128,-0.3731,-0.6254,-0.7688,-0.5927,-0.5121,-0.5108,-0.5115,-0.5277,-0.5614,-0.6584,-0.7277,-0.7693,-0.7721,-0.8422,-0.9436,-1.8163,-1.8687,-1.8617,-1.8604,-1.6176,-1.4087,-1.3573,-1.2599,-1.2054,-1.2284,-1.2446,-1.2514,-1.2504,-1.2542,-1.2541,-1.2419,-1.2419,-1.2434,-1.2401,-1.2553,-1.2236,-1.1354,-1.1262,-1.042,-0.8731,-0.8423,-0.7416,-0.5664,-0.4904,-0.4473,-0.4484,-0.4255,-0.4265,-0.4514,-0.4514,-0.4228,-0.3828,-0.4284,-0.4501,-0.448,-0.4477,-0.4525,-0.4519,-0.4519,-0.4525,-0.448,-0.4494,-0.2854,-0.0614,-0.0168,0.1004,0.2454,0.4027,0.4959,0.5576,0.5875,0.7554,0.9561,1.057,1.0677,1.0364,0.9814,0.9211,0.8804,0.8804,0.8699,0.848,0.783,0.7128,0.6195,0.4758,0.3329,0.1555,-0.0887,-0.4003,-0.5977,-0.5605,-0.615,-0.6421,-0.5878,-0.5655,-0.5391,-0.4857,-0.4623,-0.3949,-0.2642,-0.0973,-0.1133,-0.3694,-0.1362,-0.0,-0.0,0.053,0.0804,0.0804,0.3565,0.5135,0.5343,0.2281,0.0402,-0.0536,-0.3832,-0.7118,-1.0007,-0.8607,-0.7992,-0.8002,-0.8002,-0.8273,-0.8685,-0.8723,-0.8694,-0.857,-0.8502,-0.9405,-1.0539,-1.7061,-1.7502,-1.7319,-1.6798,-1.468,-1.2842,-1.2209,-1.2385,-1.2565,-1.2337,-1.3076,-1.3351,-1.253,-1.2698,-1.2677,-1.2141,-1.21,-1.2026,-1.194,-1.1362,-1.1113,-1.1301,-0.9612,-0.868,-0.8724,-0.7171,-0.6351,-0.6449,-0.5159,-0.449,-0.4494,-0.3186,-0.3249,-0.4514,-0.4514,-0.3091,-0.0841,-0.3421,-0.4497,-0.449,-0.4473,-0.4519,-0.4519,-0.4519,-0.4525,-0.448,-0.4494,-0.4216,-0.3429,-0.084,0.1006,0.2456,0.4036,0.4967,0.5576,0.5875,0.6522,0.7333,0.8417,0.8897,0.9061,0.8956,0.8857,0.8804,0.8804,0.8315,0.783,0.7723,0.7128,0.6195,0.4758,0.375,0.2369,0.0111,-0.2263,-0.4303,-0.5673,-0.6273,-0.6707,-0.7063,-0.6346,-0.5973,-0.6229,-0.5216,-0.438,-0.4139,-0.1553,-0.0193,-0.0645,-0.0264,-0.0,-0.0,0.2967,0.4582,0.4573,0.3588,0.3894,0.5399,0.4858,0.2144,-0.2342,-0.4414,-0.6168,-0.7673,-0.7877,-0.7977,-0.7967,-0.7967,-0.8032,-0.8122,-0.8373,-0.8874,-0.9434,-0.9145,-0.9619,-1.0359,-1.6695,-1.6935,-1.6473,-1.5863,-1.4079,-1.2482,-1.1891,-1.2052,-1.2368,-1.2624,-1.3127,-1.326,-1.2748,-1.2559,-1.2236,-1.1681,-1.0929,-1.0371,-1.0038,-1.0145,-1.0038,-0.9588,-0.845,-0.7611,-0.7219,-0.5042,-0.4012,-0.4242,-0.3577,-0.3699,-0.4504,-0.3761,-0.2972,-0.2076,-0.2076,-0.1288,-0.0112,-0.1509,-0.3021,-0.4494,-0.4484,-0.448,-0.448,-0.448,-0.4484,-0.449,-0.4501,-0.4507,-0.4054,-0.1009,0.0447,0.1451,0.3755,0.4702,0.4971,0.5154,0.597,0.7041,0.7741,0.8087,0.8321,0.8699,0.8804,0.891,0.9263,0.9093,0.8922,0.9273,0.8783,0.8075,0.7406,0.5877,0.4196,0.2571,0.0599,-0.1306,-0.3073,-0.3833,-0.4155,-0.3999,-0.3514,-0.3112,-0.2956,-0.2327,-0.2279,-0.3217,-0.1222,-0.0,-0.0,-0.0,-0.0,-0.0,0.1599,0.3423,0.5403,0.4593,0.4546,0.5404,0.3556,0.0835,-0.2733,-0.5019,-0.7187,-0.8972,-0.9262,-0.9366,-0.9448,-0.9875,-0.9812,-0.9332,-0.9,-0.927,-0.9742,-0.9059,-0.9223,-0.975,-1.6296,-1.6332,-1.5719,-1.5129,-1.3501,-1.2223,-1.2004,-1.2017,-1.2253,-1.2913,-1.309,-1.3155,-1.301,-1.2366,-1.1758,-1.1239,-0.9897,-0.8875,-0.8345,-0.8602,-0.8502,-0.7854,-0.7431,-0.6509,-0.5066,-0.3514,-0.2402,-0.1675,-0.1675,-0.2293,-0.3431,-0.3431,-0.1849,0.1065,0.1065,0.0839,0.0502,0.0167,-0.1339,-0.3471,-0.3811,-0.3981,-0.3981,-0.3981,-0.4212,-0.4501,-0.4511,-0.4058,-0.3091,-0.0784,-0.0,0.0502,0.3532,0.4494,0.448,0.4525,0.5437,0.658,0.7063,0.745,0.783,0.8427,0.8798,0.9159,0.9666,1.0012,1.0399,1.0897,1.0705,1.0362,1.0144,0.8281,0.6317,0.4915,0.314,0.136,-0.0274,-0.1035,-0.1141,-0.0273,-0.0,0.046,0.1334,0.1475,0.0574,-0.1539,-0.1451,-0.1074,-0.0673,-0.0606,-0.0806,-0.1268,-0.047,0.1328,0.4148,0.4467,0.4388,0.3847,0.0932,-0.1481,-0.3372,-0.6822,-0.9292,-1.0744,-1.0947,-1.101,-1.0926,-1.1531,-1.1351,-1.0568,-0.9918,-0.9862,-1.0087,-0.9298,-0.9212,-0.9526,-1.5342,-1.5303,-1.4858,-1.4365,-1.2661,-1.1623,-1.2357,-1.261,-1.277,-1.2969,-1.3407,-1.3548,-1.3041,-1.2272,-1.1567,-1.0881,-0.9533,-0.8469,-0.7817,-0.6528,-0.6168,-0.7042,-0.6415,-0.4893,-0.2508,-0.3705,-0.2974,-0.0168,-0.0168,-0.0224,-0.0336,-0.0336,0.1288,0.4169,0.4169,0.3368,0.1952,0.0556,-0.0111,-0.0445,-0.1839,-0.2343,-0.2343,-0.2343,-0.3249,-0.4511,-0.4514,-0.2695,-0.028,-0.0056,-0.0,0.0503,0.354,0.4504,0.4494,0.448,0.4588,0.4857,0.5492,0.6686,0.7723,0.7777,0.8771,0.9762,0.9762,1.0687,1.1554,1.1603,1.2057,1.2291,1.1589,1.0308,0.8564,0.6144,0.4331,0.2747,0.1494,0.1043,0.131,0.247,0.2927,0.3683,0.4908,0.5013,0.358,0.0128,-0.3171,-0.4244,-0.2611,-0.2482,-0.3259,-0.4958,-0.1722,0.0132,0.0386,0.1665,0.1336,-0.0633,-0.2307,-0.3848,-0.5369,-1.0791,-1.2448,-1.11,-1.2292,-1.2389,-1.171,-1.1772,-1.1351,-1.0588,-1.079,-1.0916,-1.0883,-1.0413,-1.0257,-1.0103,-1.4892,-1.4755,-1.4226,-1.3328,-1.2556,-1.2132,-1.2455,-1.2717,-1.288,-1.2912,-1.3137,-1.3178,-1.2959,-1.1889,-1.1065,-1.0813,-0.8731,-0.7272,-0.702,-0.566,-0.5027,-0.5436,-0.5156,-0.4138,-0.2232,-0.1903,-0.1121,-0.0,-0.0,-0.0,-0.0,-0.0,0.0617,0.1794,0.3658,0.4169,0.3593,0.3026,0.1732,-0.0056,-0.0615,-0.0838,-0.0838,-0.0838,-0.1175,-0.1682,-0.1682,-0.0953,-0.0,-0.0,-0.0,0.0224,0.1342,0.235,0.3249,0.42,0.4477,0.4581,0.4791,0.5601,0.6573,0.745,0.8389,0.9467,1.0679,1.172,1.2599,1.3423,1.3752,1.3731,1.3077,1.1844,1.0322,0.8532,0.6637,0.5183,0.4747,0.4373,0.4478,0.5398,0.5354,0.5555,0.6219,0.4408,0.1835,-0.1398,-0.3209,-0.4758,-0.5928,-0.3929,-0.3526,-0.5325,-0.5147,-0.4088,-0.2165,-0.3351,-0.3765,-0.342,-0.7516,-1.0177,-1.1584,-1.2589,-1.3042,-1.3008,-1.3511,-1.3304,-1.2512,-1.2512,-1.2081,-1.1233,-1.0341,-0.9974,-1.0019,-0.948,-0.9333,-0.9364,-1.4949,-1.4741,-1.427,-1.3488,-1.2987,-1.2785,-1.2986,-1.2922,-1.2881,-1.2881,-1.2881,-1.2881,-1.2881,-1.1642,-1.0813,-1.0813,-0.8212,-0.6588,-0.6588,-0.5281,-0.4519,-0.4519,-0.4484,-0.3755,-0.2232,-0.0727,-0.0,-0.0,-0.0,-0.0,-0.0,-0.0,-0.0,0.0112,0.2184,0.3596,0.4507,0.4511,0.3314,0.1342,0.0392,0.0561,0.1401,0.1401,0.112,0.0671,0.0671,0.0672,0.0672,0.0671,0.0392,-0.0168,-0.1119,-0.0391,0.1115,0.2621,0.34,0.3904,0.4359,0.4846,0.5542,0.7015,0.8165,0.9438,1.1065,1.2318,1.3358,1.4226,1.456,1.4514,1.3888,1.2483,1.1031,0.9959,0.7841,0.6296,0.6087,0.6041,0.6257,0.6721,0.674,0.6754,0.6713,0.3215,-0.0249,-0.3241,-0.4696,-0.6077,-0.7606,-0.5315,-0.4593,-0.5922,-0.725,-0.7261,-0.5742,-0.7561,-0.8299,-0.7947,-1.1425,-1.3728,-1.49,-1.391,-1.378,-1.432,-1.4495,-1.4145,-1.3364,-1.3364,-1.2879,-1.2081,-1.0892,-1.0631,-1.0712,-1.0113,-1.0078,-1.034,-1.5599,-1.5279,-1.5034,-1.508,-1.4021,-1.3401,-1.4,-1.3418,-1.2881,-1.2881,-1.2881,-1.2881,-1.2881,-1.1642,-1.0813,-1.0813,-0.8212,-0.6588,-0.6588,-0.5281,-0.4519,-0.4519,-0.4484,-0.3755,-0.2232,-0.0727,-0.0,-0.0,-0.0,-0.0,-0.0,-0.0,-0.0056,-0.0056,-0.0,0.1675,0.4438,0.4507,0.4514,0.4228,0.1233,0.1794,0.4514,0.4514,0.3535,0.2232,0.2232,0.2235,0.2238,0.2176,0.1229,-0.0505,-0.3543,-0.3477,-0.195,-0.0445,0.0998,0.2494,0.4033,0.4477,0.4791,0.6209,0.814,0.9893,1.0645,1.2337,1.3779,1.3826,1.4294,1.4457,1.381,1.2039,1.0513,0.9961,0.7605,0.5643,0.4919,0.5578,0.6164,0.6036,0.6885,0.7254,0.6601,0.2076,-0.207,-0.5233,-0.8028,-0.8851,-0.7161,-0.6872,-0.6806,-0.7109,-0.7623,-0.874,-1.0481,-1.0287,-1.1728,-1.4706,-1.3376,-1.3264,-1.4231,-1.5047,-1.5186,-1.4814,-1.5234,-1.4932,-1.4204,-1.4213,-1.3726,-1.3009,-1.3009,-1.3223,-1.3523,-1.292,-1.3123,-1.3426,-1.6226,-1.6021,-1.5652,-1.4779,-1.4285,-1.3942,-1.3714,-1.3232,-1.2881,-1.2881,-1.2881,-1.2881,-1.2881,-1.2039,-1.1316,-1.0864,-0.9148,-0.7416,-0.5923,-0.5007,-0.4519,-0.4519,-0.4484,-0.3755,-0.2232,-0.0727,-0.0,-0.0,-0.0,-0.0,-0.0056,-0.2188,-0.3147,-0.3086,-0.0948,0.0501,0.1504,0.3593,0.4514,0.4228,0.1233,0.1794,0.4514,0.4514,0.4219,0.3811,0.3811,0.3814,0.3644,0.2569,0.2631,0.1902,-0.5234,-0.6473,-0.4769,-0.2265,-0.1214,-0.0386,0.1775,0.1887,0.1937,0.4477,0.71,0.9291,1.0471,1.1559,1.2812,1.4478,1.3941,1.3389,1.4221,1.0939,0.762,0.6182,0.4746,0.3962,0.4438,0.5034,0.5659,0.6256,0.6705,0.7104,0.7481,0.2079,-0.3618,-0.8819,-0.9154,-0.8478,-0.6929,-0.6852,-0.6864,-0.6806,-0.8115,-0.9617,-1.1327,-1.1859,-1.2827,-1.4368,-1.5023,-1.5239,-1.4988,-1.5205,-1.4965,-1.4271,-1.3895,-1.3606,-1.3304,-1.2749,-1.2687,-1.2948,-1.2389,-1.2343,-1.2618,-1.2654,-1.2199,-1.1527,-1.6816,-1.654,-1.6066,-1.4947,-1.4634,-1.43,-1.3629,-1.3154,-1.2968,-1.3238,-1.3065,-1.2968,-1.3238,-1.2169,-1.1266,-1.0864,-0.8992,-0.7202,-0.5592,-0.4897,-0.4519,-0.4519,-0.448,-0.3749,-0.2232,-0.0783,-0.0,-0.0,-0.0,-0.0617,-0.1794,-0.3658,-0.4514,-0.4399,-0.2573,-0.1115,0.0112,0.1961,0.2695,0.2581,0.0728,0.1064,0.286,0.4048,0.4501,0.449,0.4484,0.4487,0.4376,0.3405,0.267,0.0997,-0.5597,-0.7091,-0.6128,-0.4412,-0.3159,-0.2368,-0.2546,-0.1507,-0.022,0.0765,0.3997,0.7227,0.8345,0.986,1.119,1.1688,0.9807,0.8538,0.9917,0.7125,0.4362,0.357,0.2493,0.2221,0.3528,0.4058,0.4775,0.5954,0.6519,0.7016,0.7585,0.3195,-0.1801,-0.6926,-0.6528,-0.5891,-0.5452,-0.5613,-0.6034,-0.6822,-0.8409,-1.0002,-1.1712,-1.257,-1.3536,-1.465,-1.4953,-1.4847,-1.4286,-1.4019,-1.3416,-1.2627,-1.2188,-1.1966,-1.1958,-1.1472,-1.1527,-1.1905,-1.1472,-1.1482,-1.1817,-1.1634,-1.1312,-1.0887,-1.7391,-1.6947,-1.6298,-1.5459,-1.4989,-1.4435,-1.3721,-1.3273,-1.32,-1.3779,-1.3382,-1.319,-1.3732,-1.2101,-1.0922,-1.0813,-0.8265,-0.6421,-0.576,-0.5058,-0.468,-0.468,-0.4636,-0.391,-0.2452,-0.0948,-0.0224,-0.0224,-0.0224,-0.1625,-0.4284,-0.4452,-0.4511,-0.4511,-0.434,-0.2863,-0.0392,-0.0112,-0.0,-0.0,-0.0,-0.0,0.0279,0.3077,0.4262,0.4477,0.4522,0.4525,0.4477,0.4522,0.1929,-0.1867,-0.5128,-0.6262,-0.649,-0.6755,-0.5002,-0.3926,-0.7744,-0.5305,-0.2128,-0.4098,-0.0431,0.3893,0.4957,0.7436,0.8954,0.6681,0.3562,0.1463,0.2031,0.1392,0.1132,0.2104,0.1032,0.0594,0.2279,0.2982,0.3889,0.5379,0.6435,0.714,0.7506,0.5463,0.2662,-0.0848,-0.1121,-0.1625,-0.289,-0.3376,-0.468,-0.7039,-0.8473,-1.0014,-1.1764,-1.2451,-1.3502,-1.4935,-1.3571,-1.2813,-1.257,-1.1882,-1.11,-1.0147,-0.9882,-0.9743,-0.9781,-0.9712,-0.9756,-0.9794,-0.9794,-1.0122,-1.0535,-0.9839,-1.0075,-1.069,-1.8097,-1.7515,-1.6795,-1.573,-1.5085,-1.4651,-1.4482,-1.3984,-1.3826,-1.4422,-1.3967,-1.3637,-1.3779,-1.2977,-1.1999,-1.0922,-0.8751,-0.7396,-0.723,-0.6529,-0.6154,-0.6154,-0.5605,-0.4882,-0.4045,-0.2502,-0.1729,-0.173,-0.173,-0.2066,-0.2738,-0.3922,-0.449,-0.4442,-0.3246,-0.3026,-0.3375,-0.1009,-0.0,-0.0,-0.0,-0.0,0.0056,0.0726,0.2456,0.448,0.4477,0.4525,0.4525,0.4484,0.2384,-0.1215,-0.6492,-0.8177,-0.8224,-0.8286,-0.7876,-0.765,-0.8495,-0.7433,-0.6067,-0.6098,-0.3869,-0.0758,0.257,0.4478,0.5383,0.4778,0.2338,-0.1051,-0.5388,-0.3223,0.0058,0.2427,0.138,0.0431,0.0968,0.344,0.5617,0.6831,0.7504,0.8602,1.0669,1.0154,0.832,0.5146,0.4118,0.2874,0.118,-0.07,-0.3422,-0.6971,-0.8473,-1.0014,-1.1764,-1.1315,-1.152,-1.2469,-1.2119,-1.1618,-1.0947,-1.0795,-0.9964,-0.8364,-0.587,-0.4869,-0.4976,-0.4356,-0.4534,-0.5241,-0.5241,-0.5356,-0.5761,-0.7376,-0.71,-0.6055,-1.9062,-1.8558,-1.7769,-1.6614,-1.6162,-1.5752,-1.5184,-1.481,-1.4733,-1.5085,-1.4365,-1.3909,-1.419,-1.3102,-1.194,-1.0864,-0.9459,-0.8528,-0.8178,-0.7475,-0.6945,-0.6642,-0.6258,-0.5869,-0.5534,-0.4707,-0.3947,-0.3299,-0.3299,-0.3297,-0.3294,-0.4141,-0.4487,-0.4438,-0.2905,-0.2237,-0.2244,-0.0673,-0.0,-0.0,-0.0,-0.0,-0.0,-0.0,0.1899,0.4494,0.4484,0.4477,0.4415,0.3635,0.2496,0.0718,-0.322,-0.5251,-0.6207,-0.6718,-0.7157,-0.7623,-0.8066,-0.784,-0.745,-0.7213,-0.572,-0.3509,-0.0325,0.191,0.3078,0.2356,0.1046,-0.0896,-0.3972,-0.2264,0.058,0.3649,0.4064,0.437,0.542,0.7463,0.8626,0.8132,0.8569,0.9989,1.2508,1.3527,1.3036,1.0557,0.9491,0.7777,0.5063,0.2759,-0.0632,-0.5242,-0.7184,-0.8784,-0.999,-0.9767,-0.9637,-0.9527,-0.8925,-0.8084,-0.6933,-0.6317,-0.5307,-0.3862,-0.1694,-0.0773,-0.0831,-0.0136,-0.0133,-0.0588,-0.0588,-0.0671,-0.0976,-0.2558,-0.2745,-0.2414,-1.9922,-1.9527,-1.8878,-1.7784,-1.7424,-1.6954,-1.5995,-1.5629,-1.5531,-1.5614,-1.4549,-1.4003,-1.4468,-1.2918,-1.1566,-1.1015,-1.0316,-0.9644,-0.9096,-0.8502,-0.7823,-0.7171,-0.7009,-0.6907,-0.6804,-0.6642,-0.6,-0.4875,-0.4875,-0.4871,-0.486,-0.475,-0.4588,-0.4428,-0.3178,-0.1895,-0.0727,-0.0726,-0.0614,-0.0391,-0.0391,-0.0392,-0.0392,-0.0391,0.134,0.3708,0.3747,0.3741,0.3516,0.2228,0.2106,0.233,0.1325,-0.1073,-0.3835,-0.5308,-0.6055,-0.669,-0.7903,-0.7988,-0.7676,-0.7664,-0.6573,-0.4984,-0.3044,-0.0721,0.0778,-0.0055,0.0553,0.1177,0.0813,0.1107,0.2523,0.6139,0.7486,0.8851,1.0822,1.1414,1.1016,0.9211,0.9982,1.1567,1.3893,1.6004,1.6628,1.5131,1.4171,1.2103,0.8639,0.6086,0.2258,-0.3126,-0.5561,-0.7166,-0.7962,-0.8412,-0.7855,-0.6237,-0.4937,-0.3572,-0.2004,-0.0761,0.0632,0.1947,0.2954,0.3516,0.3703,0.4089,0.4368,0.4479,0.4479,0.4351,0.3987,0.3187,0.2202,0.1174,-1.9987,-1.9852,-1.9595,-1.8982,-1.7962,-1.7255,-1.7165,-1.6209,-1.5531,-1.5614,-1.4549,-1.3815,-1.3909,-1.2648,-1.1765,-1.1665,-1.1057,-1.0602,-1.0501,-1.0442,-1.0092,-0.9392,-0.8744,-0.8165,-0.7557,-0.6912,-0.648,-0.6322,-0.6322,-0.6322,-0.6317,-0.5655,-0.5046,-0.4491,-0.421,-0.399,-0.3831,-0.3805,-0.3082,-0.1877,-0.1877,-0.1886,-0.1898,-0.1896,-0.0835,0.0612,0.0612,0.0612,0.0556,0.0388,0.0333,0.0845,0.3186,-0.0249,-0.5713,-0.8892,-0.8924,-0.8281,-0.984,-0.9245,-0.8043,-0.7676,-0.6553,-0.5269,-0.4395,-0.3855,-0.3186,-0.1609,0.283,0.581,0.3475,0.4176,0.6676,1.1261,1.0147,0.9408,1.1394,1.0408,0.9603,0.9701,1.1961,1.4125,1.5648,1.7617,1.8581,1.8047,1.6749,1.4706,1.1768,0.8136,0.3545,-0.221,-0.4509,-0.6418,-0.801,-0.8079,-0.6321,-0.2853,-0.1211,0.0641,0.2639,0.3348,0.531,0.813,0.8846,0.9707,1.0509,0.98,0.9881,1.0533,1.0533,1.0099,0.9299,0.8342,0.7162,0.6105,-2.0949,-2.0922,-2.0726,-2.0159,-1.9291,-1.8486,-1.78,-1.7026,-1.6253,-1.5533,-1.4482,-1.3815,-1.3815,-1.2967,-1.2403,-1.2403,-1.2147,-1.1792,-1.1366,-1.1366,-1.1065,-1.0364,-1.0041,-0.9725,-0.9422,-0.9103,-0.894,-0.894,-0.7729,-0.6945,-0.6588,-0.6666,-0.6166,-0.5299,-0.5241,-0.5823,-0.6882,-0.6856,-0.651,-0.5837,-0.498,-0.4207,-0.3503,-0.3503,-0.3063,-0.2399,-0.156,-0.1057,-0.1,-0.2115,-0.1781,-0.0561,0.0883,-0.0721,-0.3613,-0.5888,-0.787,-0.9301,-0.9189,-0.8824,-0.8327,-0.7777,-0.6891,-0.5928,-0.5222,-0.4856,-0.4065,-0.1941,0.1519,0.4423,0.5192,0.5805,0.7218,1.0361,1.0556,1.0729,1.1864,1.1242,1.0478,0.9708,1.0648,1.2128,1.4171,1.5457,1.7175,1.9512,1.7369,1.4803,1.2352,0.9896,0.6432,0.1781,0.0627,-0.0761,-0.2372,-0.3033,-0.2509,-0.0734,0.2211,0.4504,0.6193,0.6169,0.7298,0.9329,1.019,1.0852,1.1315,1.1813,1.2277,1.2626,1.3157,1.2692,1.1658,1.1251,0.9814,0.8021]},{"header":{"parameterUnit":"m.s-1","parameterCategory":1,"la1":30.6,"la2":28.766,"lo1":-90.7593,"lo2":-88.6598,"dy":0.0162,"dx":0.0183,"nx":116,"ny":114,"refTime":"2023-06-23T06:00:00:Z","depth":0,"parameterNumber":3,"parameterNumberName":"V-component_of_WINDS"},"data":[0.0,0.0,0.0,0.0,0.0,0.0,0.0,0.0,0.0,0.0,0.0,0.0,0.0,0.0,0.0,0.0,0.0,0.0,0.0,0.0,0.0,0.0,0.0,0.0,0.0,0.0,0.0,0.0,0.0,0.0,0.0,0.0,0.0,0.0,0.0,0.0,0.0,0.0,0.0,0.0,0.0,0.0,0.0,0.0,0.0,0.0,0.0,0.0,0.0,0.0,0.0,0.0,0.0,0.0,0.0,0.0,0.0,0.0,0.0,0.0,0.0,0.0,0.0,0.0,0.0,0.0,0.0,0.0,0.0,0.0,0.0,0.0,0.0,0.0,0.0,0.0,0.0,0.0,0.0,0.0,0.0,0.0,0.0,0.0,0.0,0.0,0.0,0.0,0.0,0.0,0.0,0.0,0.0,0.0,0.0,0.0,0.0,0.0,0.0,0.0,0.0,0.0,0.0,0.0,0.0,0.0,0.0,0.0,0.0,0.0,0.0,0.0,0.0,0.0,0.0,0.0,0.0,0.0,0.0,0.0,0.0,0.0,0.0,0.0,0.0,0.0,0.0,0.0,0.0,0.0,0.0,0.0,0.0,0.0,0.0,0.0,0.0,0.0,0.0,0.0,0.0,0.0,0.0,0.0,0.0,0.0,0.0,0.0,0.0,0.0,0.0,0.0,0.0,0.0,0.0,0.0,0.0,0.0,0.0,0.0,0.0,0.0,0.0,0.0,0.0,0.0,0.0,0.0,0.0,0.0,0.0,0.0,0.0,0.0,0.0,0.0,0.0,0.0,0.0,0.0,0.0,0.0,0.0,0.0,0.0,0.0,0.0,0.0,0.0,0.0,0.0,0.0,0.0,0.0,0.0,0.0,0.0,0.0,0.0,0.0,0.0,0.0,0.0,0.0,0.0,0.0,0.0,0.0,0.0,0.0,0.0,0.0,0.0,0.0,0.0,0.0,0.0,0.0,0.0,0.0,0.0,0.0,0.0,0.0,0.0,0.0,0.0,0.0,0.0,0.0,0.0,0.0,0.0,0.0,0.0,0.0,0.0,0.0,0.0,0.0,0.0,0.0,0.0,0.0,0.0,0.0,0.0,0.0,0.0,0.0,0.0,0.0,0.0,0.0,0.0,0.0,0.0,0.0,0.0,0.0,0.0,0.0,0.0,0.0,0.0,0.0,0.0,0.0,0.0,0.0,0.0,0.0,0.0,0.0,0.0,0.0,0.0,0.0,0.0,0.0,0.0,0.0,0.0,0.0,0.0,0.0,0.0,0.0,0.0,0.0,0.0,0.0,0.0,0.0,0.0,0.0,0.0,0.0,0.0,0.0,0.0,0.0,0.0,0.0,0.0,0.0,0.0,0.0,0.0,0.0,0.0,0.0,0.0,0.0,0.0,0.0,0.0,0.0,0.0,0.0,0.0,0.0,0.0,0.0,0.0,0.0,0.0,0.0,0.0,0.0,0.0,0.0,0.0,0.0,0.0,0.0,0.0,0.0,0.0,0.0,0.0,0.0,0.0,0.0,0.0,0.0,0.0,0.0,0.0,0.0,0.0,0.0,0.0,0.0,0.0,0.0,0.0,0.0,0.0,0.0,0.0,0.0,0.0,0.0,0.0,0.0,0.0,0.0,0.0,0.0,0.0,0.0,0.0,0.0,0.0,0.0,0.0,0.0,0.0,0.0,0.0,0.0,0.0,0.0,0.0,0.0,0.0,0.0,0.0,0.0,0.0,0.0,0.0,0.0,0.0,0.0,0.0,0.0,0.0,0.0,0.0,0.0,0.0,0.0,0.0,0.0,0.0,0.0,0.0,0.0,0.0,0.0,0.0,0.0,0.0,0.0,0.0,0.0,0.0,0.0,0.0,0.0,0.0,0.0,0.0,0.0,0.0,0.0,0.0,0.0,0.0,0.0,0.0,0.0,0.0,0.0,0.0,0.0,0.0,0.0,0.0,0.0,0.0,0.0,0.0,0.0,0.0,0.0,0.0,0.0,0.0,0.0,0.0,0.0,0.0,0.0,0.0,0.0,0.0,0.0,0.0,0.0,0.0,0.0,0.0,0.0,0.0,0.0,0.0,0.0,0.0,0.0,0.0,0.0,0.0,0.0,0.0,0.0,0.0,0.0,0.0,0.0,0.0,0.0,0.0,0.0,0.0,0.0,0.0,0.0,0.0,0.0,0.0,0.0,0.0,0.0,0.0,0.0,0.0,0.0,0.0,0.0,0.0,0.0,0.0,0.0,0.0,0.0,0.0,0.0,0.0,0.0,0.0,0.0,0.0,0.0,0.0,0.0,0.0,0.0,0.0,0.0,0.0,0.0,0.0,0.0,0.0,0.0,0.0,0.0,0.0,0.0,0.0,0.0,0.0,0.0,0.0,0.0,0.0,0.0,0.0,0.0,0.0,0.0,0.0,0.0,0.0,0.0,0.0,0.0,0.0,0.0,0.0,0.0,0.0,0.0,0.0,0.0,0.0,0.0,0.0,0.0,0.0,0.0,0.0,0.0,0.0,0.0,0.0,0.0,0.0,0.0,0.0,0.0,0.0,0.0,0.0,0.0,0.0,0.0,0.0,0.0,0.0,0.0,0.0,0.0,0.0,0.0,0.0,0.0,0.0,0.0,0.0,0.0,0.0,0.0,0.0,0.0,0.0,0.0,0.0,0.0,0.0,0.0,0.0,0.0,0.0,0.0,0.0,0.0,0.0,0.0,0.0,0.0,0.0,0.0,0.0,0.0,0.0,0.0,0.0,0.0,0.0,0.0,0.0,0.0,0.0,0.0,0.0,0.0,0.0,0.0,0.0,0.0,0.0,0.0,0.0,0.0,0.0,0.0,0.0,0.0,0.0,0.0,0.0,0.0,0.0,0.0,0.0,0.0,0.0,0.0,0.0,0.0,0.0,0.0,0.0,0.0,0.0,0.0,0.0,0.0,0.0,0.0,0.0,0.0,0.0,0.0,0.0,0.0,0.0,0.0,0.0,0.0,0.0,0.0,0.0,0.0,0.0,0.0,0.0,0.0,0.0,0.0,0.0,0.0,0.0,0.0,0.0,0.0,0.0,0.0,0.0,0.0,0.0,0.0,0.0,0.0,0.0,0.0,0.0,0.0,0.0,0.0,0.0,0.0,0.0,0.0,0.0,0.0,0.0,0.0,0.0,0.0,0.0,0.0,0.0,0.0,0.0,0.0,0.0,0.0,0.0,0.0,0.0,0.0,0.0,0.0,0.0,0.0,0.0,0.0,0.0,0.0,0.0,0.0,0.0,0.0,0.0,0.0,0.0,0.0,0.0,0.0,0.0,0.0,0.0,0.0,0.0,0.0,0.0,0.0,0.0,0.0,0.0,0.0,0.0,0.0,0.0,0.0,0.0,0.0,0.0,0.0,0.0,0.0,0.0,0.0,0.0,0.0,0.0,0.0,0.0,0.0,0.0,0.0,0.0,0.0,0.0,0.0,0.0,0.0,0.0,0.0,0.0,0.0,0.0,0.0,0.0,0.0,0.0,0.0,0.0,0.0,0.0,0.0,0.0,0.0,0.0,0.0,0.0,0.0,0.0,0.0,0.0,0.0,0.0,0.0,0.0,0.0,0.0,0.0,0.0,0.0,0.0,0.0,0.0,0.0,0.0,0.0,0.0,0.0,0.0,0.0,0.0,0.0,0.0,0.0,0.0,0.0,0.0,0.0,0.0,0.0,0.0,0.0,0.0,0.0,0.0,0.0,0.0,0.0,0.0,0.0,0.0,0.0,0.0,0.0,0.0,0.0,0.0,0.0,0.0,0.0,0.0,0.0,0.0,0.0,0.0,0.0,0.0,0.0,0.0,0.0,0.0,0.0,0.0,0.0,0.0,0.0,0.0,0.0,0.0,0.0,0.0,0.0,0.0,0.0,0.0,0.0,0.0,0.0,0.0,0.0,0.0,0.0,0.0,0.0,0.0,0.0,0.0,0.0,0.0,0.0,0.0,0.0,0.0,0.0,0.0,0.0,0.0,0.0,0.0,0.0,0.0,0.0,0.0,0.0,0.0,0.0,0.0,0.0,0.0,0.0,0.0,0.0,0.0,0.0,0.0,0.0,0.0,0.0,0.0,0.0,0.0,0.0,0.0,0.0,0.0,0.0,0.0,0.0,0.0,0.0,0.0,0.0,0.0,0.0,0.0,0.0,0.0,0.0,0.0,0.0,0.0,0.0,0.0,0.0,0.0,0.0,0.0,0.0,0.0,0.0,0.0,0.0,0.0,0.0,0.0,0.0,0.0,0.0,0.0,0.0,0.0,0.0,0.0,0.0,0.0,0.0,0.0,0.0,0.0,0.0,0.0,0.0,0.0,0.0,0.0,0.0,0.0,0.0,0.0,0.0,0.0,0.0,0.0,0.0,0.0,0.0,0.0,0.0,0.0,0.0,0.0,0.0,0.0,0.0,0.0,0.0,0.0,0.0,0.0,0.0,0.0,0.0,0.0,0.0,0.0,0.0,0.0,0.0,0.0,0.0,0.0,0.0,0.0,0.0,0.0,0.0,0.0,0.0,0.0,0.0,0.0,0.0,0.0,0.0,0.0,0.0,0.0,0.0,0.0,0.0,0.0,0.0,0.0,0.0,0.0,0.0,0.0,0.0,0.0,0.0,0.0,0.0,0.0,0.0,0.0,0.0,0.0,0.0,0.0,0.0,0.0,0.0,0.0,0.0,0.0,0.0,0.0,0.0,0.0,0.0,0.0,0.0,0.0,0.0,0.0,0.0,0.0,0.0,0.0,0.0,0.0,0.0,0.0,0.0,0.0,0.0,0.0,0.0,0.0,0.0,0.0,0.0,0.0,0.0,0.0,0.0,0.0,0.0,0.0,0.0,0.0,0.0,0.0,0.0,0.0,0.0,0.0,0.0,0.0,0.0,0.0,0.0,0.0,0.0,0.0,0.0,0.0,0.0,0.0,0.0,0.0,0.0,0.0,0.0,0.0,0.0,0.0,0.0,0.0,0.0,0.0,0.0,0.0,0.0,0.0,0.0,0.0,0.0,0.0,0.0,0.0,0.0,0.0,0.0,0.0,0.0,0.0,0.0,0.0,0.0,0.0,0.0,0.0,0.0,0.0,0.0,0.0,0.0,0.0,0.0,0.0,0.0,0.0,0.0,0.0,0.0,0.0,0.0,0.0,0.0,0.0,0.0,0.0,0.0,0.0,0.0,0.0,0.0,0.0,0.0,0.0,0.0,0.0,0.0,0.0,0.0,0.0,0.0,0.0,0.0,0.0,0.0,0.0,0.0,0.0,0.0,0.0,0.0,0.0,0.0,0.0,0.0,0.0,0.0,0.0,0.0,0.0,0.0,0.0,0.0,0.0,0.0,0.0,0.0,0.0,0.0,0.0,0.0,0.0,0.0,0.0,0.0,0.0,0.0,0.0,0.0,0.0,0.0,0.0,0.0,0.0,0.0,0.0,0.0,0.0,0.0,0.0,0.0,0.0,0.0,0.0,0.0,0.0,0.0,0.0,0.0,0.0,0.0,0.0,0.0,0.0,0.0,0.0,0.0,0.0,0.0,0.0,0.0,0.0,0.0,0.0,0.0,0.0,0.0,0.0,0.0,0.0,0.0,0.0,0.0,0.0,0.0,0.0,0.0,0.0,0.0,0.0,0.0,0.0,0.0,0.0,0.0,0.0,0.0,0.0,0.0,0.0,0.0,0.0,0.0,0.0,0.0,0.0,0.0,0.0,0.0,0.0,0.0,0.0,0.0,0.0,0.0,0.0,0.0,0.0,0.0,0.0,0.0,0.0,0.0,0.0,0.0,0.0,0.0,0.0,0.0,0.0,0.0,0.0,0.0,0.0,0.0,0.0,0.0,0.0,0.0,0.0,0.0,0.0,0.0,0.0,0.0,0.0,0.0,0.0,0.0,0.0,0.0,0.0,0.0,0.0,0.0,0.0,0.0,0.0,0.0,0.0,0.0,0.0,0.0,0.0,0.0,0.0,0.0,0.0,0.0,0.0,0.0,0.0,0.0,0.0,0.0,0.0,0.0,0.0,0.0,0.0,0.0,0.0,0.0,0.0,0.0,0.0,0.0,0.0,0.0,0.0,0.0,0.0,0.0,0.0,0.0,0.0,0.0,0.0,0.0,-1.6622,-1.7241,0.0,0.0,0.0,0.0,0.0,0.0,0.0,0.0,0.0,0.0,0.0,0.0,0.0,0.0,0.0,0.0,0.0,0.0,0.0,0.0,0.0,0.0,0.0,0.0,0.0,0.0,0.0,0.0,0.0,0.0,0.0,0.0,0.0,0.0,0.0,0.0,0.0,0.0,0.0,0.0,0.0,0.0,0.0,0.0,0.0,0.0,0.0,0.0,0.0,0.0,0.0,0.0,0.0,0.0,0.0,0.0,0.0,0.0,0.0,0.0,0.0,0.0,0.0,0.0,0.0,0.0,0.0,0.0,0.0,0.0,0.0,0.0,0.0,0.0,0.0,0.0,0.0,0.0,0.0,0.0,0.0,0.0,0.0,0.0,0.0,0.0,0.0,0.0,0.0,0.0,0.0,0.0,0.0,0.0,0.0,0.0,0.0,0.0,0.0,0.0,0.0,0.0,0.0,0.0,0.0,0.0,0.0,0.0,0.0,0.0,0.0,0.0,0.0,0.0,-1.6797,-1.7133,0.0,0.0,0.0,0.0,0.0,0.0,0.0,0.0,0.0,0.0,0.0,0.0,0.0,0.0,0.0,0.0,0.0,0.0,0.0,0.0,0.0,0.0,0.0,0.0,0.0,0.0,0.0,0.0,0.0,0.0,0.0,0.0,0.0,0.0,0.0,0.0,0.0,0.0,0.0,0.0,0.0,0.0,0.0,0.0,0.0,0.0,0.0,0.0,0.0,0.0,0.0,0.0,0.0,0.0,0.0,0.0,0.0,0.0,0.0,0.0,0.0,0.0,0.0,0.0,0.0,0.0,0.0,0.0,0.0,0.0,0.0,0.0,0.0,0.0,0.0,0.0,0.0,0.0,0.0,0.0,0.0,0.0,0.0,0.0,0.0,0.0,0.0,0.0,0.0,0.0,0.0,0.0,0.0,0.0,0.0,0.0,0.0,0.0,0.0,0.0,0.0,0.0,0.0,0.0,0.0,0.0,0.0,0.0,-1.6954,-1.7028,-1.7101,-1.6533,-1.6501,-1.6885,-1.7101,-1.6884,-1.645,-1.7049,0.0,0.0,0.0,0.0,0.0,0.0,0.0,0.0,0.0,0.0,0.0,0.0,0.0,0.0,0.0,0.0,0.0,0.0,0.0,0.0,0.0,0.0,0.0,0.0,0.0,0.0,0.0,0.0,0.0,0.0,0.0,0.0,0.0,0.0,0.0,0.0,0.0,0.0,-1.4295,-1.4359,-1.441,-1.4551,-1.7056,0.0,0.0,0.0,0.0,0.0,0.0,0.0,0.0,0.0,0.0,0.0,0.0,0.0,0.0,0.0,0.0,0.0,0.0,0.0,0.0,0.0,0.0,0.0,0.0,0.0,0.0,0.0,0.0,0.0,0.0,0.0,0.0,0.0,0.0,0.0,0.0,0.0,0.0,0.0,0.0,0.0,0.0,0.0,-1.7585,-1.682,0.0,0.0,0.0,0.0,0.0,0.0,0.0,0.0,0.0,0.0,0.0,0.0,0.0,-1.5494,-1.5873,-1.5891,-1.6061,-1.6407,-1.6117,-1.6297,-1.685,-1.6474,-1.6612,-1.7133,-1.7181,0.0,-1.7164,-1.7247,0.0,0.0,0.0,0.0,0.0,0.0,0.0,0.0,0.0,0.0,0.0,0.0,0.0,0.0,0.0,0.0,0.0,0.0,0.0,0.0,0.0,0.0,0.0,0.0,0.0,0.0,0.0,0.0,0.0,0.0,0.0,0.0,0.0,0.0,0.0,0.0,-1.4435,-1.2959,-1.1491,-1.199,-1.2231,-1.2354,-1.4651,-1.6395,-1.7691,-1.8828,0.0,0.0,0.0,0.0,0.0,0.0,0.0,0.0,0.0,0.0,0.0,0.0,0.0,0.0,0.0,0.0,0.0,0.0,0.0,0.0,0.0,0.0,0.0,0.0,0.0,0.0,0.0,0.0,0.0,0.0,0.0,0.0,0.0,0.0,0.0,0.0,0.0,0.0,0.0,-1.916,-1.8809,-1.7862,-1.8488,-1.8828,0.0,0.0,0.0,0.0,0.0,0.0,0.0,0.0,0.0,-1.4133,-1.4964,-1.5258,-1.4939,-1.5442,-1.5766,-1.5905,-1.6169,-1.6554,-1.7036,-1.7036,-1.7283,-1.7708,-1.7708,-1.7864,-1.8133,-1.7856,-1.8134,-1.8735,0.0,0.0,0.0,0.0,-1.7527,-1.6878,0.0,0.0,0.0,0.0,0.0,0.0,0.0,0.0,0.0,0.0,0.0,0.0,0.0,0.0,0.0,-1.861,0.0,0.0,0.0,0.0,0.0,0.0,0.0,0.0,0.0,0.0,0.0,0.0,-1.2722,-1.1416,-0.9606,-1.0184,-1.0481,-1.0647,-1.26,-1.4709,-1.6902,-1.8331,-1.9434,0.0,0.0,0.0,0.0,0.0,0.0,0.0,0.0,0.0,0.0,0.0,0.0,0.0,0.0,0.0,0.0,0.0,0.0,0.0,0.0,0.0,0.0,0.0,0.0,0.0,0.0,0.0,0.0,0.0,0.0,0.0,0.0,0.0,0.0,0.0,0.0,0.0,0.0,-1.9371,-1.926,-1.8464,-1.9039,-1.9393,0.0,0.0,0.0,0.0,0.0,0.0,-1.4778,-1.5288,-1.5077,-1.395,-1.5091,-1.5412,-1.4735,-1.5579,-1.6028,-1.6126,-1.6664,-1.7107,-1.7491,-1.7693,-1.7899,-1.8143,-1.8339,-1.8538,-1.8715,-1.8411,-1.8566,-1.8985,-1.8796,-1.8621,-1.8457,-1.8014,-1.7458,-1.6912,0.0,0.0,0.0,0.0,0.0,0.0,0.0,0.0,0.0,0.0,0.0,0.0,0.0,0.0,-1.8071,-1.8223,-1.7557,-1.7551,0.0,0.0,0.0,0.0,0.0,0.0,0.0,0.0,0.0,-1.3231,-1.1589,-1.0392,-0.9599,-0.9322,-0.9256,-0.9471,-1.1215,-1.3091,-1.505,-1.7046,-1.8213,-1.8763,0.0,0.0,0.0,0.0,0.0,0.0,0.0,0.0,0.0,0.0,0.0,0.0,0.0,0.0,0.0,0.0,0.0,0.0,0.0,0.0,0.0,0.0,0.0,0.0,0.0,0.0,0.0,0.0,0.0,0.0,0.0,0.0,0.0,0.0,0.0,0.0,0.0,0.0,0.0,-1.7212,-1.7736,0.0,0.0,0.0,0.0,-1.6816,-1.6336,-1.5717,-1.4847,-1.5297,-1.5162,-1.4194,-1.5046,-1.5805,-1.6378,-1.6451,-1.6816,-1.7491,-1.7479,-1.7748,-1.8248,-1.8248,-1.8246,-1.8226,-1.8989,-1.9061,-1.8621,-1.8713,-1.9304,-2.0111,-2.0111,-1.9795,-1.9339,-1.9318,-1.8516,-1.7373,0.0,0.0,0.0,0.0,0.0,0.0,0.0,0.0,0.0,0.0,0.0,0.0,0.0,-1.8322,-1.8028,-1.8419,-1.731,-1.6941,-1.7771,0.0,0.0,0.0,0.0,0.0,0.0,0.0,-1.3942,-1.2171,-1.0351,-0.9263,-0.8819,-0.8429,-0.8589,-0.9248,-1.1122,-1.254,-1.3681,-1.6256,-1.7807,-1.861,-1.956,-1.9993,0.0,0.0,0.0,0.0,0.0,0.0,0.0,0.0,0.0,0.0,0.0,0.0,0.0,0.0,0.0,0.0,0.0,0.0,0.0,0.0,0.0,0.0,0.0,0.0,0.0,0.0,0.0,0.0,0.0,0.0,0.0,0.0,0.0,0.0,0.0,0.0,0.0,-1.9464,-1.9507,0.0,-1.8993,-1.8723,-1.8235,-1.7403,-1.7369,-1.6937,-1.5956,-1.6522,-1.6629,-1.608,-1.6673,-1.7149,-1.747,-1.747,-1.7706,-1.8177,-1.8324,-1.8603,-1.9017,-1.9225,-1.9304,-1.9307,-1.9637,-1.9729,-1.9623,-1.9673,-1.9849,-2.0004,-1.9266,-1.9198,-1.9472,-1.9044,-1.8591,-1.811,0.0,0.0,0.0,0.0,0.0,0.0,0.0,0.0,0.0,0.0,0.0,-1.893,-1.8745,-1.8159,-1.792,-1.8288,-1.7111,-1.6699,-1.7599,0.0,0.0,0.0,0.0,0.0,0.0,-1.4916,-1.3536,-1.197,-1.0529,-0.9708,-0.9403,-0.8767,-0.8965,-0.9903,-1.133,-1.2394,-1.3274,-1.5759,-1.7367,-1.8276,-1.9237,-1.9831,-2.0087,0.0,0.0,0.0,0.0,0.0,0.0,0.0,0.0,0.0,0.0,0.0,0.0,0.0,0.0,0.0,0.0,0.0,0.0,0.0,0.0,0.0,0.0,0.0,0.0,0.0,0.0,0.0,0.0,0.0,0.0,0.0,0.0,0.0,0.0,-1.9995,-2.0049,-2.1083,-2.096,-2.0636,-2.0298,-1.9721,-1.8968,-1.8041,-1.8081,-1.7828,-1.7053,-1.7606,-1.7834,-1.7607,-1.8025,-1.836,-1.8537,-1.8526,-1.867,-1.897,-1.9139,-1.9374,-1.9644,-1.9899,-1.9877,-1.9678,-1.9969,-2.0003,-1.9861,-1.9848,-1.9967,-2.0087,-1.9315,-1.9334,-1.9754,-1.9298,-1.9114,-1.9007,0.0,0.0,0.0,0.0,0.0,0.0,0.0,0.0,0.0,0.0,-1.8477,-1.8379,-1.8217,-1.7932,-1.7781,-1.7822,-1.698,-1.6929,-1.8098,-1.7454,0.0,0.0,0.0,0.0,-1.5266,-1.4863,-1.4042,-1.2753,-1.2189,-1.1773,-1.1434,-1.0372,-1.0401,-1.1361,-1.1791,-1.2608,-1.3819,-1.5562,-1.681,-1.7655,-1.855,-1.9497,-2.0396,0.0,0.0,0.0,0.0,0.0,0.0,0.0,0.0,0.0,0.0,0.0,0.0,0.0,0.0,0.0,0.0,0.0,0.0,0.0,0.0,0.0,0.0,0.0,0.0,0.0,0.0,0.0,0.0,0.0,0.0,0.0,0.0,0.0,-2.0664,-2.0609,-2.0756,-2.1746,-2.1743,-2.1357,-2.0535,-2.0238,-1.9665,-1.8605,-1.8414,-1.8252,-1.8075,-1.8427,-1.8637,-1.8638,-1.9022,-1.9354,-1.9608,-1.9545,-1.9645,-1.9915,-1.9909,-1.9973,-2.0104,-2.0164,-1.9854,-1.9262,-1.9994,-1.9901,-1.9233,-1.9179,-1.968,-2.048,-2.0398,-2.0297,-2.022,-2.022,-2.0113,-1.9964,0.0,0.0,0.0,0.0,0.0,0.0,0.0,0.0,0.0,0.0,-1.9028,-1.9155,-1.8481,-1.8902,-1.8994,-1.8424,-1.7614,-1.7287,-1.7671,0.0,0.0,0.0,0.0,0.0,-1.5647,-1.4637,-1.4034,-1.3859,-1.2972,-1.2651,-1.283,-1.1948,-1.1761,-1.2197,-1.2995,-1.3534,-1.3975,-1.5817,-1.6728,-1.7068,-1.8474,-1.9596,-2.04,0.0,0.0,0.0,0.0,0.0,0.0,0.0,0.0,0.0,0.0,0.0,0.0,0.0,0.0,0.0,0.0,0.0,0.0,0.0,0.0,0.0,0.0,0.0,0.0,0.0,0.0,0.0,0.0,0.0,0.0,0.0,-1.9731,-1.9518,-2.061,-2.0504,-2.1002,-2.2809,-2.1782,-2.109,-2.1509,-2.0637,-1.9734,-1.9058,-1.9326,-1.9401,-1.9111,-1.9373,-1.9547,-1.9612,-1.9629,-1.9791,-2.0106,-1.9944,-1.9977,-2.0186,-2.0197,-2.0217,-2.0243,-2.0258,-2.0165,-2.0015,-2.0258,-2.0266,-2.0069,-2.0042,-2.0186,-2.0374,-1.9765,-1.9916,-2.0482,-2.0443,-2.0266,-2.006,0.0,0.0,0.0,0.0,0.0,0.0,0.0,0.0,0.0,0.0,-1.9459,-1.9659,-1.8878,-1.9109,-1.907,-1.8364,-1.7794,-1.7519,-1.7618,0.0,0.0,0.0,0.0,-1.5953,-1.5516,-1.4753,-1.4434,-1.4558,-1.3992,-1.4026,-1.4586,-1.3451,-1.336,-1.4126,-1.4011,-1.4365,-1.5133,-1.6233,-1.7105,-1.7832,-1.8767,-1.9453,-1.9973,-2.0304,-2.0414,-2.0386,-2.0353,-2.0619,-2.1004,-2.1004,0.0,0.0,0.0,0.0,0.0,0.0,0.0,0.0,0.0,0.0,0.0,0.0,0.0,0.0,0.0,0.0,0.0,0.0,0.0,0.0,0.0,0.0,0.0,0.0,-2.0079,-2.0038,-2.1646,-2.1372,-2.1768,-2.3802,-2.3142,-2.261,-2.2825,-2.2106,-2.1232,-2.0281,-2.0356,-2.0247,-1.9737,-2.0145,-2.0429,-2.0458,-2.0418,-2.0477,-2.0676,-2.0192,-2.0018,-2.0122,-2.0123,-2.0153,-2.0218,-2.0257,-2.0255,-2.0269,-2.0322,-2.0327,-2.0286,-2.0326,-2.0369,-2.0304,0.0,0.0,0.0,0.0,-2.0408,-2.0279,0.0,0.0,0.0,0.0,0.0,0.0,0.0,0.0,0.0,0.0,0.0,-1.9921,-1.9137,-1.8866,-1.8488,-1.7814,-1.7672,-1.7667,0.0,0.0,0.0,-1.6559,-1.6343,-1.5919,-1.5146,-1.5057,-1.5005,-1.4952,-1.4993,-1.5486,-1.6306,-1.4877,-1.5047,-1.6508,-1.5074,-1.5349,-1.6841,-1.6949,-1.7791,-1.9073,-1.9254,-1.9371,-1.9508,-2.0213,-2.0488,-2.0486,-2.0424,-2.0427,-2.0465,-2.0465,0.0,0.0,0.0,0.0,0.0,0.0,0.0,0.0,0.0,0.0,0.0,0.0,0.0,0.0,0.0,0.0,0.0,0.0,0.0,0.0,0.0,0.0,0.0,0.0,-2.0427,-2.0827,-2.3292,-2.2833,-2.2858,-2.4653,-2.4885,-2.4675,-2.406,-2.3834,-2.3138,-2.1709,-2.1372,-2.0872,-2.0026,-2.0693,0.0,0.0,0.0,-2.1042,-2.1042,-2.0252,-1.9869,-1.9882,-1.9885,-1.9945,-2.0071,-2.0225,-2.0232,-2.0165,-2.0317,-2.0259,-2.0076,-2.0182,-2.0241,-2.0273,-2.036,-2.045,-2.0483,-2.0499,-2.0487,-2.0468,0.0,0.0,0.0,0.0,0.0,0.0,0.0,0.0,0.0,-1.9284,-1.9826,-1.9747,-1.8312,-1.8679,-1.8434,-1.6978,-1.7414,-1.7753,0.0,0.0,-1.6821,-1.6442,-1.5834,-1.5432,-1.5263,-1.5245,-1.5245,-1.5214,-1.5241,-1.5695,-1.6542,-1.6227,-1.6629,-1.7607,-1.7275,-1.7361,-1.7782,-1.8498,-1.8553,-1.8263,-1.9615,-2.0176,-2.0198,-2.0367,-2.0412,-2.043,-2.0403,-2.0845,-2.144,-2.144,-2.1859,-2.2401,-2.2401,0.0,0.0,0.0,0.0,0.0,0.0,0.0,0.0,0.0,0.0,0.0,0.0,0.0,0.0,0.0,0.0,0.0,0.0,0.0,0.0,-2.1969,-2.2106,-2.2668,-2.4327,-2.3965,-2.3941,-2.5069,-2.3959,-2.3359,-2.4011,-2.3248,-2.2367,-2.1578,-2.1918,-2.1494,-2.0004,-2.067,-2.0783,-2.0064,-1.9963,-1.9963,-2.007,-1.9806,-1.9707,-1.9823,-1.9821,0.0,-1.988,-2.0539,-2.0497,-1.9915,-2.0585,-2.049,-1.9862,-1.9877,-1.9962,-2.0078,-2.0308,-2.0413,-2.0412,-2.0413,-2.0383,-2.0348,0.0,0.0,0.0,0.0,0.0,0.0,0.0,0.0,0.0,0.0,-2.0145,-2.0091,-1.9239,-1.9066,-1.8683,-1.7914,-1.7767,0.0,0.0,-1.6999,-1.631,-1.6251,-1.5543,-1.5168,-1.5208,-1.5192,-1.5238,-1.5299,-1.5292,-1.5976,-1.7245,-1.6832,-1.732,-1.8526,-1.8134,-1.8183,-1.8629,-1.9064,-1.9184,-1.9177,-2.0007,-2.035,-2.0358,-2.0354,-2.0376,-2.0402,-2.0405,-2.0689,-2.1037,-2.1017,-2.1298,-2.1636,-2.1603,-2.1299,-2.1029,0.0,0.0,0.0,0.0,0.0,0.0,0.0,0.0,0.0,0.0,0.0,0.0,0.0,0.0,-2.0401,0.0,0.0,-2.2016,-2.239,-2.2555,-2.3155,-2.4592,-2.4255,-2.4148,-2.495,-2.4284,-2.3947,-2.4457,-2.395,-2.3315,-2.26,-2.2745,-2.2289,-2.1022,-2.1662,-2.1668,-2.0829,-2.0741,-2.0504,-2.0159,-1.9685,-1.9481,-1.954,-1.954,-1.9612,-1.9707,-2.0107,-2.0069,-1.9726,-2.0207,-2.0138,-1.9707,-1.9774,-1.9836,-1.9912,-2.0059,-2.0203,-2.034,-2.0269,-2.0283,-2.0346,0.0,0.0,0.0,0.0,0.0,0.0,0.0,0.0,0.0,0.0,-2.0468,-2.0408,-2.0188,-1.9423,-1.8967,0.0,0.0,0.0,0.0,-1.6948,-1.6062,-1.5921,-1.5395,-1.5044,-1.4948,-1.4998,-1.5158,-1.542,-1.5458,-1.6361,-1.8091,-1.7424,-1.7959,-1.9411,-1.8921,-1.9082,-1.9699,-1.9688,-2.0027,-2.0534,-2.0361,-2.0312,-2.0312,-2.0312,-2.0331,-2.0349,-2.0208,-2.015,-2.0154,-2.0095,-2.0211,-2.0411,-2.0527,-2.0573,-2.0667,-2.0959,-2.0855,0.0,0.0,0.0,0.0,0.0,0.0,0.0,0.0,0.0,-2.109,-2.059,-2.0707,-2.0784,-2.0339,-2.1446,-2.2456,-2.2505,-2.2815,-2.3417,-2.4514,-2.4192,-2.3995,-2.4447,-2.4683,-2.4794,-2.4709,-2.4634,-2.4238,-2.3403,-2.3319,-2.2844,-2.1815,-2.2429,-2.241,-2.1496,-2.1606,-2.1312,-2.0503,-1.9827,-1.9497,-1.9528,-1.935,-1.9353,-1.956,-1.9708,-1.969,-1.9555,-1.9663,-1.9638,-1.9574,-1.9857,-1.9988,-1.9988,-1.9988,-2.0167,-2.0401,-2.0144,-2.0146,-2.0284,0.0,0.0,0.0,0.0,0.0,0.0,0.0,0.0,0.0,0.0,0.0,0.0,0.0,0.0,0.0,0.0,0.0,0.0,-1.7978,-1.6602,-1.5618,-1.5297,-1.5392,-1.5117,-1.441,-1.4615,-1.5108,-1.5838,-1.6017,-1.7024,-1.8789,-1.8705,-1.9237,-2.0308,-2.0975,-2.1342,-2.1429,-2.1415,-2.1424,-2.1391,-2.0611,-2.0312,-2.0312,-2.0312,-2.0312,-2.0223,-1.9503,-1.9275,-1.9339,-1.9338,-1.9758,-2.0446,-2.1202,-2.1426,-2.1671,-2.3215,0.0,-2.1646,-2.2526,-2.2184,-2.1742,-2.2261,-2.2912,-2.3507,0.0,0.0,-2.2773,-2.2893,-2.189,-2.1022,-2.1127,-2.1934,-2.258,-2.2591,-2.3681,-2.4457,-2.4196,-2.4062,-2.3842,-2.3437,-2.4081,-2.4388,-2.3952,-2.3848,-2.3436,-2.251,-2.2912,-2.2545,-2.1004,-2.1697,-2.1551,-2.0336,-2.0968,-2.108,-2.0503,-2.0243,-2.0188,-2.0356,-1.9462,-1.9134,-1.9372,-2.0073,-2.0018,-1.9335,-1.935,-1.935,-1.9405,-2.0303,-2.069,-2.069,-2.069,-2.0776,-2.0826,-2.0096,-1.9843,-1.9866,0.0,0.0,0.0,0.0,0.0,0.0,0.0,0.0,0.0,0.0,0.0,0.0,0.0,0.0,0.0,0.0,0.0,0.0,-1.75,-1.5526,-1.4438,-1.4613,-1.414,-1.3913,-1.3955,-1.4059,-1.4538,-1.5373,-1.5774,-1.683,-1.8503,-1.8659,-1.9534,-2.0991,-2.1403,-2.1886,-2.24,-2.2395,-2.2287,-2.2086,-2.1723,-2.1224,-2.0724,-2.0795,-2.0203,-1.9354,-1.9676,-1.9449,0.0,0.0,-1.9182,-1.942,-1.9806,-1.9883,-2.0218,-2.2002,-2.2061,0.0,-2.3262,-2.3365,-2.3103,-2.3266,-2.379,-2.4049,-2.3216,-2.3026,-2.2939,-2.2757,-2.2641,-2.2459,-2.2062,-2.3159,-2.3782,0.0,-2.3705,-2.4284,-2.3643,-2.3656,-2.3509,-2.2979,-2.3383,-2.3666,-2.3466,-2.3428,-2.3254,-2.2856,-2.3064,-2.2905,-2.2228,-2.2511,-2.2238,-2.1242,-2.1714,-2.1673,-2.0971,-2.1079,-2.086,-2.0316,-1.9902,-1.9416,-1.8913,-1.9255,-1.9219,-1.8931,-1.9363,-1.9525,-1.9596,-2.0444,-2.0916,-2.104,-2.0583,-2.0448,-2.0465,-1.9884,-1.9726,-1.979,0.0,0.0,0.0,0.0,0.0,0.0,0.0,0.0,0.0,0.0,0.0,0.0,0.0,0.0,0.0,0.0,0.0,0.0,0.0,-1.5117,-1.3866,-1.3653,-1.3059,-1.2796,-1.2993,-1.3227,-1.3905,-1.5037,-1.5556,-1.6741,-1.8485,-1.8889,-1.989,-2.1311,-2.1827,-2.2439,-2.3061,-2.3121,-2.3002,-2.2745,-2.2334,-2.1696,-2.0947,-2.0611,-1.969,-1.8701,-1.9562,-1.9247,0.0,0.0,-1.8735,-1.8696,-1.893,-1.9009,-1.9314,-2.0853,-2.1537,-2.2092,-2.3436,-2.3959,-2.4083,-2.3945,-2.4391,-2.4509,-2.309,-2.3143,-2.3421,-2.3135,-2.3423,-2.3574,-2.3066,-2.3921,-2.4294,-2.3011,-2.3437,-2.376,-2.3171,-2.31,-2.297,-2.2634,-2.2789,-2.2958,-2.2958,-2.3014,-2.3021,-2.2958,-2.2958,-2.2958,-2.2958,-2.2958,-2.2614,-2.189,-2.2313,-2.226,-2.1652,-2.171,-2.1332,-2.0535,-2.0152,-1.952,-1.8715,-1.8715,-1.8822,-1.9034,-1.9507,-1.9838,-2.0065,-2.0823,-2.127,-2.1404,-2.0634,-2.0349,-2.0317,-1.9593,-1.9387,-1.9494,0.0,0.0,0.0,0.0,0.0,0.0,0.0,0.0,0.0,0.0,0.0,0.0,0.0,0.0,0.0,0.0,0.0,0.0,0.0,-1.592,-1.441,-1.2361,-1.2614,-1.2291,-1.1212,-1.2018,-1.3306,-1.5098,-1.564,-1.7006,-1.9179,-1.9966,-2.0567,-2.1092,-2.2701,-2.3455,-2.3488,-2.3688,-2.3663,-2.3337,-2.1901,-2.1214,-2.0834,-1.9273,-1.8602,-1.8534,-1.8764,0.0,0.0,-1.824,-1.8512,-1.8655,-1.9507,-1.9771,0.0,-2.0838,-2.1801,-2.2603,-2.2708,-2.3464,-2.4155,-2.3961,-2.4501,-2.5026,-2.4772,-2.4723,-2.4799,-2.4974,-2.4374,-2.3879,-2.4101,-2.3825,-2.3441,-2.3045,-2.3075,-2.3053,-2.2849,-2.2432,-2.2186,-2.2293,-2.2338,-2.2338,0.0,-2.2563,-2.2599,-2.2349,-2.2338,-2.2338,-2.2338,-2.2338,-2.2085,-2.1529,-2.2279,-2.2617,-2.2461,-2.1884,-2.1524,-2.135,-1.9988,-1.9207,-1.9002,-1.9002,-1.9381,-2.0027,-1.9797,-2.0117,-2.0833,-2.1635,-2.1975,-2.1905,-2.1153,-2.0873,-2.0696,-1.919,-1.8642,-1.8748,0.0,0.0,0.0,0.0,0.0,0.0,0.0,0.0,0.0,0.0,0.0,0.0,0.0,0.0,0.0,0.0,0.0,0.0,0.0,-1.5384,-1.3715,-1.2517,-1.1394,-1.0698,-1.0442,-1.1329,-1.2341,-1.3436,-1.487,-1.634,-1.7811,-1.854,-1.9417,-2.0455,-2.1507,-2.2347,-2.3015,-2.3549,-2.3672,-2.3419,-2.2423,-2.188,-2.1514,-2.0071,-1.9385,-1.9181,0.0,0.0,0.0,-1.8129,-1.8202,-1.8249,-1.8378,-1.8531,-1.9077,-2.111,-2.2508,-2.3531,-2.4128,-2.4216,-2.4278,-2.4819,-2.5022,-2.5084,-2.508,-2.4961,-2.4913,-2.512,-2.4522,-2.3904,-2.3823,-2.349,-2.3031,-2.2413,-2.2382,-2.2354,-2.2034,-2.1861,-2.1774,-2.1823,-2.2106,0.0,0.0,0.0,0.0,-2.231,-2.231,-2.231,-2.231,-2.231,-2.2203,-2.2041,-2.2693,-2.3018,-2.2954,-2.3192,-2.2587,-2.1115,-1.9703,-1.9085,-1.9222,-1.9517,-1.9808,-2.0068,-2.0508,-2.0838,-2.1129,-2.1885,-2.2289,-2.2394,-2.1603,-2.133,-2.1301,-2.0726,-2.0085,-1.9545,0.0,0.0,0.0,0.0,0.0,0.0,0.0,0.0,0.0,0.0,0.0,0.0,0.0,0.0,0.0,0.0,0.0,0.0,0.0,0.0,-1.4286,-1.2751,-1.173,-1.0939,-1.0427,-1.1549,-1.2476,-1.3162,-1.4393,-1.5734,-1.7146,-1.7757,-1.8673,-1.9863,-2.0858,-2.1752,-2.2535,-2.3202,-2.3298,-2.2952,-2.2556,-2.2049,-2.1489,-2.0305,-1.9923,0.0,0.0,0.0,-1.8757,-1.845,-1.8395,-1.8401,-1.8299,-1.8395,-1.8915,-2.0893,-2.2257,-2.336,-2.4219,-2.4466,-2.4599,-2.5208,-2.5273,-2.523,-2.5255,-2.5154,-2.5091,-2.5235,-2.4841,-2.4316,-2.3792,-2.3606,-2.3125,-2.192,-2.1608,-2.144,-2.1246,-2.1098,-2.1182,-2.1549,-2.2003,-2.2349,0.0,0.0,0.0,-2.231,-2.231,-2.231,-2.231,-2.231,-2.231,-2.231,-2.2686,-2.2915,-2.3021,-2.3341,-2.2745,-2.1207,-1.9842,-1.9428,-1.9887,-2.0065,-2.0296,-2.0543,-2.101,-2.1346,-2.1617,-2.2107,-2.2398,-2.2495,-2.1687,-2.1421,-2.1412,-2.1087,-2.0739,-2.0416,0.0,0.0,0.0,0.0,0.0,0.0,0.0,0.0,0.0,0.0,0.0,0.0,0.0,0.0,0.0,0.0,0.0,0.0,0.0,0.0,0.0,-1.312,-1.3463,-1.2894,-1.1137,-1.2554,-1.3629,-1.4195,-1.4333,-1.5352,-1.7181,-1.7636,-1.834,-1.9278,-2.0709,-2.1581,-2.2038,-2.2576,-2.2541,-2.2109,-2.2207,-2.1736,-2.0862,-1.9963,0.0,0.0,0.0,0.0,0.0,-1.9183,-1.9056,-1.9107,-1.9301,-1.9418,-1.9638,-2.0409,-2.134,-2.2309,-2.3148,-2.4214,-2.5091,-2.5071,-2.524,-2.5375,-2.534,-2.5317,-2.5311,-2.5331,-2.5275,-2.4956,0.0,0.0,-2.3543,-2.1569,-2.0842,-2.0537,-2.0545,-2.024,-2.0392,0.0,0.0,0.0,0.0,0.0,0.0,-2.2377,-2.2349,-2.2338,-2.2321,-2.2338,-2.2338,-2.2321,-2.2338,-2.2463,-2.2746,-2.2456,-2.2106,-2.1666,-2.042,-2.023,-2.0962,-2.068,-2.0932,-2.1581,-2.1352,-2.1661,-2.2338,-2.231,-2.231,-2.2243,-2.1515,-2.1245,-2.1143,-2.0373,-2.0576,-2.1271,0.0,0.0,0.0,0.0,0.0,0.0,0.0,0.0,0.0,0.0,0.0,0.0,0.0,0.0,0.0,0.0,0.0,0.0,0.0,0.0,0.0,0.0,0.0,0.0,0.0,0.0,0.0,0.0,0.0,-1.6113,-1.6813,-1.7003,-1.7458,-1.8217,-1.8899,-1.9697,-2.0565,-2.1327,-2.185,-2.2192,0.0,-2.167,-2.1789,0.0,0.0,0.0,0.0,0.0,0.0,0.0,0.0,-1.992,-2.0142,-2.1051,-2.2132,-2.2483,-2.3177,-2.3929,-2.4309,-2.4643,-2.4879,-2.4879,-2.5023,-2.5023,-2.4486,-2.4914,-2.529,-2.4694,-2.4407,-2.414,-2.3755,0.0,0.0,-2.1904,-2.1285,0.0,-2.0876,-2.0495,0.0,-2.107,0.0,-2.2022,-2.2643,-2.2695,0.0,0.0,-2.2982,-2.2865,-2.2625,-2.2815,-2.2857,-2.2599,-2.2857,-2.3111,-2.3437,-2.2816,-2.255,-2.2618,-2.1861,-2.1708,-2.2108,-2.2379,-2.2594,-2.2764,-2.2461,-2.241,-2.2573,-2.2388,-2.231,-2.2265,-2.1711,-2.1719,-2.1961,-2.1399,-2.1551,-2.2023,0.0,0.0,0.0,0.0,0.0,0.0,0.0,0.0,0.0,0.0,0.0,0.0,0.0,0.0,0.0,0.0,0.0,0.0,0.0,0.0,0.0,0.0,0.0,0.0,0.0,0.0,0.0,0.0,0.0,0.0,0.0,-1.7549,-1.8008,-1.9018,-1.9525,-2.0201,-2.0967,-2.1394,0.0,0.0,0.0,0.0,0.0,0.0,0.0,0.0,0.0,0.0,0.0,0.0,0.0,-2.0228,-2.0436,-2.1418,-2.2556,-2.3027,-2.3487,-2.3946,-2.4514,-2.467,-2.4588,-2.4293,-2.4321,-2.4289,-2.3872,-2.4216,-2.4595,-2.4534,-2.441,-2.4128,-2.3555,-2.3088,-2.2482,0.0,0.0,0.0,-2.0511,-2.0159,-2.017,0.0,-2.1368,0.0,-2.283,-2.2923,-2.3171,-2.3726,-2.3419,-2.3117,-2.2923,-2.3093,-2.3117,-2.2923,-2.3093,-2.33,-2.3477,-2.2875,-2.2799,-2.3302,-2.2599,-2.2536,-2.304,-2.315,-2.3189,-2.3165,-2.2848,-2.2695,-2.2669,-2.2398,-2.231,-2.2265,-2.2003,-2.2077,-2.2282,-2.2003,-2.2061,-2.231,0.0,0.0,0.0,0.0,0.0,0.0,0.0,0.0,0.0,0.0,0.0,0.0,0.0,0.0,0.0,0.0,0.0,0.0,0.0,0.0,0.0,0.0,0.0,0.0,0.0,0.0,0.0,0.0,0.0,0.0,0.0,0.0,0.0,0.0,0.0,0.0,0.0,0.0,0.0,0.0,0.0,0.0,0.0,0.0,0.0,0.0,0.0,0.0,0.0,0.0,-2.0022,-2.0355,-2.0514,-2.124,-2.2172,-2.2813,-2.307,-2.3327,-2.4128,-2.431,-2.4139,-2.3445,-2.3291,-2.3304,-2.3304,-2.3393,-2.3709,-2.4483,-2.47,-2.449,-2.3612,-2.3381,-2.2865,-2.1448,0.0,-2.0029,-2.0095,-1.9735,-1.9858,-2.0959,-2.1337,-2.1943,-2.3093,-2.3189,-2.3556,-2.4425,-2.3806,-2.3356,-2.3338,-2.3383,-2.3383,-2.3338,-2.3356,-2.3333,-2.331,-2.2923,-2.3084,-2.3756,-2.3066,-2.3084,-2.3774,-2.3477,-2.3346,-2.3323,-2.2923,-2.2772,-2.2746,-2.2426,-2.231,-2.2282,-2.2237,-2.2265,-2.2349,-2.2276,-2.2321,-2.2332,0.0,0.0,0.0,0.0,0.0,0.0,0.0,0.0,0.0,0.0,-2.0312,-2.0312,0.0,0.0,0.0,0.0,0.0,0.0,0.0,0.0,0.0,0.0,0.0,0.0,0.0,0.0,0.0,0.0,0.0,0.0,0.0,0.0,0.0,0.0,0.0,0.0,0.0,0.0,0.0,0.0,0.0,0.0,0.0,0.0,0.0,0.0,0.0,0.0,0.0,0.0,-2.0551,-2.1092,-2.0898,-2.2003,-2.3311,-2.2997,-2.3437,-2.3916,-2.3607,-2.3393,-2.3069,-2.2291,-2.2176,-2.226,-2.2253,-2.2905,0.0,-2.3681,-2.4166,-2.4489,-2.4325,-2.3229,-2.2429,-2.2752,-2.1177,-2.0236,-2.1168,-2.036,-2.0119,0.0,-2.1275,-2.1665,-2.3052,-2.3189,0.0,0.0,-2.4355,-2.4228,-2.4135,-2.4362,-2.4398,-2.4116,-2.421,-2.4137,-2.3871,-2.3892,-2.3985,-2.4113,-2.3985,-2.3985,-2.4113,-2.4036,-2.4016,-2.3996,-2.3392,-2.3117,-2.3069,-2.2535,-2.231,-2.2254,-2.1869,-2.2108,-2.2582,-2.2269,-2.2351,-2.2634,0.0,0.0,0.0,0.0,0.0,0.0,0.0,0.0,-2.0785,-2.0813,-2.0785,-2.065,-2.0342,-2.0312,0.0,0.0,0.0,0.0,0.0,0.0,0.0,0.0,0.0,0.0,0.0,0.0,-2.0508,-2.0489,0.0,0.0,0.0,-2.1611,-2.1956,0.0,0.0,0.0,0.0,0.0,0.0,0.0,0.0,0.0,0.0,0.0,0.0,0.0,0.0,0.0,0.0,0.0,-2.0723,-2.0212,-2.0306,-2.123,-2.2234,-2.1982,-2.2606,-2.3232,-2.2639,-2.2717,-2.2721,-2.1565,-2.1248,-2.1343,-2.1789,0.0,0.0,-2.368,-2.4132,-2.4339,-2.4339,-2.3412,0.0,-2.3136,-2.1525,-2.0464,-2.1178,-2.0219,-1.9909,-2.1133,-2.1118,-2.1576,-2.3052,-2.3189,-2.3602,-2.4572,-2.4654,-2.4636,-2.4561,-2.4708,-2.4723,-2.4576,-2.4617,-2.4588,-2.4435,-2.4373,-2.4357,-2.4357,-2.4266,-2.419,-2.419,-2.419,-2.419,-2.417,-2.35,-2.3189,-2.3141,-2.2561,-2.231,-2.2293,-2.2192,-2.2405,-2.2695,-2.2686,-2.2788,-2.2972,0.0,0.0,0.0,0.0,0.0,0.0,0.0,-2.1369,-2.1281,-2.134,-2.1148,-2.0891,-2.0584,-2.0562,-2.0562,0.0,0.0,0.0,0.0,0.0,0.0,0.0,0.0,0.0,0.0,0.0,0.0,-2.1714,-2.2431,0.0,0.0,0.0,0.0,0.0,-2.4572,-2.4892,0.0,0.0,0.0,0.0,0.0,0.0,0.0,0.0,0.0,0.0,0.0,0.0,0.0,0.0,-2.1047,-1.964,-1.9612,-2.0107,-2.0648,-2.0573,-2.1256,-2.1913,-2.1334,-2.1789,-2.2099,-2.0689,-2.0368,-2.0637,-2.1532,-2.1768,0.0,-2.3859,-2.419,-2.419,-2.419,-2.3587,-2.3127,0.0,-2.179,-2.0784,-2.1299,-2.0241,-1.9857,0.0,-2.1055,0.0,-2.2937,-2.3165,0.0,-2.4666,-2.4799,-2.4855,-2.4896,-2.4915,-2.4915,-2.4915,-2.4855,-2.4842,-2.4842,-2.4623,-2.4495,-2.4495,-2.4303,-2.419,-2.419,-2.419,-2.419,-2.417,-2.35,-2.3189,-2.3159,-2.2607,-2.2388,-2.2398,-2.2704,-2.2848,-2.2947,-2.3212,-2.3323,-2.3323,0.0,0.0,0.0,0.0,0.0,0.0,0.0,-2.1477,-2.1468,-2.1487,-2.0834,-2.0642,-2.1331,-2.1389,-2.1389,0.0,0.0,0.0,0.0,0.0,0.0,0.0,0.0,0.0,0.0,0.0,0.0,-2.1795,-2.2656,0.0,0.0,0.0,0.0,0.0,0.0,-2.5166,-2.5146,0.0,0.0,0.0,0.0,0.0,0.0,0.0,0.0,0.0,0.0,0.0,0.0,0.0,0.0,-2.0855,-1.9416,-1.9266,-1.958,-1.9199,0.0,0.0,-1.9664,-2.007,-2.0337,-1.9103,-1.947,-2.0372,-2.1242,0.0,-2.2262,-2.3859,-2.419,-2.419,-2.419,-2.3355,-2.2862,-2.3563,0.0,-2.1341,-2.2392,-2.1175,-2.0538,-2.146,0.0,0.0,-2.2565,-2.2986,-2.3577,-2.4459,-2.4804,-2.5065,-2.5243,-2.5253,-2.5253,-2.5253,-2.5077,-2.4986,-2.4986,-2.4648,-2.4495,-2.4495,-2.4303,-2.419,-2.419,-2.419,-2.419,-2.417,-2.35,-2.3189,-2.3165,-2.2797,-2.2643,-2.2712,-2.3021,-2.3346,-2.361,-2.3649,-2.3649,-2.3649,0.0,0.0,0.0,0.0,0.0,0.0,0.0,-2.2067,-2.1512,-2.2096,-2.1847,-2.155,-2.1398,-2.2392,-2.2658,0.0,0.0,0.0,0.0,0.0,0.0,0.0,0.0,0.0,0.0,0.0,-2.2062,-2.252,-2.334,0.0,0.0,0.0,0.0,0.0,0.0,-2.5391,-2.5427,0.0,0.0,0.0,0.0,0.0,0.0,0.0,0.0,0.0,0.0,0.0,0.0,0.0,0.0,0.0,-2.0907,-1.9908,0.0,0.0,-1.7895,-1.8477,-1.7804,-1.8313,-1.8892,-1.8409,-1.8608,-1.9349,-2.1021,0.0,-2.2063,-2.384,-2.4303,-2.4375,-2.4375,-2.386,-2.3523,-2.3833,0.0,0.0,-2.2268,-2.1394,-2.0858,-2.1179,-2.1306,0.0,0.0,0.0,-2.3602,-2.4604,-2.4872,-2.5088,-2.5303,-2.5303,-2.5303,-2.5303,-2.5224,-2.5173,-2.5173,-2.4924,-2.4766,-2.4685,-2.4478,-2.4321,-2.419,-2.419,-2.419,-2.417,-2.3692,-2.35,-2.3459,-2.2923,-2.2822,-2.3021,-2.3141,-2.3392,-2.3714,-2.3917,-2.3996,-2.3996,0.0,0.0,0.0,0.0,0.0,-2.2081,-2.3841,-2.2499,-2.1722,-2.2929,-2.2373,-2.1827,-2.1771,-2.2949,-2.3263,-2.2053,0.0,0.0,0.0,0.0,0.0,0.0,0.0,0.0,0.0,0.0,0.0,-2.2978,-2.4058,-2.4572,0.0,0.0,-2.5187,-2.4673,0.0,0.0,0.0,0.0,0.0,0.0,0.0,0.0,0.0,0.0,0.0,0.0,0.0,0.0,0.0,0.0,0.0,0.0,0.0,0.0,0.0,0.0,-1.6849,-1.6939,-1.6253,-1.6781,-1.751,-1.7539,-1.7844,-1.8642,0.0,0.0,-2.1895,-2.3687,-2.4284,-2.4495,-2.4495,-2.4318,-2.4173,-2.4227,0.0,-2.2597,-2.2631,-2.1988,-2.1454,-2.1464,0.0,-2.1938,-2.241,-2.3129,-2.3929,-2.4741,-2.4891,-2.5041,-2.5293,-2.5303,-2.5303,-2.5303,-2.5303,-2.5303,-2.5303,-2.5099,-2.4949,-2.4855,-2.4623,-2.4428,-2.4284,-2.4228,-2.419,-2.417,-2.3855,-2.3692,-2.3671,-2.3189,-2.3141,-2.3369,-2.3477,-2.3674,-2.3961,-2.421,-2.4339,-2.4375,0.0,0.0,0.0,0.0,0.0,0.0,0.0,-2.262,-2.2139,-2.3956,-2.1927,-2.0985,-2.2695,-2.2896,-2.2887,-2.2793,0.0,0.0,0.0,0.0,0.0,0.0,0.0,0.0,0.0,0.0,0.0,-2.2901,-2.463,-2.5447,-2.539,-2.5409,-2.5428,-2.5486,0.0,0.0,0.0,0.0,0.0,0.0,0.0,0.0,0.0,0.0,0.0,0.0,0.0,0.0,0.0,0.0,0.0,0.0,0.0,0.0,0.0,0.0,-1.6702,-1.5519,-1.5139,-1.5558,-1.6155,-1.6194,-1.7203,-1.8518,0.0,-2.0727,-2.1856,-2.3389,-2.4136,-2.4495,-2.4495,-2.4495,-2.4559,-2.476,-2.4155,0.0,-2.3949,-2.3168,-2.2582,0.0,0.0,-2.241,-2.321,-2.4008,-2.4575,-2.479,-2.4804,-2.4955,-2.5274,-2.5303,-2.5303,-2.5303,-2.5303,-2.5303,-2.5303,-2.5099,-2.501,-2.4979,-2.4648,-2.4495,-2.4495,-2.4284,-2.419,-2.417,-2.3855,-2.3692,-2.3692,-2.3692,-2.3692,-2.3714,-2.4074,-2.4303,-2.4495,-2.4495,-2.4623,-2.479,0.0,0.0,0.0,0.0,0.0,0.0,0.0,-2.2235,-2.1716,-2.2342,-2.2218,-2.2059,-2.2023,-2.3025,-2.3706,-2.3687,0.0,0.0,0.0,0.0,0.0,0.0,0.0,0.0,0.0,0.0,0.0,0.0,0.0,-2.4504,-2.4304,-2.4304,-2.4549,-2.5022,-2.5168,-2.5266,0.0,0.0,0.0,0.0,0.0,0.0,0.0,0.0,0.0,0.0,0.0,0.0,0.0,0.0,0.0,0.0,0.0,0.0,0.0,0.0,0.0,0.0,-1.5271,-1.5008,-1.5122,-1.5665,-1.6521,-1.7738,-1.9579,-2.0573,-2.1621,-2.3346,-2.4229,-2.47,-2.47,-2.478,-2.4858,-2.4943,-2.4655,0.0,0.0,0.0,0.0,-2.3075,-2.2788,-2.2935,0.0,0.0,-2.4334,-2.4775,-2.4877,-2.5041,-2.5293,-2.5303,-2.5303,-2.5303,-2.5303,-2.5303,-2.5303,-2.5243,-2.5141,-2.501,-2.4898,-2.4723,-2.4495,-2.4426,-2.4339,-2.419,-2.4094,-2.4036,-2.4016,-2.3795,-2.3921,-2.4229,-2.4099,-2.4317,-2.47,-2.47,-2.4746,-2.4804,0.0,0.0,0.0,0.0,0.0,0.0,0.0,-2.2062,-2.1765,-2.2478,-2.248,-2.2335,-2.2119,-2.3009,-2.3639,-2.361,0.0,0.0,0.0,0.0,0.0,0.0,0.0,0.0,0.0,0.0,0.0,0.0,0.0,0.0,0.0,0.0,-2.3625,-2.4308,-2.4445,0.0,0.0,0.0,0.0,0.0,0.0,0.0,-2.5668,0.0,0.0,0.0,0.0,0.0,0.0,0.0,0.0,0.0,0.0,0.0,0.0,0.0,-1.9529,-1.7864,0.0,-1.5271,-1.5212,-1.5717,-1.6514,0.0,0.0,-2.0639,-2.1836,-2.3307,-2.4263,-2.4818,-2.4869,-2.4937,-2.5022,-2.5099,-2.4947,-2.4737,0.0,0.0,0.0,-2.3577,0.0,0.0,0.0,-2.4265,-2.4507,-2.485,-2.4949,-2.5088,-2.5303,-2.5303,-2.5303,-2.5303,-2.5303,-2.5303,-2.5303,-2.5303,-2.5243,-2.5111,-2.5034,-2.4898,-2.4678,-2.4639,-2.4526,-2.4428,-2.4428,-2.4428,0.0,-2.4211,-2.4318,-2.4591,-2.4385,-2.4529,-2.4883,-2.4883,-2.4923,-2.4994,0.0,0.0,0.0,0.0,0.0,0.0,0.0,0.0,0.0,-2.3717,-2.2569,-2.1901,-2.2711,-2.2861,-2.291,-2.2889,0.0,0.0,0.0,0.0,0.0,0.0,0.0,0.0,0.0,0.0,0.0,-2.2782,-2.3535,-2.3416,-2.244,0.0,0.0,-2.3441,-2.3455,0.0,0.0,0.0,0.0,0.0,0.0,0.0,0.0,0.0,0.0,0.0,0.0,0.0,0.0,0.0,0.0,0.0,0.0,0.0,0.0,0.0,0.0,0.0,0.0,-1.636,-1.6273,-1.6355,-1.7221,-1.8326,0.0,0.0,0.0,0.0,0.0,-2.4874,-2.4974,-2.501,-2.5107,-2.5283,-2.5057,0.0,0.0,-2.4767,0.0,0.0,-2.4425,0.0,-2.4288,-2.4702,-2.4996,-2.4998,-2.501,-2.5099,-2.5284,-2.5303,-2.5303,-2.5303,-2.5303,-2.5303,-2.5303,-2.5303,-2.5303,-2.5303,-2.5111,-2.5022,-2.4998,-2.4864,-2.4818,-2.4804,-2.4804,-2.4804,-2.4804,-2.4804,-2.4804,-2.4799,-2.4799,-2.4891,-2.5022,-2.5022,-2.5141,-2.5303,0.0,0.0,0.0,0.0,0.0,0.0,0.0,0.0,0.0,0.0,-2.1449,-2.1677,-2.188,-2.2506,-2.314,0.0,0.0,0.0,0.0,0.0,0.0,0.0,0.0,0.0,0.0,0.0,0.0,-2.1752,-2.259,-2.23,-2.0916,-2.1078,0.0,0.0,0.0,0.0,0.0,0.0,0.0,0.0,0.0,0.0,0.0,0.0,0.0,0.0,-2.4337,-2.3938,0.0,0.0,0.0,0.0,0.0,0.0,0.0,0.0,-2.055,-1.9912,-1.8984,0.0,-1.7897,-1.807,-1.9221,-2.0535,0.0,0.0,0.0,0.0,0.0,0.0,0.0,0.0,0.0,-2.5437,0.0,-2.5221,-2.5098,-2.467,0.0,-2.348,-2.3995,-2.4251,-2.3817,-2.4505,-2.5014,-2.5057,-2.5168,-2.5253,-2.5303,-2.5303,-2.5303,-2.5303,-2.5303,-2.5303,-2.5303,-2.5303,-2.5303,-2.5303,-2.5253,-2.5152,-2.501,-2.4962,-2.4891,-2.4804,-2.4804,-2.4804,-2.4804,-2.4804,-2.4869,-2.4949,-2.4949,-2.5065,-2.5224,-2.5224,-2.5264,-2.5303,0.0,0.0,0.0,0.0,0.0,0.0,0.0,0.0,0.0,0.0,0.0,0.0,0.0,0.0,0.0,0.0,0.0,0.0,0.0,0.0,0.0,0.0,0.0,0.0,0.0,0.0,0.0,0.0,0.0,-2.0931,0.0,0.0,0.0,0.0,0.0,0.0,0.0,0.0,0.0,0.0,-2.532,0.0,0.0,0.0,0.0,0.0,-2.3755,-2.308,0.0,-2.1064,-2.0551,-2.0512,0.0,0.0,0.0,0.0,-2.0759,-2.0962,-2.0507,-1.9701,-1.897,-1.8906,-2.0117,-2.142,0.0,0.0,0.0,0.0,0.0,0.0,0.0,0.0,0.0,0.0,-2.5644,0.0,0.0,0.0,-2.4238,-2.3831,-2.4224,-2.4475,0.0,-2.4823,-2.52,-2.5225,-2.529,-2.5322,-2.5303,-2.5303,-2.5303,-2.5303,-2.5303,-2.5303,-2.5303,-2.5303,-2.5303,-2.5303,-2.5322,-2.5292,-2.5179,-2.5228,-2.5184,-2.5082,-2.5082,-2.5063,-2.5031,-2.5031,-2.5072,-2.5141,-2.5141,-2.5203,-2.5303,-2.5303,-2.5303,-2.5303,0.0,0.0,0.0,0.0,0.0,0.0,0.0,0.0,0.0,0.0,0.0,0.0,0.0,0.0,0.0,0.0,0.0,0.0,0.0,0.0,0.0,0.0,0.0,0.0,0.0,0.0,0.0,0.0,0.0,0.0,0.0,0.0,-1.9252,0.0,0.0,0.0,0.0,0.0,0.0,0.0,-2.5278,0.0,0.0,0.0,0.0,0.0,0.0,0.0,0.0,-2.0269,-1.9901,-1.979,-1.979,0.0,0.0,0.0,0.0,0.0,-2.132,-2.05,-1.9765,-1.9707,-2.0833,-2.1985,-2.1985,0.0,0.0,0.0,0.0,0.0,0.0,-2.5385,0.0,0.0,0.0,0.0,-2.591,-2.5226,-2.4651,-2.441,-2.4699,0.0,-2.4868,-2.5187,-2.5403,-2.5418,-2.5408,-2.539,-2.5322,-2.5322,-2.5322,-2.5322,-2.5322,-2.5322,-2.5322,-2.5322,-2.5322,-2.5322,-2.539,-2.5428,-2.5427,-2.5465,-2.5456,-2.5399,-2.5399,-2.537,-2.5303,-2.5303,-2.5303,-2.5303,-2.5303,-2.5303,-2.5303,-2.5303,-2.5303,-2.5303,0.0,0.0,0.0,0.0,0.0,0.0,0.0,0.0,0.0,0.0,0.0,0.0,0.0,0.0,0.0,0.0,0.0,0.0,0.0,0.0,0.0,0.0,0.0,0.0,0.0,0.0,0.0,0.0,0.0,0.0,-1.5286,-1.6193,-1.8491,-2.1931,0.0,-2.4068,-2.4818,-2.493,-2.4993,-2.5018,-2.5053,0.0,0.0,0.0,0.0,0.0,0.0,0.0,0.0,-2.0153,-1.9813,-1.979,-1.979,0.0,0.0,0.0,0.0,0.0,-2.0211,-2.0219,-2.0551,-2.1965,-2.3019,-2.3715,-2.3715,0.0,0.0,0.0,0.0,0.0,0.0,-2.5305,-2.5227,0.0,0.0,-2.5987,0.0,0.0,-2.5346,-2.3964,0.0,-2.4972,-2.3938,-2.4791,-2.5424,-2.5481,-2.5479,-2.5486,-2.5466,-2.5466,-2.5466,-2.5466,-2.5466,-2.5466,-2.5466,-2.5409,-2.539,-2.539,-2.5447,-2.5479,-2.5477,-2.5496,-2.5453,-2.5394,-2.5407,-2.537,-2.5303,-2.5303,-2.5303,-2.5303,-2.5303,-2.5303,-2.5303,-2.5303,-2.5303,-2.5303,0.0,0.0,0.0,0.0,0.0,0.0,0.0,0.0,0.0,0.0,0.0,0.0,0.0,0.0,0.0,0.0,0.0,0.0,0.0,0.0,0.0,0.0,0.0,0.0,0.0,0.0,0.0,0.0,0.0,-1.3156,-1.2711,-1.5889,-1.8806,-2.1423,0.0,-2.4132,-2.4917,-2.4974,-2.501,-2.501,0.0,0.0,0.0,0.0,0.0,0.0,0.0,0.0,0.0,0.0,-2.0069,-2.0069,-2.0069,0.0,0.0,0.0,0.0,0.0,-2.0784,-2.0896,-2.1301,-2.2572,-2.2858,-2.2792,-2.2799,0.0,0.0,0.0,0.0,0.0,0.0,0.0,-2.6008,-2.6645,0.0,-2.6074,-2.7019,-2.6688,-2.5972,0.0,0.0,-2.5281,-2.4487,-2.4917,-2.5307,-2.5432,-2.5444,-2.5425,-2.5386,-2.5386,-2.5386,-2.5386,-2.5386,-2.5401,-2.5441,-2.5453,-2.5459,-2.5452,-2.5513,-2.5551,-2.5561,-2.5586,-2.5559,-2.5503,-2.5511,-2.5466,-2.5409,-2.5409,-2.5409,-2.5409,-2.537,-2.5341,-2.5341,-2.5341,-2.539,-2.5409,0.0,0.0,0.0,0.0,0.0,0.0,0.0,0.0,0.0,0.0,0.0,0.0,0.0,0.0,0.0,0.0,0.0,0.0,0.0,0.0,0.0,0.0,0.0,0.0,0.0,0.0,-1.5737,-1.3288,-1.1067,-1.0366,-1.1201,-1.5937,-1.9235,0.0,0.0,-2.4331,-2.5077,-2.5077,-2.5077,-2.5088,0.0,0.0,0.0,0.0,0.0,0.0,0.0,0.0,0.0,0.0,0.0,0.0,0.0,0.0,0.0,-2.0285,-2.071,-2.1174,-2.1207,-2.1265,-2.1532,-2.2404,0.0,-2.2037,-2.2235,0.0,0.0,0.0,0.0,0.0,0.0,-2.5715,0.0,-2.7419,-2.6525,-2.6135,-2.7419,-2.7022,-2.6438,-2.6042,-2.5854,-2.5668,-2.5418,-2.5248,-2.523,-2.5381,-2.5411,-2.5399,-2.5347,-2.5349,-2.5349,-2.5349,-2.5349,-2.5382,-2.5449,-2.5503,-2.5512,-2.5517,-2.5601,-2.5631,-2.5638,-2.5681,-2.5664,-2.5605,-2.5604,-2.5561,-2.5492,-2.5492,-2.5492,-2.5492,-2.5434,-2.5418,-2.5409,-2.5416,-2.5453,-2.5492,0.0,0.0,0.0,0.0,0.0,0.0,0.0,0.0,0.0,0.0,0.0,0.0,0.0,0.0,0.0,0.0,0.0,0.0,0.0,0.0,0.0,0.0,0.0,0.0,0.0,-1.6266,-1.3503,-1.0601,-0.7923,-0.8482,-1.2088,-1.5934,-1.933,-2.2243,0.0,0.0,-2.5274,-2.5274,-2.5274,-2.5264,-2.5088,0.0,0.0,0.0,0.0,0.0,0.0,0.0,0.0,0.0,0.0,0.0,0.0,0.0,-2.006,-2.0241,-2.0258,-2.0231,-2.0348,-2.0446,-2.0704,-2.1566,-2.2346,0.0,-2.3846,-2.4685,0.0,-2.5236,0.0,0.0,0.0,-2.5198,-2.5323,-2.6038,-2.5903,-2.6005,-2.6842,0.0,-2.6643,-2.6786,-2.6326,-2.6042,-2.6206,-2.571,-2.538,-2.5399,-2.5466,-2.5485,-2.5495,-2.5484,-2.5484,-2.5484,-2.5484,-2.5523,-2.558,-2.5586,-2.5596,-2.5601,-2.5652,-2.5681,-2.5681,-2.5703,-2.5664,-2.5605,-2.5604,-2.5562,-2.5498,-2.5498,-2.5498,-2.5498,-2.5498,-2.5498,-2.5495,-2.548,-2.5498,-2.5498,0.0,0.0,0.0,0.0,0.0,0.0,0.0,0.0,0.0,0.0,0.0,0.0,0.0,0.0,0.0,0.0,0.0,0.0,0.0,0.0,0.0,0.0,0.0,-2.0626,-1.8211,-1.4877,-1.1776,-0.8984,-0.7835,-0.8952,-1.2178,-1.6081,0.0,0.0,0.0,0.0,0.0,-2.49,-2.4823,-2.4424,-2.4982,-2.5163,0.0,0.0,0.0,0.0,0.0,0.0,0.0,0.0,-1.9973,-2.0106,0.0,-2.0097,-2.0197,-2.0277,-2.0291,-2.0291,-2.034,-2.0379,-2.0606,-2.1489,0.0,0.0,0.0,0.0,0.0,0.0,-2.5005,0.0,0.0,0.0,-2.5374,-2.6563,-2.6163,-2.5968,-2.6786,-2.674,-2.6495,-2.6191,-2.5945,-2.5702,-2.5399,-2.5158,-2.5044,-2.5044,-2.5063,-2.5101,-2.5187,-2.5187,-2.525,-2.536,-2.539,-2.5409,-2.5466,-2.552,-2.5565,-2.5609,-2.5677,-2.5703,-2.5703,-2.5703,-2.5684,-2.5664,-2.5664,-2.5642,-2.5611,-2.5611,-2.5611,-2.5611,-2.5572,-2.5556,-2.5553,-2.5556,-2.5585,-2.5611,0.0,0.0,0.0,0.0,0.0,0.0,0.0,0.0,0.0,0.0,0.0,0.0,0.0,0.0,0.0,0.0,0.0,0.0,0.0,0.0,0.0,0.0,0.0,-2.0355,-1.8254,-1.4646,-1.1615,-0.9287,-0.9085,-1.0319,-1.291,0.0,0.0,0.0,0.0,0.0,0.0,0.0,-2.4297,-2.3881,-2.4898,-2.5173,0.0,0.0,0.0,0.0,0.0,0.0,0.0,0.0,-1.9982,-2.0097,0.0,-2.0153,-2.0296,-2.0294,-2.036,-2.04,-2.0377,-2.0584,-2.1021,0.0,0.0,0.0,0.0,0.0,0.0,0.0,-2.5004,0.0,0.0,0.0,0.0,0.0,-2.5839,-2.5502,-2.606,-2.5965,-2.5814,-2.5707,-2.5464,-2.5288,-2.519,-2.4955,-2.4804,-2.4804,-2.4804,-2.4869,-2.4998,-2.501,-2.5088,-2.5284,-2.5303,-2.5322,-2.5409,-2.5468,-2.5531,-2.5605,-2.5664,-2.5703,-2.5703,-2.5703,-2.5703,-2.5703,-2.5703,-2.5703,-2.5703,-2.5703,-2.5703,-2.5703,-2.5644,-2.5632,-2.5635,-2.5635,-2.566,-2.5703,0.0,0.0,0.0,0.0,0.0,0.0,0.0,0.0,0.0,0.0,0.0,0.0,0.0,0.0,0.0,0.0,0.0,0.0,0.0,0.0,0.0,0.0,0.0,-2.0021,-1.8947,-1.5723,-1.3252,-1.1622,-1.1504,-1.2455,-1.4482,-1.7015,0.0,0.0,0.0,0.0,0.0,0.0,-2.3774,-2.3861,-2.4878,-2.5173,-2.4872,0.0,0.0,0.0,0.0,0.0,0.0,0.0,-2.0124,-2.026,0.0,0.0,0.0,-2.03,-2.0352,-2.0391,-2.0312,-2.0987,-2.1909,0.0,0.0,0.0,0.0,0.0,0.0,-2.5413,0.0,-2.5303,-2.5303,-2.5141,0.0,-2.501,-2.4723,-2.4495,-2.4495,-2.4339,-2.4561,-2.5555,-2.4995,-2.4893,-2.5887,-2.5257,-2.4804,-2.479,-2.479,-2.4855,-2.4998,-2.501,-2.5088,-2.5284,-2.5303,-2.5322,-2.5409,-2.5466,-2.5531,-2.5605,-2.5664,-2.5703,-2.5703,-2.5703,-2.5703,-2.5703,-2.5703,-2.5703,-2.5703,-2.5703,-2.5703,-2.5703,-2.5703,-2.5703,-2.5703,-2.5703,-2.5703,-2.5703,0.0,0.0,0.0,0.0,0.0,0.0,0.0,0.0,0.0,0.0,0.0,0.0,0.0,0.0,0.0,0.0,0.0,0.0,0.0,0.0,0.0,0.0,0.0,0.0,0.0,0.0,-1.707,-1.3009,-1.3119,-1.4142,0.0,0.0,0.0,-2.0217,0.0,0.0,0.0,0.0,-2.2338,-2.1783,-2.2928,-2.3562,-2.3783,0.0,0.0,0.0,0.0,0.0,0.0,0.0,0.0,0.0,0.0,0.0,-2.0369,-2.037,-2.0375,-2.0385,-2.0262,-2.0802,0.0,0.0,0.0,0.0,0.0,0.0,0.0,0.0,-2.5149,-2.5053,-2.4962,-2.4896,0.0,-2.4869,-2.467,-2.4495,-2.4495,-2.4339,-2.432,-2.4617,-2.4558,-2.4554,-2.4726,-2.4642,-2.4528,-2.4393,-2.4375,-2.451,-2.4842,-2.4869,-2.5,-2.5303,-2.5303,-2.5303,-2.5322,-2.5447,-2.5499,-2.5519,-2.5659,-2.5703,-2.5703,-2.5703,-2.5703,-2.5703,-2.5703,-2.5703,-2.5703,-2.5703,-2.5703,-2.5703,-2.5703,-2.5703,-2.5703,-2.5703,-2.5703,-2.5703,0.0,0.0,0.0,0.0,0.0,0.0,0.0,0.0,0.0,0.0,0.0,0.0,0.0,0.0,0.0,0.0,0.0,0.0,0.0,0.0,0.0,0.0,0.0,0.0,0.0,-2.1156,-1.9134,0.0,0.0,0.0,0.0,0.0,0.0,-1.8828,0.0,-1.9376,0.0,0.0,0.0,-2.057,-2.1646,-2.2419,-2.2903,0.0,0.0,0.0,0.0,0.0,0.0,0.0,0.0,0.0,0.0,0.0,0.0,-2.034,-2.0302,-2.0327,-2.0464,-2.1109,0.0,0.0,0.0,-2.4337,-2.4413,0.0,0.0,0.0,0.0,-2.47,-2.4606,-2.4548,0.0,-2.467,-2.4512,-2.4375,-2.4375,-2.4266,-2.419,-2.419,-2.4303,-2.4321,-2.4209,-2.4321,-2.4339,-2.4209,-2.419,-2.4339,-2.467,-2.476,-2.491,-2.5163,-2.5264,-2.5303,-2.5341,-2.5447,-2.5502,-2.5538,-2.5644,-2.5703,-2.5703,-2.5703,-2.5703,-2.5703,-2.5703,-2.5703,-2.5703,-2.5703,-2.5703,-2.5703,-2.5703,-2.5703,-2.5703,-2.5703,-2.5703,-2.5703,0.0,0.0,0.0,0.0,0.0,0.0,0.0,0.0,0.0,0.0,0.0,0.0,0.0,0.0,0.0,0.0,0.0,0.0,0.0,0.0,0.0,0.0,0.0,0.0,0.0,0.0,0.0,0.0,0.0,0.0,0.0,0.0,-1.7513,-1.729,0.0,-1.7138,0.0,0.0,0.0,-1.9821,-2.0632,-2.1392,-2.2047,-2.1845,0.0,0.0,0.0,0.0,0.0,0.0,0.0,0.0,0.0,-2.1169,-2.0472,-2.0278,-2.0205,-2.0302,-2.0828,0.0,0.0,0.0,0.0,0.0,-2.5008,-2.5053,-2.4957,-2.4487,0.0,-2.4221,-2.4239,-2.41,-2.4081,-2.4408,-2.4321,-2.419,-2.419,-2.419,-2.419,-2.419,-2.419,-2.419,-2.419,-2.419,-2.419,-2.419,-2.419,-2.4284,-2.4495,-2.4685,-2.4869,-2.4998,-2.5203,-2.5322,-2.539,-2.5467,-2.5524,-2.5582,-2.5665,-2.5703,-2.5703,-2.5703,-2.5703,-2.5703,-2.5703,-2.5703,-2.5703,-2.5703,-2.5703,-2.5703,-2.5703,-2.5703,-2.5703,-2.5703,-2.5703,-2.5703,0.0,0.0,0.0,0.0,0.0,0.0,0.0,0.0,0.0,0.0,0.0,0.0,0.0,0.0,0.0,0.0,0.0,0.0,0.0,0.0,0.0,0.0,0.0,0.0,0.0,0.0,0.0,0.0,0.0,0.0,0.0,0.0,0.0,-1.7105,0.0,-1.6441,0.0,0.0,-1.7706,-1.7914,-1.8203,-1.9113,-2.0239,-2.0089,-2.1007,0.0,0.0,0.0,0.0,0.0,0.0,0.0,-2.1968,-2.1613,-2.1274,-2.0573,-2.0633,-2.0907,0.0,-2.1775,0.0,0.0,0.0,-2.4561,-2.4293,-2.4284,-2.429,-2.4135,-2.3873,-2.3699,-2.3808,-2.3803,-2.3862,-2.4209,-2.4228,-2.419,-2.419,-2.419,-2.419,-2.419,-2.419,-2.419,-2.419,-2.419,-2.419,-2.419,-2.419,-2.4284,-2.4495,-2.4685,-2.4869,-2.4998,-2.5203,-2.5303,-2.5322,-2.5432,-2.5504,-2.5523,-2.565,-2.5703,-2.5703,-2.5703,-2.5703,-2.5703,-2.5703,-2.5703,-2.5703,-2.5703,-2.5703,-2.5703,-2.5703,-2.5703,-2.5703,-2.5703,-2.5703,-2.5703,0.0,0.0,0.0,0.0,0.0,0.0,0.0,0.0,0.0,0.0,0.0,0.0,0.0,0.0,0.0,0.0,0.0,0.0,0.0,0.0,0.0,0.0,0.0,0.0,0.0,0.0,0.0,0.0,0.0,0.0,0.0,0.0,0.0,-1.6162,0.0,-1.5372,0.0,0.0,-1.645,-1.691,-1.6899,-1.7596,-1.8634,-1.8495,-1.927,-2.0433,-2.0414,0.0,0.0,0.0,0.0,0.0,0.0,0.0,-2.1015,-2.0476,-2.0441,-2.0668,0.0,0.0,0.0,0.0,0.0,0.0,-2.3545,-2.3464,-2.3442,-2.3577,-2.3605,-2.362,-2.3674,-2.3783,-2.3945,-2.4303,-2.4409,-2.4495,-2.4495,-2.4495,-2.4444,-2.4375,-2.4339,-2.4339,-2.4339,-2.4339,-2.4339,-2.4339,-2.4339,-2.4339,-2.4357,-2.4561,-2.4727,-2.4904,-2.5065,-2.5222,-2.5341,-2.5418,-2.5473,-2.5493,-2.5595,-2.5664,-2.5703,-2.5703,-2.5703,-2.5703,-2.5703,-2.5703,-2.5703,-2.5703,-2.5703,-2.5703,-2.5703,-2.5703,-2.5703,-2.5703,-2.5703,-2.5703,0.0,0.0,0.0,0.0,0.0,0.0,0.0,0.0,0.0,0.0,0.0,0.0,0.0,0.0,0.0,0.0,0.0,0.0,0.0,0.0,0.0,0.0,0.0,0.0,0.0,0.0,0.0,0.0,0.0,0.0,0.0,0.0,0.0,-1.5364,0.0,0.0,0.0,0.0,0.0,-1.6247,-1.6258,-1.6685,-1.7306,-1.7179,-1.7637,-1.8499,-1.9458,-2.0373,-2.1314,-2.2364,0.0,0.0,0.0,0.0,-2.0658,-2.0341,-2.0209,-2.0408,0.0,0.0,0.0,0.0,0.0,0.0,-2.2814,-2.2657,-2.2634,-2.3028,-2.3392,-2.3631,-2.3692,-2.3848,-2.4118,-2.4442,-2.467,-2.4804,-2.4804,-2.4775,-2.47,-2.4578,-2.4528,-2.4512,-2.4561,-2.4543,-2.4545,-2.4512,-2.4495,-2.441,-2.4209,-2.4393,-2.4591,-2.479,-2.4924,-2.5118,-2.538,-2.5534,-2.5644,-2.5704,-2.5787,-2.5762,-2.5684,-2.5684,-2.5682,-2.5672,-2.5672,-2.5676,-2.5661,-2.5661,-2.5661,-2.5661,-2.5661,-2.5661,-2.5661,-2.5661,-2.5661,-2.5662,0.0,0.0,0.0,0.0,0.0,0.0,0.0,0.0,0.0,0.0,0.0,0.0,0.0,0.0,0.0,0.0,0.0,0.0,-1.8641,0.0,0.0,-2.0055,-2.0073,-1.9805,0.0,0.0,0.0,0.0,0.0,0.0,0.0,0.0,0.0,-1.6088,0.0,0.0,0.0,0.0,0.0,-1.5264,-1.6112,-1.6522,-1.6605,-1.6421,-1.6982,-1.7991,-1.8697,-1.962,-2.0664,-2.1617,-2.2371,0.0,0.0,0.0,-2.1479,-2.0695,-2.0812,-2.1184,0.0,0.0,0.0,0.0,0.0,-2.2059,0.0,0.0,-2.2272,0.0,-2.3045,-2.3369,-2.3649,-2.3848,-2.4118,-2.4442,-2.467,-2.4804,-2.4804,-2.4654,-2.4591,-2.4746,-2.4607,-2.4578,-2.4746,-2.476,-2.4685,-2.4512,-2.4495,-2.441,-2.4209,-2.4393,-2.4591,-2.479,-2.4924,-2.5099,-2.5303,-2.613,-2.6524,-2.6545,-2.6659,-2.6348,-2.5625,-2.5664,-2.5665,-2.5605,-2.5605,-2.5589,-2.5535,-2.5535,-2.5535,-2.5535,-2.5535,-2.5535,-2.5535,-2.5535,-2.5535,-2.5547,0.0,0.0,0.0,0.0,0.0,0.0,0.0,0.0,0.0,0.0,0.0,0.0,0.0,0.0,0.0,-1.7936,-1.7737,-1.7764,-1.8007,-1.878,-1.9321,-1.9503,-1.9524,-1.9442,-1.9279,0.0,0.0,0.0,0.0,0.0,0.0,-1.5856,-1.5358,0.0,0.0,0.0,0.0,0.0,0.0,0.0,-1.5568,-1.5792,-1.5862,-1.6233,-1.6688,-1.7292,-1.8569,-1.9323,-1.9869,-2.0766,-2.1352,-2.1648,-2.1285,0.0,0.0,0.0,-2.0578,-2.0829,-2.1338,0.0,0.0,0.0,-2.1707,-2.1098,-2.1415,0.0,-2.1553,-2.2218,-2.2643,-2.3041,-2.361,-2.4023,-2.4371,-2.4639,-2.4814,-2.4943,-2.5049,-2.4904,-2.4804,-2.4904,-2.4771,-2.4727,-2.4904,-2.4917,-2.4877,-2.4776,-2.4776,-2.4708,-2.4543,-2.4623,-2.4741,-2.4917,-2.4974,-2.5329,-2.6014,-2.5956,-2.5927,-2.5974,-2.6067,-2.5925,-2.5605,-2.5664,-2.5652,-2.5601,-2.5601,-2.5571,-2.5507,-2.5507,-2.5507,-2.5507,-2.5507,-2.5507,-2.5507,-2.5507,-2.5526,-2.5553,0.0,0.0,0.0,0.0,0.0,0.0,0.0,0.0,0.0,0.0,0.0,0.0,0.0,0.0,0.0,0.0,-1.7238,-1.7181,-1.7382,-1.804,-1.8523,-1.8766,-1.8871,-1.9052,-1.9292,0.0,0.0,0.0,0.0,0.0,-1.7003,-1.5443,-1.4897,0.0,-1.4224,0.0,0.0,0.0,0.0,0.0,-1.5715,-1.5772,0.0,0.0,-1.6574,-1.6852,-1.8574,-1.9212,-1.9361,-2.0233,-2.0552,-2.0605,-2.0593,-2.0588,0.0,0.0,0.0,-2.0592,0.0,0.0,0.0,0.0,-2.0861,-2.028,0.0,0.0,-2.1176,0.0,-2.2255,-2.2591,-2.3064,-2.3751,-2.4316,-2.4551,-2.4724,-2.4911,-2.5192,-2.503,-2.4924,-2.5065,-2.4904,-2.4869,-2.5065,-2.5077,-2.5065,-2.4991,-2.501,-2.4937,-2.4804,-2.4804,-2.4869,-2.4998,-2.501,-2.5405,-2.6255,-2.5851,-2.5658,-2.5714,-2.5773,-2.5725,-2.558,-2.5644,-2.5642,-2.5597,-2.5572,-2.5524,-2.5447,-2.5447,-2.5447,-2.5447,-2.5447,-2.5447,-2.5447,-2.5447,-2.5486,-2.5553,0.0,0.0,0.0,0.0,0.0,0.0,0.0,0.0,0.0,0.0,0.0,0.0,-1.7415,-1.7353,-1.7208,-1.6892,-1.6841,-1.6841,-1.6825,-1.7167,-1.7394,-1.7401,-1.7715,0.0,-1.7907,0.0,0.0,0.0,0.0,0.0,-1.6324,-1.5279,-1.5036,-1.5427,-1.4106,-1.3845,-1.4504,0.0,0.0,0.0,0.0,0.0,0.0,0.0,-1.6646,0.0,-1.86,-1.9234,-1.9433,-2.0292,-2.0605,-2.0601,-2.0603,-2.0554,-2.0485,0.0,0.0,0.0,0.0,0.0,0.0,0.0,0.0,0.0,0.0,0.0,-2.1582,-2.1612,-2.1886,-2.2023,-2.1674,-2.2681,-2.3658,-2.4007,-2.4206,-2.4501,-2.4955,-2.4737,-2.4712,-2.5214,-2.5006,-2.4942,-2.5253,-2.5274,-2.5203,-2.5022,-2.501,-2.4937,-2.4804,-2.4804,-2.4869,-2.4998,-2.501,-2.5118,-2.536,-2.614,-2.6524,-2.6544,-2.661,-2.6241,-2.5503,-2.5579,-2.5592,-2.559,-2.5528,-2.5428,-2.5303,-2.5303,-2.5303,-2.5303,-2.5303,-2.5303,-2.5303,-2.5303,-2.5341,-2.5418,0.0,0.0,0.0,0.0,0.0,0.0,0.0,0.0,0.0,0.0,0.0,0.0,0.0,-1.7534,-1.7358,-1.6548,-1.6474,-1.6581,-1.6789,-1.6917,-1.7076,-1.7296,-1.7415,-1.7664,-1.8057,0.0,0.0,0.0,0.0,-1.7158,-1.7173,-1.5835,-1.5582,-1.621,-1.4738,-1.4247,-1.4593,-1.5536,0.0,0.0,0.0,0.0,0.0,0.0,0.0,0.0,0.0,0.0,-2.0175,-2.0488,-2.0575,-2.0526,-2.0421,-2.0233,-1.9974,-1.9635,-1.993,-2.0388,0.0,0.0,0.0,-2.1254,-2.1049,-2.0902,-2.1486,-2.1334,-2.1116,-2.1197,-2.107,-2.0911,-2.0766,-2.1916,-2.3058,-2.3469,-2.3859,-2.4309,-2.493,-2.4823,-2.4842,-2.5253,-2.5084,-2.5018,-2.5293,-2.5303,-2.5264,-2.5203,-2.5184,-2.5182,-2.5126,-2.5126,-2.5149,-2.5203,-2.5184,-2.5224,-2.5303,-2.6159,-2.6332,-2.5774,-2.5822,-2.5697,-2.5434,-2.5542,-2.5584,-2.5549,-2.5553,-2.5486,-2.537,-2.537,-2.5341,-2.5303,-2.5303,-2.5303,-2.5303,-2.5303,-2.537,-2.5466,0.0,0.0,0.0,0.0,0.0,0.0,0.0,0.0,0.0,0.0,0.0,0.0,0.0,0.0,-1.739,-1.6548,-1.649,-1.6554,-1.6789,-1.6917,-1.7076,-1.7296,-1.7492,-1.776,-1.8078,0.0,0.0,0.0,0.0,0.0,0.0,-1.6299,-1.6075,-1.6715,-1.5273,-1.4678,0.0,0.0,0.0,-1.607,0.0,0.0,-1.6746,0.0,0.0,0.0,0.0,0.0,0.0,-2.0572,-2.0507,-2.0394,-2.0187,-1.9921,-1.96,-1.928,-1.9668,0.0,-2.0072,0.0,0.0,0.0,0.0,-2.1292,-2.1728,-2.1516,-2.1176,-2.1039,-2.0764,-2.0483,-2.0348,-2.1464,-2.2565,-2.3016,-2.35,-2.4081,-2.4826,-2.4865,-2.4926,-2.5292,-2.5191,-2.5144,-2.5331,-2.5322,-2.5322,-2.5303,-2.5303,-2.5303,-2.5303,-2.5303,-2.5303,-2.5303,-2.5303,-2.5303,-2.5303,-2.587,-2.587,-2.5303,-2.5341,-2.539,-2.5399,-2.5493,-2.5529,-2.5547,-2.5576,-2.5536,-2.5429,-2.5399,-2.537,-2.5322,-2.5303,-2.5303,-2.5303,-2.5303,-2.539,-2.5505,0.0,0.0,0.0,0.0,0.0,0.0,0.0,0.0,0.0,-1.871,0.0,0.0,0.0,0.0,0.0,-1.6815,-1.6815,-1.6815,-1.6815,-1.7126,-1.732,-1.732,-1.7871,-1.8078,-1.7811,0.0,0.0,0.0,0.0,0.0,0.0,0.0,-1.649,0.0,-1.5677,-1.5129,-1.5228,0.0,-1.7719,-1.7945,0.0,-1.9148,-1.916,0.0,0.0,0.0,-2.0234,-2.0584,0.0,-2.0526,0.0,0.0,0.0,-1.9566,-1.9378,-1.937,-1.9973,0.0,0.0,0.0,0.0,0.0,0.0,0.0,-2.2023,0.0,-2.1927,-2.1165,-2.1023,-2.0894,-2.0434,-2.1332,-2.2228,-2.2591,-2.314,-2.3818,-2.4693,-2.4798,-2.4955,-2.536,-2.5291,-2.5266,-2.5389,-2.5409,-2.537,-2.5303,-2.5303,-2.5303,-2.5303,-2.5303,-2.5303,-2.5303,-2.5303,-2.5303,-2.5303,-2.5303,-2.5303,-2.5303,-2.5303,-2.5322,-2.5409,-2.5409,-2.548,-2.5586,-2.5605,-2.5553,-2.5508,-2.5429,-2.5399,-2.539,-2.5322,-2.5303,-2.5303,-2.5303,-2.539,-2.5505,0.0,0.0,0.0,0.0,0.0,0.0,-2.1422,-2.0006,-1.8852,0.0,0.0,0.0,-1.7252,-1.6827,-1.6633,-1.6789,-1.7027,-1.7248,-1.7519,-1.7612,-1.7658,-1.7658,-1.7816,-1.7971,-1.81,0.0,0.0,0.0,0.0,0.0,0.0,0.0,0.0,0.0,-1.6423,-1.5741,-1.5279,-1.5807,0.0,0.0,-1.7298,-1.7772,0.0,0.0,0.0,0.0,0.0,-2.0028,-2.0506,0.0,-2.0003,-1.9399,0.0,0.0,0.0,0.0,0.0,0.0,-1.9697,0.0,0.0,0.0,0.0,0.0,0.0,0.0,-2.2265,-2.1595,-2.1397,-2.136,-2.1391,-2.2088,-2.2845,-2.331,-2.3705,-2.4202,-2.4922,-2.5059,-2.5178,-2.5446,-2.5446,-2.5418,-2.5398,-2.5397,-2.537,-2.5303,-2.5303,-2.5303,-2.5303,-2.5303,-2.5303,-2.5303,-2.5303,-2.5303,-2.5303,-2.5303,-2.5303,-2.5303,-2.5303,-2.5303,-2.5322,-2.539,-2.5425,-2.5453,-2.5568,-2.5585,-2.5577,-2.5544,-2.5502,-2.5409,-2.539,-2.5341,-2.5303,-2.5303,-2.5341,-2.5438,0.0,0.0,0.0,0.0,0.0,0.0,-2.1589,-2.0515,-1.9446,0.0,0.0,0.0,-1.6807,-1.6452,-1.6389,-1.6763,-1.7224,-1.7526,-1.7572,-1.7726,-1.7811,-1.7811,-1.8014,-1.8146,-1.8187,0.0,0.0,0.0,0.0,0.0,0.0,0.0,0.0,0.0,0.0,0.0,0.0,0.0,0.0,0.0,-1.7447,0.0,0.0,-1.8856,-1.9279,0.0,0.0,0.0,-2.0521,-2.0342,-1.9686,0.0,0.0,0.0,0.0,0.0,0.0,0.0,0.0,0.0,0.0,0.0,0.0,0.0,-2.2276,-2.2358,-2.2265,0.0,-2.1831,-2.1967,-2.2258,-2.2968,-2.366,-2.4099,-2.4372,-2.468,-2.5043,-2.5248,-2.5405,-2.5488,-2.5551,-2.5551,-2.5457,-2.544,-2.5409,-2.5303,-2.5303,-2.5303,-2.5303,-2.5303,-2.5303,-2.5303,-2.5303,-2.5303,-2.5303,-2.5303,-2.5303,-2.5303,-2.5303,-2.5303,-2.5303,-2.5341,-2.537,-2.5399,-2.549,-2.5559,-2.5605,-2.5605,-2.5544,-2.5479,-2.5444,-2.5428,-2.539,-2.5341,-2.539,-2.5438,0.0,0.0,0.0,-2.3976,-2.3129,-2.2179,-2.1753,-2.1297,-2.0365,0.0,-1.8062,-1.7368,-1.6052,-1.6047,-1.6316,-1.6763,-1.7384,-1.7618,-1.7368,-1.7618,-1.7811,-1.7839,-1.831,-1.845,-1.8249,-1.8734,0.0,0.0,0.0,0.0,0.0,0.0,0.0,0.0,0.0,0.0,0.0,0.0,0.0,-1.6728,-1.8324,-1.8982,0.0,0.0,-2.0408,-2.0393,-2.0539,-2.0581,-2.0521,-2.0192,-1.9247,0.0,0.0,0.0,0.0,0.0,-1.9471,0.0,0.0,0.0,0.0,0.0,-2.1258,0.0,-2.2231,-2.2275,-2.2218,0.0,-2.2419,-2.2693,-2.3075,-2.3876,-2.4579,-2.4837,-2.5094,-2.5221,-2.5158,-2.5399,-2.557,-2.5522,-2.5613,-2.5636,-2.5522,-2.5514,-2.5466,-2.5322,-2.5322,-2.5303,-2.5303,-2.5303,-2.5303,-2.5303,-2.5303,-2.5303,-2.5303,-2.5303,-2.5303,-2.5303,-2.5303,-2.5303,-2.5303,-2.5303,-2.5322,-2.539,-2.5409,-2.5473,-2.5582,-2.5586,-2.5605,-2.5604,-2.5628,-2.5648,-2.5649,-2.5591,-2.5649,-2.5746,0.0,0.0,-2.3236,-2.3714,-2.236,-2.117,-2.109,-1.998,-1.8886,-1.8243,-1.7134,-1.5968,0.0,-1.533,-1.6001,-1.6738,-1.7175,-1.7462,-1.7681,-1.7749,-1.79,-1.8103,-1.8229,-1.8351,-1.8508,-1.8843,-1.8966,-1.8914,0.0,0.0,0.0,0.0,0.0,0.0,0.0,0.0,0.0,0.0,0.0,-1.6571,-1.7231,0.0,-1.8707,-1.961,-2.0022,-2.0191,-2.0429,-2.0447,-2.0183,-1.9087,-1.7983,-1.7049,0.0,0.0,0.0,-1.7567,0.0,0.0,0.0,0.0,0.0,0.0,-2.1258,0.0,-2.2459,-2.2822,-2.2979,0.0,-2.3356,-2.379,-2.406,-2.459,-2.5067,-2.5378,-2.5485,-2.5505,-2.5422,-2.5486,-2.5531,-2.5585,-2.5605,-2.5603,-2.5584,-2.5572,-2.5543,-2.5466,-2.5409,-2.537,-2.5303,-2.5303,-2.5303,-2.5303,-2.5303,-2.5303,-2.5303,-2.5303,-2.5303,-2.5303,-2.5303,-2.5303,-2.5303,-2.5303,-2.5303,-2.5322,-2.539,-2.5407,-2.5456,-2.5566,-2.5605,-2.5664,-2.636,-2.6591,-2.6545,-2.6526,-2.6989,-2.7383,0.0,0.0,-2.3069,-2.3392,-2.221,-2.1131,-2.0941,-1.9944,-1.8857,0.0,0.0,0.0,0.0,0.0,-1.5777,-1.6258,-1.691,-1.7541,-1.8064,-1.8416,-1.8749,-1.9082,-1.9155,-1.9052,-1.8699,-1.8895,-1.8931,-1.8789,0.0,0.0,0.0,0.0,0.0,0.0,0.0,0.0,0.0,0.0,-1.5949,-1.6262,-1.7107,0.0,-1.8272,-1.9265,-1.9752,-1.9935,-2.0245,-2.0065,-1.9564,-1.8612,-1.7478,0.0,-1.6577,-1.6642,-1.684,0.0,-1.7832,-1.8224,0.0,0.0,0.0,-2.0715,-2.1274,0.0,0.0,-2.2822,-2.3045,-2.3392,-2.3728,-2.4118,-2.4524,-2.4873,-2.5196,-2.5507,-2.5556,-2.5547,-2.5507,-2.5535,-2.5558,-2.5551,-2.559,-2.5598,-2.5595,-2.5596,-2.5561,-2.5503,-2.5474,-2.5447,-2.5409,-2.537,-2.5341,-2.5341,-2.5322,-2.5303,-2.5303,-2.5303,-2.5303,-2.5303,-2.5303,-2.5303,-2.5303,-2.5303,-2.5303,-2.5303,-2.5341,-2.537,-2.5409,-2.5466,-2.5769,-2.6191,-2.6232,-2.6763,-2.744,-2.6969,-2.7374,-2.7945,-2.3117,0.0,0.0,-2.3069,-2.2,-2.099,-2.0673,-1.9874,-1.8693,0.0,0.0,0.0,0.0,0.0,0.0,0.0,-1.6696,-1.7552,-1.8336,-1.9019,-1.9562,-1.992,-2.0047,-1.9723,-1.8875,-1.8842,-1.8734,-1.851,0.0,0.0,0.0,0.0,0.0,0.0,0.0,0.0,0.0,0.0,0.0,-1.6348,0.0,-1.7832,-1.7854,-1.8957,-1.9628,-2.0027,-2.0518,-2.0174,-1.9365,-1.8781,-1.7601,-1.647,-1.6879,-1.6704,0.0,0.0,0.0,0.0,0.0,0.0,0.0,-2.0748,-2.1352,-2.1874,0.0,0.0,0.0,-2.3671,-2.3964,-2.4227,-2.4685,-2.4924,0.0,-2.5401,0.0,0.0,0.0,-2.5542,0.0,-2.5515,-2.5576,-2.5618,-2.5625,-2.5622,-2.5582,-2.5524,-2.5518,-2.5506,-2.5502,-2.5444,-2.5418,-2.5428,-2.537,-2.5341,-2.5341,-2.5341,-2.5341,-2.5341,-2.5341,-2.5322,-2.5322,-2.5322,-2.5303,-2.5303,-2.5303,-2.5322,-2.539,-2.539,-2.5953,-2.674,-2.6275,-2.7064,-2.8367,-2.7616,-2.7812,-2.83,-2.2822,-2.2721,0.0,0.0,-2.107,-1.9707,-1.9677,-1.8222,0.0,0.0,0.0,0.0,0.0,0.0,0.0,0.0,0.0,-1.7284,-1.8334,-1.903,-1.951,-1.9719,-1.9797,-1.9574,-1.8984,-1.8476,-1.8186,-1.8165,-1.783,0.0,0.0,0.0,0.0,0.0,-1.6414,0.0,0.0,0.0,-1.7012,0.0,-1.7997,-1.7908,0.0,-1.8548,-1.9744,-2.1077,-2.2134,-2.1764,-2.0662,0.0,-1.8683,-1.7483,0.0,-1.6541,-1.6515,-1.6642,0.0,0.0,0.0,0.0,-1.9236,-2.0667,-2.1532,-2.2235,-2.2979,0.0,-2.3692,-2.4074,0.0,-2.4482,-2.4598,0.0,0.0,-2.5188,-2.5234,-2.5305,-2.5466,-2.5466,-2.5463,-2.5582,-2.56,-2.5615,-2.5682,-2.5683,-2.5663,-2.5585,-2.5583,-2.5564,-2.5493,-2.5488,-2.5499,-2.5495,-2.5486,-2.5486,-2.5486,-2.5486,-2.5486,-2.5486,-2.5486,-2.5447,-2.539,-2.539,-2.537,-2.5303,-2.5303,-2.5303,-2.5322,-2.539,-2.5919,-2.6795,-2.7596,-2.849,-2.9342,-2.9301,-2.9355,-2.9199,-2.2721,-2.2695,0.0,0.0,-2.1718,-2.0755,-1.9667,-1.8129,0.0,0.0,0.0,0.0,0.0,0.0,0.0,0.0,0.0,-1.7856,0.0,0.0,-2.0569,-2.1144,-2.1294,-2.0702,-1.9321,-1.8784,-1.8427,-1.8219,-1.7314,0.0,0.0,0.0,0.0,0.0,-1.6328,0.0,-1.6466,0.0,-1.7523,0.0,0.0,0.0,0.0,-1.9373,-2.0713,-2.2095,-2.2604,-2.2154,-2.1131,0.0,-1.8763,0.0,0.0,0.0,0.0,-1.7247,0.0,0.0,0.0,-1.9612,-2.0481,-2.1399,-2.2394,-2.3214,-2.343,-2.3588,-2.3795,-2.4113,0.0,0.0,0.0,0.0,0.0,0.0,-2.5118,-2.5224,-2.5473,0.0,-2.5477,-2.5543,-2.5511,-2.5506,-2.5584,-2.562,-2.5625,-2.5605,-2.5644,-2.5643,-2.5629,-2.5588,-2.5556,-2.5559,-2.5517,-2.5505,-2.5505,-2.5505,-2.5505,-2.5505,-2.5505,-2.5485,-2.5466,-2.5455,-2.5428,-2.537,-2.537,-2.5341,-2.5303,-2.537,-2.5918,-2.6795,-2.7756,-2.8701,-2.9494,-2.953,-2.9884,-3.0176,-2.2599,0.0,0.0,0.0,-2.204,-2.1239,-1.947,-1.8073,0.0,0.0,0.0,0.0,-1.687,-1.6746,0.0,0.0,-1.728,-1.8001,0.0,0.0,-2.1033,-2.1384,-2.1943,-2.1359,-1.9503,-1.9049,-1.8708,-1.8463,-1.7274,-1.6933,0.0,0.0,0.0,0.0,0.0,-1.6855,-1.6305,0.0,-1.798,-1.7867,-1.8637,-1.931,-1.9957,-2.0723,-2.1687,-2.2743,-2.3295,-2.2961,-2.2058,-2.0697,-1.9458,-1.8403,-1.7941,-1.7639,-1.7614,0.0,0.0,0.0,-1.9771,-2.0691,-2.1569,-2.2091,-2.3058,-2.3827,-2.371,-2.3774,-2.3917,-2.4151,-2.419,0.0,0.0,0.0,-2.4607,-2.4885,0.0,-2.5194,-2.5457,-2.5492,-2.552,-2.5533,-2.547,-2.5459,-2.5505,-2.5539,-2.557,-2.5605,-2.5644,-2.5684,-2.5703,-2.5644,-2.5625,-2.5625,-2.5583,-2.5554,-2.5554,-2.5554,-2.5554,-2.5554,-2.5554,-2.5554,-2.5535,-2.5537,-2.5488,-2.5423,-2.5438,-2.5409,-2.537,-2.5409,-2.5811,-2.6481,-2.765,-2.8525,-2.9177,-2.9619,-3.0102,-3.0391,-2.2293,-2.2293,0.0,0.0,0.0,0.0,-1.8653,0.0,0.0,0.0,0.0,0.0,0.0,0.0,0.0,0.0,0.0,-1.7291,-1.8367,0.0,-2.0194,-1.9421,-2.0813,-2.09,-1.9351,-1.9036,-1.8876,-1.8876,-1.8053,0.0,0.0,0.0,0.0,0.0,0.0,-1.7938,-1.732,-1.842,-1.8454,-1.7974,-2.0004,-2.175,-2.3076,0.0,-2.2386,-2.283,-2.4601,0.0,-2.3965,-2.2205,-2.1414,-2.0947,-1.9573,-1.9435,-1.9865,-2.021,-2.0336,-2.0431,-2.0923,-2.1399,-2.1919,-2.2444,-2.3153,-2.3707,-2.3692,-2.3937,-2.419,-2.419,-2.419,-2.419,-2.4209,-2.4375,-2.4578,-2.4775,-2.4972,0.0,0.0,-2.5499,-2.5523,-2.5588,-2.5553,-2.5495,-2.5495,-2.5505,-2.5531,-2.5604,-2.5605,-2.5625,-2.5703,-2.5703,-2.5703,-2.5703,-2.5683,-2.5683,-2.5683,-2.5683,-2.5683,-2.5683,-2.5683,-2.5664,-2.5605,-2.5605,-2.5568,-2.5498,-2.549,-2.5505,-2.5486,-2.5505,-2.5511,-2.5703,-2.7421,-2.8126,-2.8335,-2.9978,-3.0121,-2.9414,0.0,0.0,0.0,0.0,0.0,0.0,0.0,-1.845,0.0,0.0,-1.7306,0.0,0.0,-1.8101,-1.8253,0.0,0.0,-1.8473,-1.84,-1.9723,0.0,-2.0559,-2.1694,-2.1763,-2.0593,-1.9963,-1.9599,-1.9555,-1.8296,0.0,0.0,0.0,0.0,0.0,0.0,-1.8209,0.0,0.0,0.0,0.0,0.0,-2.1514,-2.2486,0.0,-2.3412,-2.415,-2.4753,-2.4823,-2.4424,-2.2977,-2.2357,-2.2019,-2.1188,-2.0905,-2.1017,-2.1621,-2.1829,-2.1971,-2.2447,-2.3021,-2.356,-2.3743,-2.4308,-2.4764,-2.4498,-2.4524,-2.4591,-2.4591,-2.5022,-2.5244,-2.4703,-2.5086,-2.5378,-2.4993,-2.5038,-2.5184,0.0,-2.5547,-2.5571,-2.5538,-2.5509,-2.5505,-2.5505,-2.5543,-2.558,-2.5602,-2.564,-2.5684,-2.5703,-2.5703,-2.5703,-2.5703,-2.5703,-2.5685,-2.5628,-2.5628,-2.5604,-2.5564,-2.5564,-2.5564,-2.5525,-2.5525,-2.5508,-2.5429,-2.5428,-2.5414,-2.5366,-2.5425,-2.5432,-2.5604,-2.736,-2.8028,-2.8241,-2.9969,-3.0132,-2.9297,-2.2118,0.0,0.0,0.0,0.0,0.0,0.0,0.0,0.0,0.0,-1.7786,0.0,-1.808,0.0,-1.874,0.0,-1.8554,-1.8623,-1.8577,-1.9668,0.0,-2.0754,-2.19,-2.2131,-2.1221,-2.0776,-2.055,-2.0519,-1.9245,-1.8849,0.0,0.0,0.0,0.0,0.0,-1.9077,-1.8535,-1.9957,-2.0213,0.0,0.0,-2.2023,0.0,0.0,-2.3975,-2.439,-2.475,-2.4842,-2.4645,-2.3603,-2.3014,-2.2645,-2.2299,-2.1953,-2.1785,-2.2539,-2.2863,-2.3076,-2.3453,-2.3992,-2.4556,-2.4917,-2.5354,-2.5616,-2.5355,-2.5305,-2.5305,-2.5305,-2.546,-2.5635,-2.5744,-2.5744,-2.5674,-2.5551,-2.538,-2.536,0.0,-2.5615,-2.5615,-2.5586,-2.5538,-2.5495,-2.5495,-2.5524,-2.5538,-2.5557,-2.5597,-2.5638,-2.5664,-2.5977,-2.6152,-2.6152,-2.6132,-2.611,-2.6063,-2.5726,-2.555,-2.5506,-2.5506,-2.5506,-2.5506,-2.5506,-2.5486,-2.5438,-2.5438,-2.5411,-2.5379,-2.5418,-2.5418,-2.5539,-2.6977,-2.7522,-2.7753,-2.9802,-2.9925,-2.8884,-2.1768,0.0,0.0,0.0,-2.0418,0.0,0.0,0.0,-1.7998,0.0,-1.7882,-1.8283,-1.8161,-1.7832,-1.7942,-1.8765,-1.7938,-1.7795,-1.8768,-1.9529,0.0,0.0,-2.1431,-2.1949,-2.1247,-2.1499,-2.1612,-2.1612,0.0,0.0,0.0,0.0,0.0,0.0,-2.0384,0.0,-2.0553,-2.1357,-2.1481,-2.1212,-2.2247,-2.3283,-2.4247,-2.4426,-2.412,-2.3695,-2.4651,-2.4917,-2.4733,-2.4138,-2.354,-2.3004,-2.296,-2.2597,-2.2309,-2.2965,-2.3415,-2.3715,-2.392,-2.4274,-2.4832,-2.5851,-2.6151,-2.6222,-2.6279,-2.6279,-2.6279,-2.6279,-2.5668,-2.5589,-2.7157,-2.629,-2.5603,-2.6327,-2.596,-2.5616,-2.5698,-2.5707,-2.5698,-2.571,-2.5589,-2.5496,-2.5496,-2.5442,-2.5429,-2.5507,-2.5505,-2.5531,0.0,-2.6484,-2.6992,-2.6992,-2.6929,-2.6892,-2.6892,-2.5957,-2.5486,-2.5486,-2.5486,-2.5486,-2.5486,-2.5486,-2.5486,-2.5486,-2.5486,-2.5486,-2.5486,-2.5486,-2.5447,-2.5486,-2.636,-2.6687,-2.6967,-2.9421,-2.9425,-2.8189,-2.2501,-2.1181,-2.0081,0.0,-1.9315,-1.878,0.0,0.0,0.0,0.0,-1.8577,-1.9401,-1.9244,-1.9259,-1.9275,-1.9256,-1.8784,0.0,0.0,0.0,0.0,-1.9181,-2.0856,-2.1686,-2.1505,-2.1796,-2.1972,-2.1972,0.0,0.0,-2.0829,0.0,0.0,0.0,0.0,0.0,-2.0593,-2.2154,-2.2873,-2.3037,-2.3466,-2.3953,-2.4444,-2.4639,-2.4614,-2.4502,-2.4766,-2.4891,-2.493,-2.4835,-2.4632,-2.4368,-2.387,-2.3495,-2.3142,-2.2792,-2.3031,-2.3421,-2.3464,-2.396,-2.4682,-2.5701,-2.6103,-2.647,-2.7273,-2.7465,-2.7465,-2.7465,-2.7809,-2.7847,-2.7051,-2.7147,-2.7005,-2.5936,-2.5665,-2.5608,-2.5685,-2.5702,-2.5703,-2.5698,-2.5626,-2.557,-2.557,-2.555,-2.5541,-2.5503,-2.5551,-2.5589,-2.5605,-2.6484,-2.6992,-2.6992,-2.6929,-2.6872,-2.6834,-2.588,-2.5409,-2.5341,-2.5341,-2.5341,-2.5341,-2.5341,-2.5341,-2.5341,-2.5341,-2.5341,-2.5341,-2.5341,-2.5341,-2.5399,-2.6283,-2.7063,-2.7729,-2.7733,-2.7942,-2.8112,-2.2965,-2.0978,0.0,-1.8773,0.0,0.0,-1.7879,-1.803,0.0,-1.7959,-1.9214,0.0,-1.9864,-2.002,-1.9958,-1.9438,-1.9094,0.0,-1.8318,0.0,0.0,-1.9536,-2.0866,-2.1642,-2.1779,-2.2304,-2.2583,-2.2583,-2.1824,0.0,-2.1472,0.0,0.0,0.0,0.0,-2.2039,-2.199,-2.3238,-2.3926,-2.4174,-2.4298,-2.447,0.0,-2.4809,-2.4891,-2.4891,-2.4987,-2.5005,-2.5015,-2.5158,-2.4907,-2.4491,-2.4055,-2.3267,-2.2419,-2.1905,-2.1951,-2.2237,-2.2482,-2.3246,-2.426,-2.5506,-2.6381,-2.7116,-2.7723,-2.8201,-2.8518,-2.8518,-2.8621,-2.8652,-2.8473,-2.7964,-2.7147,-2.5807,-2.5628,-2.5667,-2.5683,-2.5703,-2.5703,-2.5703,-2.5646,-2.5582,-2.5563,-2.5524,-2.5505,-2.5466,-2.5524,-2.5727,-2.6091,-2.7048,-2.7734,-2.8125,-2.7706,-2.7452,-2.7412,-2.6102,-2.5428,-2.539,-2.539,-2.539,-2.539,-2.539,-2.539,-2.539,-2.539,-2.539,-2.539,-2.539,-2.539,-2.5447,-2.5928,-2.6727,-2.7527,-2.702,-2.7438,-2.8184,-2.2988,0.0,0.0,0.0,0.0,0.0,0.0,-1.8236,0.0,-1.9017,0.0,-2.0666,-2.0469,-2.0434,-2.0185,-1.9547,-1.9035,-1.8765,-1.8812,-1.8812,-1.9224,-2.0136,-2.1086,-2.1726,-2.1971,-2.2781,-2.3226,-2.331,-2.2496,-2.217,-2.2218,0.0,0.0,0.0,0.0,0.0,0.0,-2.4301,-2.4607,-2.4804,-2.4832,-2.4832,-2.4842,-2.4974,-2.5034,-2.5057,-2.5243,-2.5192,-2.5072,-2.5233,-2.48,-2.413,-2.3866,-2.2628,-2.1214,-2.081,-2.0671,-2.075,-2.1205,-2.2272,-2.3616,-2.5245,-2.6658,-2.7739,-2.8025,-2.8802,-2.9433,-2.9433,-2.889,-2.884,-3.0247,-2.8628,-2.6795,-2.5996,-2.5957,-2.6035,-2.6035,-2.6035,-2.5995,-2.5873,-2.5795,0.0,-2.5505,-2.5428,-2.5409,-2.539,-2.5466,-2.5826,-2.6573,-2.7682,-2.8632,-2.9373,-2.8728,-2.8305,-2.8183,-2.6481,-2.5586,-2.5462,-2.5483,-2.5493,-2.5493,-2.5492,-2.5481,-2.5481,-2.5481,-2.5473,-2.5493,-2.5493,-2.5484,-2.5514,-2.5639,-2.6169,-2.6911,-2.7026,-2.7651,-2.8476,-2.2032,0.0,0.0,0.0,0.0,-1.9105,-2.1211,-2.0114,-1.9448,-2.0503,-2.1677,-2.2294,-2.1799,-2.0703,-1.9976,-1.9883,-1.8728,0.0,0.0,0.0,0.0,-1.9057,-2.0753,-2.1768,-2.1916,-2.2659,-2.3309,-2.3871,-2.2718,-2.2463,-2.3003,0.0,0.0,0.0,0.0,0.0,-2.4373,-2.4461,0.0,-2.4818,-2.493,-2.4962,-2.4986,-2.5182,-2.5253,-2.5253,-2.5303,-2.5274,-2.5244,-2.5293,-2.5232,-2.498,-2.3964,-2.3032,-2.2046,-2.0575,-2.0244,-2.032,-2.0039,-2.1126,-2.2824,-2.4849,-2.6185,-2.7433,-2.9208,-2.9934,-3.0206,-3.0206,-3.0148,-2.994,-2.9535,-2.8604,-2.762,-2.6815,-2.7285,-2.7773,-2.7832,-2.7832,-2.7563,-2.6776,-2.6625,-2.6281,-2.5486,-2.5409,-2.539,-2.5322,-2.5428,-2.5541,-2.5635,-2.7325,-2.8312,-2.8355,-2.89,-2.8813,-2.8037,-2.6952,-2.6046,-2.534,-2.5398,-2.5429,-2.5429,-2.5422,-2.5418,-2.5418,-2.5359,-2.5378,-2.5429,-2.5429,-2.545,-2.5568,-2.6298,-2.6699,-2.6988,-2.7701,-2.8577,-2.9375,-2.2381,0.0,0.0,0.0,0.0,0.0,0.0,-2.2651,-2.2079,-2.2722,-2.3243,-2.3354,-2.2877,-2.1942,-2.107,-2.0333,-1.9589,-1.8881,-1.8239,-1.8417,-1.8664,-1.8988,-2.0799,-2.1891,-2.2103,-2.3307,-2.4086,-2.44,-2.3657,-2.3454,-2.3757,-2.3484,0.0,0.0,0.0,-2.4173,0.0,0.0,-2.4764,-2.4972,-2.5141,-2.5239,-2.5258,-2.536,-2.5409,-2.5409,-2.5409,-2.5409,-2.5409,-2.537,-2.5389,-2.5271,-2.4315,-2.3167,-2.1877,-2.0383,-1.9786,-1.9549,-1.951,-2.0622,-2.2169,-2.3809,-2.5521,-2.7114,-2.8332,-2.9524,-3.0398,-3.0398,-3.0417,-3.0186,-2.9356,-2.8608,-2.7973,-2.7621,-2.7552,-2.7715,-2.8223,-2.8275,-2.8085,-2.7631,-2.7092,-2.6577,-2.612,-2.563,-2.5322,-2.5303,-2.539,-2.5637,-2.6055,-2.7426,-2.8376,-2.876,-2.9156,-2.9126,-2.8675,-2.7809,-2.6932,-2.6087,-2.6108,-2.5891,-2.5445,-2.5451,-2.546,-2.5459,-2.542,-2.5444,-2.5542,-2.6035,-2.6255,-2.6353,-2.7208,-2.7565,-2.7663,-2.8058,-2.8513,-2.8984,0.0,-2.2396,0.0,0.0,-2.2555,-2.2989,-2.5194,-2.5057,-2.4696,-2.4793,-2.4486,-2.4085,-2.3653,-2.3097,-2.2194,-2.0854,-2.0454,-1.976,-1.8603,-1.8753,-1.902,-1.9317,-2.1073,-2.2152,-2.24,-2.3891,-2.4712,-2.4842,-2.44,-2.427,-2.4409,-2.3971,0.0,0.0,0.0,0.0,0.0,-2.4716,-2.4912,-2.512,-2.5318,-2.5438,-2.5502,-2.5502,-2.5502,-2.5502,-2.5502,-2.5514,-2.5505,-2.5448,-2.5453,-2.539,-2.4693,-2.3335,-2.1715,-2.0384,-1.9567,-1.9089,-1.9104,-2.0244,-2.1728,-2.3128,-2.4925,-2.658,-2.7358,-2.8698,-2.9874,-3.0071,-3.0275,-3.0148,-2.9317,-2.8854,-2.848,-2.8203,-2.7885,-2.7887,-2.8476,-2.8529,-2.8425,-2.8219,-2.7328,-2.6638,-2.6437,-2.5745,-2.5303,-2.5303,-2.537,-2.5686,-2.6369,-2.747,-2.8396,-2.9064,-2.939,-2.9452,-2.926,-2.864,-2.7796,-2.6766,-2.6785,-2.6337,-2.5485,-2.5485,-2.5483,-2.5505,-2.5486,-2.5524,-2.5668,-2.6613,-2.6992,-2.7088,-2.7893,-2.8259,-2.829,-2.8228,-2.8364,-2.8672,0.0,0.0,0.0,0.0,0.0,-2.5004,-2.7045,-2.6683,-2.6092,-2.5797,-2.5186,-2.4535,-2.4007,-2.3308,-2.2526,-2.1579,-2.0486,-1.977,-1.9568,-1.9306,-1.9331,-1.9731,-2.1544,-2.2601,-2.2738,-2.3688,-2.4434,-2.4986,-2.4219,-2.417,-2.4756,-2.4693,-2.4604,0.0,0.0,-2.4321,-2.4512,-2.4716,-2.4912,-2.512,-2.5318,-2.5437,-2.5493,-2.5493,-2.5493,-2.5493,-2.5493,-2.5549,-2.5571,-2.5512,-2.5487,-2.5405,-2.4929,-2.3746,-2.2243,-2.0791,-2.0017,-1.9442,-1.8468,-1.9596,-2.1566,-2.3735,-2.4658,-2.558,-2.7786,-2.807,-2.8122,-2.9021,-2.9852,-3.014,-2.9275,-2.9698,-2.9709,-2.825,-2.9276,-3.0057,-2.9471,-2.9432,-2.9149,-2.8294,-2.7366,-2.6465,-2.5591,-2.538,-2.5303,-2.5303,-2.537,-2.5409,-2.5428,-2.7131,-2.8084,-2.8047,-2.9575,-2.9987,-2.9121,-2.9113,-2.8266,-2.6621,-2.6747,-2.6314,-2.5399,-2.5399,-2.5447,-2.5505,-2.5447,-2.5486,-2.5668,-2.6613,-2.6992,-2.709,-2.7947,-2.8301,-2.8298,-2.8289,-2.8788,-2.9492,0.0,0.0,0.0,0.0,0.0,0.0,0.0,-2.7332,-2.6473,-2.6188,-2.581,-2.531,-2.4554,-2.34,-2.2345,-2.1551,-2.0557,-1.9791,-1.9307,-1.9374,-1.9504,-1.9669,-2.0977,-2.1719,-2.1774,-2.3069,-2.3919,-2.4278,-2.4438,-2.4717,-2.5103,-2.4968,-2.4766,-2.4512,-2.4545,-2.4545,-2.4528,-2.4842,-2.5053,-2.5181,-2.5412,-2.5564,-2.5629,-2.5629,-2.5629,-2.5625,-2.5613,-2.564,-2.5644,-2.5547,-2.5492,-2.5381,-2.4758,-2.3634,-2.222,-2.0572,-1.9928,-1.9515,-1.8722,-1.9718,-2.1326,-2.2668,-2.3925,-2.5124,-2.6265,-2.6992,-2.7566,-2.8084,-2.8564,-2.8948,-2.9083,-2.8986,-2.9025,-2.9432,-2.9709,-2.9959,-3.0193,-2.9824,-2.941,-2.9015,-2.7646,-2.6611,-2.6264,-2.5668,-2.5322,-2.5409,-2.537,-2.5563,-2.6063,-2.7294,-2.8209,-2.867,-2.9852,-3.0333,-3.0006,-3.0025,-2.9196,-2.7493,-2.7518,-2.6775,-2.5409,-2.537,-2.539,-2.5447,-2.5505,-2.5543,-2.5668,-2.6613,-2.7305,-2.7851,-2.8691,-2.9049,-2.9075,-2.9046,-2.9277,-2.9609,-2.2353,0.0,-2.4429,0.0,-2.6242,-2.6817,-2.7627,-2.6755,-2.5909,-2.5619,-2.5349,-2.5076,-2.4753,-2.3286,-2.2189,-2.1765,-2.0807,-1.9957,-1.9362,-1.9497,-1.9614,-1.9614,-2.079,-2.1456,-2.1456,-2.3062,-2.3973,-2.4144,-2.4724,-2.5099,-2.5303,-2.5099,-2.4765,-2.4373,-2.4661,-2.4611,-2.431,-2.4866,-2.5146,-2.5261,-2.5501,-2.564,-2.5703,-2.5703,-2.5703,-2.5703,-2.5696,-2.5703,-2.5685,-2.5547,-2.5498,-2.5384,-2.4738,-2.3591,-2.2199,-2.0677,-1.9977,-1.9588,-1.9156,-2.0012,-2.1245,-2.2207,-2.3327,-2.4365,-2.5104,-2.5819,-2.6497,-2.7075,-2.7713,-2.8276,-2.8679,-2.8467,-2.8582,-2.9602,-2.955,-2.9502,-2.9916,-2.9272,-2.8769,-2.8769,-2.7348,-2.6398,-2.6438,-2.5765,-2.5379,-2.5486,-2.539,-2.5572,-2.6217,-2.7525,-2.8429,-2.8805,-2.991,-3.0525,-3.0564,-3.0602,-2.9777,-2.8093,-2.8066,-2.7141,-2.5428,-2.5409,-2.5409,-2.5476,-2.5577,-2.5621,-2.5706,-2.6626,-2.7519,-2.8359,-2.8926,-2.9329,-2.9531,-2.9236,-2.9268,-2.9502,-2.2397,-2.3095,-2.3966,-2.4789,-2.4813,-2.4847,-2.5192,-2.4782,-2.4273,-2.3871,-2.3379,-2.3415,-2.4405,-2.3002,-2.2138,-2.2468,-2.1279,-2.0384,-2.0101,-1.9776,-1.9614,-1.9614,-2.1322,-2.2299,-2.2299,-2.3922,-2.485,-2.4991,-2.501,-2.5099,-2.5303,-2.5099,-2.4637,-2.4034,-2.4563,-2.4385,-2.3776,-2.4703,-2.5176,-2.5319,-2.5513,-2.564,-2.5703,-2.5703,-2.5703,-2.5703,-2.5703,-2.5703,-2.5683,-2.5551,-2.5498,-2.5416,-2.4934,-2.3732,-2.2312,-2.1339,-2.0446,-1.9675,-1.96,-2.0283,-2.1358,-2.2916,-2.3,-2.3147,-2.4814,-2.4593,-2.4467,-2.6013,-2.763,-2.8618,-2.8022,-2.8563,-2.8844,-2.8142,-2.8744,-2.9052,-2.8328,-2.7535,-2.7031,-2.7031,-2.6191,-2.5615,-2.561,-2.5492,-2.5437,-2.5495,-2.539,-2.5322,-2.5409,-2.7755,-2.8717,-2.7928,-2.9602,-3.0506,-3.0506,-3.0621,-2.9815,-2.8093,-2.8169,-2.7248,-2.5505,-2.5563,-2.5601,-2.5592,-2.5668,-2.5703,-2.5762,-2.6641,-2.7519,-2.8301,-2.8301,-2.8802,-2.9406,-2.8545,-2.8675,-2.9291,-2.0615,-2.1412,-2.2335,-2.2785,-2.3423,-2.3998,-2.4389,-2.419,-2.3718,-2.294,-2.2208,-2.1856,-2.2093,-2.1151,-2.0533,-2.0646,-1.9773,-1.9183,-1.9071,-1.8986,-1.893,-1.893,-1.9467,-2.0113,-2.0849,-2.193,-2.2928,-2.3836,-2.453,-2.5012,-2.5303,-2.5282,-2.5083,-2.4767,-2.5077,-2.5036,-2.4749,-2.5181,-2.5429,-2.5507,-2.5626,-2.5689,-2.5703,-2.5703,-2.5703,-2.5703,-2.5703,-2.5703,-2.5683,-2.5547,-2.5498,-2.5437,-2.5056,-2.4033,-2.2686,-2.1255,-2.0476,-2.0039,-1.9692,-2.0283,-2.1198,-2.195,-2.2596,-2.317,-2.3705,-2.4091,-2.453,-2.5154,-2.576,-2.6383,-2.6973,-2.7283,-2.7599,-2.8,-2.8334,-2.8454,-2.8169,-2.7471,-2.697,-2.6877,-2.6091,-2.5535,-2.5525,-2.5453,-2.5427,-2.5486,-2.6568,-2.6951,-2.6313,-2.7544,-2.8437,-2.8791,-2.9898,-3.0518,-3.0576,-3.0653,-2.9848,-2.817,-2.8196,-2.7253,-2.5512,-2.6176,-2.616,-2.5592,-2.5671,-2.5703,-2.5762,-2.6641,-2.7519,-2.8358,-2.8896,-2.9622,-3.0283,-2.9963,-2.9974,-3.0162,-1.9513,-2.0125,-2.0848,-2.1023,-2.2007,-2.2873,-2.3127,-2.3277,-2.3038,-2.2078,-2.1359,-2.0693,-2.01,-1.9339,-1.9056,-1.9565,-1.8876,-1.8358,-1.8223,-1.8583,-1.8836,-1.8836,-1.9497,-2.0265,-2.1058,-2.1835,-2.2795,-2.3873,-2.4623,-2.5122,-2.5341,-2.5341,-2.5158,-2.4819,-2.523,-2.5214,-2.4939,-2.5369,-2.5558,-2.5592,-2.5643,-2.5648,-2.5611,-2.5611,-2.564,-2.5664,-2.5664,-2.5684,-2.5683,-2.5547,-2.5498,-2.5447,-2.5115,-2.4354,-2.3324,-2.1941,-2.1154,-2.0701,-2.042,-2.0782,-2.1352,-2.1874,-2.2521,-2.3069,-2.3346,-2.414,-2.4833,-2.4821,-2.5115,-2.5552,-2.6118,-2.6476,-2.6892,-2.7513,-2.7656,-2.7657,-2.7617,-2.6925,-2.6404,-2.6315,-2.5834,-2.5499,-2.5499,-2.5462,-2.5466,-2.5524,-2.6513,-2.7013,-2.6795,-2.8123,-2.8863,-2.8791,-2.9956,-3.0595,-3.0637,-3.0728,-3.0088,-2.8711,-2.8398,-2.7652,-2.6565,-2.7162,-2.7122,-2.6623,-2.6667,-2.668,-2.6719,-2.7266,-2.7996,-2.8798,-2.9303,-2.9963,-3.0621,-3.0583,-3.0688,-3.0789,-1.9147,-1.9266,-1.9564,-1.9594,-2.0699,-2.1552,-2.1598,-2.2214,-2.2306,-2.1247,-2.0727,-1.9891,-1.8476,-1.7691,-1.7749,-1.8991,-1.8422,-1.7881,-1.7552,-1.8516,-1.9078,-1.9147,-2.0863,-2.2016,-2.2458,-2.322,-2.4006,-2.4804,-2.5126,-2.5322,-2.539,-2.5322,-2.4975,-2.4412,-2.5093,-2.5069,-2.4552,-2.5283,-2.5592,-2.5601,-2.5582,-2.5561,-2.5498,-2.5498,-2.5542,-2.5584,-2.5605,-2.5644,-2.5663,-2.5558,-2.5492,-2.5447,-2.5126,-2.4714,-2.415,-2.3271,-2.2323,-2.1602,-2.1735,-2.1705,-2.1845,-2.2565,-2.2746,-2.2947,-2.3588,-2.4561,-2.5245,-2.4866,-2.5393,-2.5816,-2.5463,-2.6063,-2.6633,-2.6718,-2.6699,-2.6691,-2.6685,-2.5986,-2.5455,-2.5446,-2.5468,-2.5466,-2.5476,-2.5495,-2.5524,-2.5582,-2.564,-2.6063,-2.6853,-2.9264,-2.9862,-2.824,-2.9809,-3.0694,-3.0694,-3.0806,-3.0451,-2.959,-2.8789,-2.8359,-2.8301,-2.8358,-2.8357,-2.8298,-2.83,-2.8281,-2.8281,-2.8359,-2.8802,-2.9486,-2.956,-2.9932,-3.0482,-3.054,-3.0866,-3.1153,0.0,0.0,-1.9197,-1.9556,-2.0439,-2.1244,-2.1552,-2.2056,-2.1885,-2.0467,-1.9967,-1.9193,-1.7716,-1.719,-1.694,-1.7001,-1.7075,-1.7069,-1.6978,-1.746,-1.8,-1.8568,-1.951,-2.0684,-2.2171,-2.2638,-2.3493,-2.4804,-2.4981,-2.5152,-2.5322,-2.537,-2.5311,-2.5231,-2.5398,-2.5449,-2.5408,-2.5486,-2.5542,-2.5601,-2.5543,-2.5505,-2.5492,-2.5492,-2.5506,-2.5531,-2.5572,-2.5605,-2.5625,-2.5583,-2.5542,-2.5476,-2.5349,-2.5019,-2.4626,-2.4296,-2.3316,-2.2485,-2.3113,-2.2829,-2.2479,-2.2954,-2.3259,-2.3566,-2.3996,-2.4413,-2.4718,-2.4783,-2.5015,-2.5284,-2.5456,-2.5607,-2.5742,-2.5868,-2.5697,-2.5557,-2.5508,-2.5234,-2.5025,-2.4967,-2.5094,-2.5175,-2.5115,-2.5348,-2.5486,-2.5447,-2.6815,-2.7422,-2.693,-2.9412,-3.0296,-2.9136,-3.0088,-3.0618,-3.0618,-3.0712,-3.0354,-2.9609,-2.9394,-2.8945,-2.832,-2.8942,-2.8848,-2.8229,-2.8176,-2.8149,-2.8188,-2.8812,-2.9185,-2.9404,-3.0015,-3.026,-3.0338,-3.0901,-3.1045,-3.1014,-1.9437,-1.9021,-1.9016,-1.9081,-2.0508,-2.1615,-2.1601,-2.2096,-2.182,-2.0016,-1.9615,-1.8815,-1.7046,-1.6686,-1.6501,-1.6328,-1.649,-1.6581,-1.6581,-1.7523,-1.8407,-1.9094,-2.0264,-2.1532,-2.2932,-2.315,-2.3783,-2.4891,-2.5053,-2.5203,-2.5341,-2.539,-2.5447,-2.5553,-2.555,-2.558,-2.5639,-2.558,-2.5525,-2.5505,-2.5466,-2.5447,-2.5409,-2.5409,-2.5428,-2.5466,-2.5529,-2.5579,-2.5605,-2.5605,-2.5558,-2.5492,-2.5428,-2.5164,-2.4955,-2.5254,-2.4283,-2.3247,-2.39,-2.3498,-2.2968,-2.3328,-2.3671,-2.3976,-2.417,-2.4284,-2.4428,-2.4623,-2.478,-2.4981,-2.5273,-2.5393,-2.5468,-2.5504,-2.5332,-2.5177,-2.5063,-2.494,-2.4851,-2.4896,-2.4981,-2.5075,-2.513,-2.5725,-2.6091,-2.6037,-2.7433,-2.8256,-2.8126,-2.9513,-3.0055,-2.9506,-3.03,-3.0746,-3.0746,-3.0712,-3.0503,-3.0097,-3.0107,-2.9844,-2.9414,-2.9846,-2.974,-2.92,-2.913,-2.9044,-2.8967,-2.9382,-2.9552,-2.9569,-3.0009,-3.0311,-3.057,-3.0966,-3.143,-3.1854,-1.914,-1.8933,-1.9028,-1.8849,-2.0798,-2.2219,-2.1827,-2.2269,-2.1858,-1.9754,-1.9536,-1.8817,-1.6745,-1.6643,-1.6718,-1.6784,-1.6784,-1.6651,-1.6382,-1.801,-1.93,-1.9966,-2.1749,-2.3132,-2.3988,-2.4118,-2.4447,-2.5031,-2.5231,-2.537,-2.5428,-2.5428,-2.5485,-2.5601,-2.5601,-2.561,-2.5614,-2.5601,-2.5524,-2.5409,-2.539,-2.5341,-2.5303,-2.5303,-2.5341,-2.5409,-2.5486,-2.5544,-2.5598,-2.5605,-2.5566,-2.5488,-2.5425,-2.522,-2.5151,-2.5965,-2.5099,-2.3964,-2.4454,-2.3981,-2.3414,-2.3692,-2.3996,-2.419,-2.419,-2.4228,-2.4284,-2.4461,-2.4654,-2.4845,-2.506,-2.529,-2.5421,-2.5414,-2.5271,-2.5139,-2.5024,-2.4896,-2.4828,-2.4962,-2.4993,-2.5091,-2.528,-2.6217,-2.682,-2.6823,-2.7854,-2.8825,-2.9555,-2.9715,-2.9805,-2.9805,-3.0386,-3.0693,-3.0693,-3.0692,-3.0687,-3.0691,-3.0697,-3.0681,-3.0679,-3.066,-3.0529,-3.0346,-3.0265,-3.0089,-2.9864,-2.9864,-2.9831,-2.9795,-2.9926,-3.0321,-3.0904,-3.1186,-3.2006,-3.2925,-2.0333,-1.9353,-1.915,-2.0197,-2.136,-2.2243,-2.2485,-2.2344,-2.1545,-1.9744,-1.9756,-1.9335,-1.7812,-1.8219,-1.8707,-1.8966,-1.8993,-1.8343,-1.6817,-1.8096,-1.9249,-1.9974,-2.1846,-2.3216,-2.3969,-2.4601,-2.5007,-2.5163,-2.5359,-2.5466,-2.5486,-2.5485,-2.5536,-2.5601,-2.5601,-2.5635,-2.5689,-2.5553,-2.5505,-2.5466,-2.537,-2.5303,-2.5303,-2.5303,-2.5341,-2.5409,-2.5486,-2.5533,-2.5611,-2.567,-2.5605,-2.5507,-2.5483,-2.5258,-2.5151,-2.5965,-2.5447,-2.4757,-2.5338,-2.4779,-2.4074,-2.4113,-2.417,-2.419,-2.419,-2.4321,-2.4461,-2.4495,-2.4654,-2.4845,-2.506,-2.5092,-2.5182,-2.5449,-2.5231,-2.5043,-2.5069,-2.4926,-2.4813,-2.4835,-2.4988,-2.512,-2.5219,-2.6224,-2.6892,-2.689,-2.8454,-2.9452,-2.9583,-3.0292,-3.0703,-3.0703,-3.0128,-2.9767,-2.9709,-3.0316,-3.0613,-3.0621,-3.0672,-3.0667,-3.0614,-3.0443,-3.0316,-3.0213,-2.9918,-2.977,-2.9732,-2.9732,-2.9715,-2.9792,-3.0452,-3.0696,-3.0856,-3.2426,-3.3002,-3.3105,-2.0434,-2.0005,-2.0161,-2.0767,-2.1993,-2.287,-2.2721,-2.2548,-2.1861,-2.0301,-2.0213,-1.9845,-1.8635,-1.8974,-1.9392,-1.9731,-2.0024,-1.9923,-1.9282,-2.0018,-2.0811,-2.1536,-2.2905,-2.3957,-2.4567,-2.5064,-2.5329,-2.5351,-2.5453,-2.5514,-2.5543,-2.5545,-2.559,-2.5658,-2.5658,-2.5651,-2.5644,-2.558,-2.5525,-2.5486,-2.5428,-2.5409,-2.5409,-2.5409,-2.5428,-2.5466,-2.5524,-2.5563,-2.5599,-2.5683,-2.5621,-2.5545,-2.5506,-2.5369,-2.5278,-2.5619,-2.5602,-2.5389,-2.5123,-2.4706,-2.4339,-2.4228,-2.419,-2.4151,-2.3976,-2.3999,-2.4022,-2.3846,-2.3969,-2.4134,-2.4225,-2.448,-2.4744,-2.4985,-2.4954,-2.4927,-2.5027,-2.4902,-2.483,-2.4896,-2.5403,-2.5809,-2.5945,-2.7284,-2.817,-2.8235,-2.9467,-3.0215,-3.0293,-3.0684,-3.0898,-3.0898,-3.0505,-3.004,-2.9509,-2.9844,-2.997,-2.9886,-2.9493,-2.9441,-2.9738,-2.9597,-2.9649,-2.9812,-2.9375,-2.926,-2.9295,-2.9092,-2.9114,-2.9373,-2.9905,-3.0558,-3.1374,-3.239,-3.3256,-3.4001,-2.0304,-2.0625,-2.1242,-2.1308,-2.2694,-2.3605,-2.3059,-2.2721,-2.2105,-2.0766,-2.0747,-2.0451,-1.9471,-1.9887,-2.0365,-2.07,-2.1224,-2.1692,-2.2027,-2.241,-2.274,-2.2972,-2.3931,-2.4724,-2.5179,-2.5403,-2.5532,-2.5551,-2.5551,-2.5561,-2.5631,-2.5631,-2.5636,-2.5681,-2.5681,-2.5631,-2.5581,-2.5585,-2.5551,-2.5507,-2.5498,-2.5492,-2.5492,-2.5492,-2.5514,-2.5524,-2.5582,-2.5618,-2.5635,-2.5672,-2.5664,-2.5581,-2.5538,-2.5486,-2.5409,-2.5341,-2.5581,-2.5674,-2.4835,-2.4559,-2.4461,-2.4303,-2.4171,-2.4016,-2.3774,-2.3588,-2.3356,-2.3106,-2.3088,-2.3137,-2.3191,-2.3713,-2.4209,-2.4432,-2.4684,-2.4904,-2.5077,-2.4959,-2.4896,-2.5018,-2.5742,-2.6344,-2.6568,-2.8145,-2.9233,-2.9374,-3.0199,-3.0743,-3.0832,-3.0853,-3.0771,-3.0579,-3.0758,-3.042,-2.9515,-2.9448,-2.9361,-2.922,-2.8481,-2.8262,-2.8492,-2.8692,-2.8812,-2.8929,-2.8706,-2.8682,-2.8839,-2.854,-2.8633,-2.9035,-2.9428,-3.0352,-3.1511,-3.2159,-3.3219,-3.4348,-2.0452,-2.1063,-2.1924,-2.2227,-2.344,-2.4232,-2.3865,-2.2867,-2.1787,-2.0754,-2.1147,-2.1266,-2.057,-2.1691,-2.2581,-2.2941,-2.3449,-2.3916,-2.4239,-2.4577,-2.4288,-2.3213,-2.4365,-2.5173,-2.5463,-2.5553,-2.5609,-2.5683,-2.5683,-2.5683,-2.5681,-2.5681,-2.5651,-2.56,-2.56,-2.558,-2.5511,-2.5502,-2.5508,-2.5504,-2.55,-2.5498,-2.5498,-2.5498,-2.5536,-2.5582,-2.5601,-2.564,-2.5682,-2.5703,-2.5664,-2.56,-2.5596,-2.5543,-2.5486,-2.5409,-2.537,-2.528,-2.503,-2.4737,-2.4495,-2.4478,-2.4098,-2.3714,-2.3714,-2.3182,-2.2675,-2.265,-2.2323,-2.2061,-2.2262,-2.2883,-2.3529,-2.3971,-2.4562,-2.5084,-2.5327,-2.5154,-2.5005,-2.5074,-2.5693,-2.6207,-2.6483,-2.8071,-2.9156,-2.9297,-3.0166,-3.0684,-3.0611,-3.0681,-3.0372,-2.9627,-3.0322,-3.0312,-2.9509,-2.9328,-2.9149,-2.9016,-2.852,-2.7821,-2.6991,-2.7929,-2.7959,-2.7302,-2.7772,-2.8156,-2.8446,-2.842,-2.8633,-2.909,-2.9848,-3.0197,-3.052,-3.2288,-3.3034,-3.3306,-2.0782,-2.1569,-2.2547,-2.3202,-2.3739,-2.4069,-2.3925,-2.2942,-2.2085,-2.1703,-2.1864,-2.1931,-2.1675,-2.2479,-2.3069,-2.3189,-2.3988,-2.4551,-2.4685,-2.5012,-2.4988,-2.4522,-2.5061,-2.5407,-2.5508,-2.5613,-2.5679,-2.5703,-2.5703,-2.5703,-2.5703,-2.5703,-2.5696,-2.566,-2.5619,-2.56,-2.5569,-2.5564,-2.5566,-2.5566,-2.5618,-2.5611,-2.5611,-2.5611,-2.5637,-2.5668,-2.5668,-2.5685,-2.5703,-2.5703,-2.5684,-2.5643,-2.5609,-2.5576,-2.5536,-2.5437,-2.539,-2.5331,-2.5233,-2.5005,-2.4747,-2.4559,-2.4192,-2.3728,-2.3165,-2.2634,-2.2156,-2.1691,-2.1483,-2.145,-2.1764,-2.2393,-2.3048,-2.3603,-2.4346,-2.4916,-2.5003,-2.5447,-2.5726,-2.5669,-2.6914,-2.7611,-2.7208,-2.8232,-2.8965,-2.9107,-2.9297,-2.962,-3.0145,-3.0352,-3.0362,-3.0198,-3.0348,-3.0036,-2.9138,-2.8849,-2.8601,-2.8369,-2.7102,-2.6512,-2.6483,-2.6843,-2.7038,-2.712,-2.7397,-2.7736,-2.8102,-2.8102,-2.829,-2.87,-2.9406,-3.0027,-3.0609,-3.2004,-3.282,-3.3481,-2.0765,-2.1649,-2.2727,-2.3718,-2.3796,-2.3794,-2.4041,-2.3073,-2.231,-2.231,-2.231,-2.231,-2.231,-2.2849,-2.3189,-2.3189,-2.4191,-2.4804,-2.4804,-2.5115,-2.5303,-2.5303,-2.5428,-2.5506,-2.5508,-2.5634,-2.5703,-2.5703,-2.5703,-2.5703,-2.5703,-2.5703,-2.5684,-2.5664,-2.561,-2.5588,-2.5563,-2.5582,-2.5607,-2.5609,-2.5661,-2.5697,-2.5665,-2.5665,-2.5659,-2.5636,-2.5636,-2.5655,-2.5675,-2.5636,-2.5661,-2.5683,-2.562,-2.5583,-2.5542,-2.5471,-2.5398,-2.5365,-2.537,-2.5222,-2.4998,-2.4666,-2.4227,-2.3656,-2.294,-2.2337,-2.1799,-2.129,-2.1086,-2.1118,-2.1488,-2.2177,-2.2869,-2.3462,-2.4314,-2.5021,-2.5354,-2.5907,-2.6317,-2.6464,-2.7808,-2.8407,-2.7694,-2.8216,-2.8534,-2.8449,-2.8443,-2.8899,-2.9948,-3.014,-3.0279,-3.0465,-3.0197,-2.9671,-2.8868,-2.8466,-2.8015,-2.7488,-2.6276,-2.5682,-2.5678,-2.6161,-2.6472,-2.665,-2.6977,-2.7317,-2.7707,-2.7707,-2.7936,-2.829,-2.8748,-2.9407,-3.0249,-3.1359,-3.2456,-3.356,-2.033,-2.1225,-2.2394,-2.3671,-2.3566,-2.3566,-2.4371,-2.3241,-2.231,-2.231,-2.231,-2.231,-2.231,-2.2849,-2.3189,-2.3189,-2.4191,-2.4804,-2.4804,-2.5115,-2.5303,-2.5303,-2.5428,-2.5506,-2.5508,-2.5634,-2.5703,-2.5703,-2.5703,-2.5703,-2.5703,-2.5703,-2.5664,-2.5605,-2.5605,-2.5551,-2.5495,-2.5563,-2.5601,-2.561,-2.5673,-2.566,-2.5601,-2.5601,-2.5557,-2.5508,-2.5508,-2.5547,-2.5586,-2.5513,-2.5595,-2.5698,-2.5615,-2.5546,-2.5492,-2.5504,-2.541,-2.5327,-2.5464,-2.539,-2.5233,-2.4902,-2.4153,-2.3448,-2.3223,-2.2371,-2.1628,-2.1598,-2.1291,-2.1134,-2.1469,-2.2288,-2.3069,-2.361,-2.4491,-2.5456,-2.654,-2.6529,-2.67,-2.751,-2.8135,-2.8304,-2.7761,-2.7931,-2.7853,-2.7236,-2.7769,-2.8726,-3.0117,-3.0064,-3.0079,-3.019,-2.9742,-2.927,-2.8796,-2.8264,-2.7464,-2.6394,-2.6394,-2.5617,-2.4281,-2.5931,-2.6302,-2.5659,-2.6387,-2.6939,-2.7286,-2.7303,-2.753,-2.7897,-2.7897,-2.8357,-2.9166,-3.0438,-3.1877,-3.3441,-2.0956,-2.1358,-2.1943,-2.2866,-2.2972,-2.309,-2.3634,-2.2919,-2.231,-2.231,-2.231,-2.231,-2.231,-2.2643,-2.2947,-2.3165,-2.3832,-2.4447,-2.4911,-2.5171,-2.5303,-2.5303,-2.5428,-2.5506,-2.5508,-2.5634,-2.5703,-2.5703,-2.5703,-2.5703,-2.5703,-2.5649,-2.5628,-2.5596,-2.5549,-2.5522,-2.5503,-2.5569,-2.5601,-2.561,-2.5673,-2.566,-2.5601,-2.5601,-2.5552,-2.5498,-2.5498,-2.5517,-2.5522,-2.5515,-2.5568,-2.5593,-2.5444,-2.5258,-2.5118,-2.525,-2.5264,-2.5251,-2.5387,-2.5399,-2.5317,-2.5072,-2.4357,-2.3587,-2.311,-2.2563,-2.2079,-2.1873,-2.1988,-2.2283,-2.2758,-2.3194,-2.3626,-2.4123,-2.4704,-2.5376,-2.6169,-2.6836,-2.751,-2.8221,-2.9041,-2.9308,-2.8669,-2.797,-2.7478,-2.7344,-2.8384,-2.9326,-3.0011,-3.059,-3.0647,-3.0079,-2.951,-2.8952,-2.839,-2.7939,-2.7508,-2.7023,-2.6418,-2.6,-2.583,-2.6336,-2.6585,-2.6699,-2.727,-2.7589,-2.7736,-2.7974,-2.8002,-2.7926,-2.8156,-2.873,-2.9547,-3.0549,-3.22,-3.4203,-2.0309,-2.0609,-2.1128,-2.2264,-2.2215,-2.2338,-2.3253,-2.2784,-2.2237,-2.2032,-2.218,-2.2237,-2.2032,-2.2529,-2.2972,-2.3165,-2.3891,-2.4511,-2.4967,-2.5192,-2.5303,-2.5303,-2.5409,-2.5468,-2.5508,-2.5613,-2.5664,-2.5703,-2.5703,-2.5696,-2.566,-2.5619,-2.5601,-2.5601,-2.5554,-2.5542,-2.5586,-2.5628,-2.564,-2.5632,-2.5673,-2.5661,-2.5602,-2.556,-2.5524,-2.5466,-2.5428,-2.5447,-2.5467,-2.5437,-2.5407,-2.5371,-2.5246,-2.5355,-2.5525,-2.5678,-2.5725,-2.577,-2.5851,-2.5561,-2.5194,-2.5027,-2.454,-2.4014,-2.3566,-2.3228,-2.2944,-2.2694,-2.2826,-2.3143,-2.3649,-2.3861,-2.412,-2.4625,-2.5307,-2.6038,-2.68,-2.7989,-2.8925,-2.9264,-3.0023,-3.0091,-2.9066,-2.8041,-2.748,-2.7521,-2.856,-2.9615,-3.0533,-3.1039,-3.104,-3.0456,-2.957,-2.8842,-2.8276,-2.7905,-2.7449,-2.6982,-2.6838,-2.6785,-2.6868,-2.7074,-2.7356,-2.7708,-2.8031,-2.819,-2.8172,-2.8395,-2.8352,-2.8216,-2.8395,-2.9148,-3.0192,-3.091,-3.2853,-3.5333,-1.8979,-1.9325,-2.0127,-2.1673,-2.1407,-2.1502,-2.2949,-2.2647,-2.2077,-2.1628,-2.1945,-2.2061,-2.1658,-2.2521,-2.3159,-2.3189,-2.4173,-2.4828,-2.4949,-2.5141,-2.5253,-2.5253,-2.5321,-2.5404,-2.5468,-2.5549,-2.5624,-2.5683,-2.5683,-2.5652,-2.5601,-2.5572,-2.5582,-2.5582,-2.5592,-2.5622,-2.5681,-2.5703,-2.5703,-2.5703,-2.5703,-2.5664,-2.5584,-2.5518,-2.5466,-2.539,-2.5322,-2.5341,-2.539,-2.5322,-2.5219,-2.5126,-2.5206,-2.5834,-2.6522,-2.6597,-2.6664,-2.6666,-2.657,-2.5788,-2.4948,-2.482,-2.4703,-2.4576,-2.4364,-2.4134,-2.3947,-2.3888,-2.3837,-2.392,-2.4447,-2.4511,-2.4701,-2.5323,-2.6269,-2.724,-2.817,-2.9616,-3.0574,-3.0506,-3.0939,-3.0624,-2.9025,-2.8107,-2.7646,-2.7741,-2.8533,-2.976,-3.1449,-3.146,-3.1312,-3.1108,-2.9795,-2.8879,-2.8402,-2.8129,-2.7531,-2.6669,-2.7519,-2.7794,-2.7583,-2.8162,-2.8543,-2.8854,-2.8904,-2.891,-2.8815,-2.8817,-2.8741,-2.8645,-2.8645,-2.9606,-3.1034,-3.1446,-3.3743,-3.6677,-1.9577,-1.9368,-1.9406,-2.05,-2.0859,-2.1119,-2.1471,-2.1636,-2.1598,-2.1181,-2.1507,-2.1718,-2.1628,-2.2141,-2.2686,-2.3159,-2.4043,-2.4575,-2.4604,-2.4799,-2.4915,-2.4915,-2.5024,-2.5116,-2.5185,-2.5404,-2.5527,-2.5547,-2.5547,-2.5541,-2.5517,-2.5481,-2.5466,-2.5515,-2.5517,-2.5564,-2.5638,-2.5683,-2.5703,-2.5703,-2.5703,-2.5664,-2.5605,-2.5576,-2.5507,-2.5409,-2.539,-2.5341,-2.5341,-2.5428,-2.5337,-2.5303,-2.6039,-2.6747,-2.7324,-2.753,-2.7467,-2.7125,-2.634,-2.5501,-2.4796,-2.4688,-2.4778,-2.4813,-2.4455,-2.4457,-2.4534,-2.4579,-2.4851,-2.533,-2.619,-2.6248,-2.6387,-2.7059,-2.7485,-2.8219,-2.9554,-3.0195,-3.0681,-3.1134,-3.0959,-3.0246,-2.8727,-2.7523,-2.7214,-2.8107,-2.9302,-3.0549,-3.1814,-3.2102,-3.1887,-3.1123,-2.9795,-2.8879,-2.8402,-2.8542,-2.8334,-2.7843,-2.804,-2.8399,-2.8894,-2.9659,-3.0216,-3.0677,-3.129,-3.1185,-3.0554,-3.0511,-2.9892,-2.8983,-2.8983,-2.9994,-3.1469,-3.1632,-3.4133,-3.77,-1.974,-1.9815,-2.0084,-2.1075,-2.1448,-2.1582,-2.1485,-2.165,-2.1537,-2.0763,-2.1197,-2.1521,-2.1337,-2.2022,-2.2695,-2.3165,-2.371,-2.4081,-2.4264,-2.4449,-2.4625,-2.479,-2.4869,-2.4924,-2.496,-2.509,-2.528,-2.549,-2.549,-2.5471,-2.5452,-2.5427,-2.5447,-2.5495,-2.5499,-2.5566,-2.5644,-2.5694,-2.5703,-2.5703,-2.5703,-2.5684,-2.5644,-2.5605,-2.5554,-2.5486,-2.5428,-2.539,-2.5361,-2.5464,-2.5346,-2.5302,-2.6229,-2.7014,-2.7712,-2.8255,-2.7925,-2.7255,-2.6801,-2.5645,-2.4559,-2.4548,-2.4778,-2.4969,-2.4861,-2.4966,-2.5066,-2.5046,-2.5213,-2.5648,-2.658,-2.6544,-2.6595,-2.7257,-2.8027,-2.8811,-2.9605,-3.0788,-3.1638,-3.1728,-3.1431,-3.0516,-2.8766,-2.7889,-2.7798,-2.881,-3.0102,-3.1193,-3.1965,-3.2343,-3.2162,-3.1322,-3.0212,-2.942,-2.9012,-2.9191,-2.9439,-2.9762,-2.9193,-2.9397,-3.0331,-3.0705,-3.1291,-3.2034,-3.2319,-3.2198,-3.1727,-3.1172,-3.0566,-2.9955,-2.9955,-3.0754,-3.1958,-3.2497,-3.4873,-3.8107,-1.9407,-2.0133,-2.0874,-2.1864,-2.2202,-2.2195,-2.1815,-2.1911,-2.1573,-2.0441,-2.107,-2.146,-2.115,-2.204,-2.2822,-2.3093,-2.3307,-2.3572,-2.3852,-2.4008,-2.4258,-2.4601,-2.4648,-2.4697,-2.4746,-2.479,-2.4993,-2.5376,-2.5376,-2.5357,-2.5299,-2.532,-2.537,-2.5438,-2.5427,-2.5496,-2.5615,-2.5576,-2.5579,-2.5602,-2.5602,-2.5641,-2.5661,-2.5602,-2.557,-2.5572,-2.5448,-2.541,-2.5422,-2.5469,-2.5342,-2.5362,-2.6392,-2.7303,-2.8178,-2.8991,-2.8485,-2.7599,-2.7337,-2.5926,-2.453,-2.4493,-2.4747,-2.5056,-2.5247,-2.54,-2.5476,-2.5332,-2.5365,-2.5676,-2.6609,-2.6696,-2.6815,-2.7407,-2.8688,-2.9644,-2.9732,-3.1574,-3.2686,-3.2123,-3.1421,-3.033,-2.8644,-2.8286,-2.8513,-2.9379,-3.0738,-3.1735,-3.2241,-3.2442,-3.2284,-3.1741,-3.0751,-3.0136,-2.9976,-3.0076,-3.065,-3.1717,-3.0739,-3.075,-3.1636,-3.171,-3.2201,-3.3009,-3.2934,-3.2761,-3.2504,-3.1592,-3.1081,-3.0888,-3.0888,-3.1458,-3.2471,-3.3874,-3.6007,-3.8419,-1.8315,-1.9255,-2.0203,-2.0806,-2.1693,-2.1987,-2.1008,-2.151,-2.1573,-2.0441,-2.107,-2.1582,-2.1521,-2.2241,-2.2721,-2.2772,-2.3052,-2.3264,-2.331,-2.3315,-2.349,-2.3842,-2.4025,-2.4227,-2.4526,-2.4716,-2.4832,-2.4893,-2.4893,-2.4893,-2.4874,-2.4993,-2.5083,-2.5149,-2.5158,-2.5194,-2.5258,-2.5084,-2.5104,-2.5262,-2.5262,-2.5379,-2.5535,-2.5516,-2.5514,-2.55,-2.5481,-2.5481,-2.5482,-2.5427,-2.5467,-2.5826,-2.7433,-2.8554,-2.9391,-3.0019,-2.9887,-2.9119,-2.7221,-2.6107,-2.5316,-2.453,-2.4672,-2.5057,-2.5245,-2.5412,-2.5485,-2.5398,-2.5842,-2.6479,-2.7319,-2.8366,-2.9208,-2.9527,-3.0772,-3.1761,-3.1955,-3.2761,-3.2945,-3.1979,-2.9419,-2.7722,-2.7658,-2.752,-2.794,-2.9164,-3.0688,-3.2083,-3.3232,-3.2634,-3.2365,-3.262,-3.11,-3.0524,-3.0973,-3.1238,-3.178,-3.261,-3.2634,-3.263,-3.2628,-3.325,-3.3527,-3.354,-3.4207,-3.3851,-3.2832,-3.2561,-3.1821,-3.0808,-3.0808,-3.1548,-3.2972,-3.5778,-3.7724,-3.9096,-1.9028,-2.0116,-2.1091,-2.1713,-2.2488,-2.2829,-2.2278,-2.2189,-2.1965,-2.1379,-2.1471,-2.1582,-2.1582,-2.2124,-2.249,-2.249,-2.2607,-2.2773,-2.2923,-2.2923,-2.3069,-2.3414,-2.3512,-2.3623,-2.3767,-2.387,-2.3911,-2.3911,-2.4329,-2.4625,-2.4804,-2.4662,-2.4731,-2.4931,-2.4924,-2.4975,-2.5028,-2.4934,-2.4946,-2.5032,-2.5037,-2.5139,-2.5325,-2.5325,-2.5402,-2.5493,-2.5499,-2.5486,-2.5449,-2.5459,-2.5465,-2.5716,-2.6978,-2.7549,-2.7912,-2.8619,-2.8139,-2.7204,-2.6313,-2.5447,-2.4709,-2.4478,-2.464,-2.493,-2.5107,-2.5578,-2.6032,-2.6119,-2.6754,-2.7538,-2.8357,-2.8855,-2.9219,-2.9462,-3.0655,-3.1381,-3.0907,-3.1968,-3.2247,-3.0791,-2.9255,-2.8228,-2.7962,-2.7742,-2.8165,-2.9619,-3.0544,-3.1565,-3.2602,-3.2369,-3.2335,-3.2627,-3.1947,-3.169,-3.1924,-3.224,-3.2795,-3.3644,-3.3736,-3.3645,-3.3415,-3.3698,-3.3971,-3.422,-3.4401,-3.4157,-3.3574,-3.2676,-3.1982,-3.1447,-3.1186,-3.2219,-3.4097,-3.5957,-3.7608,-3.8988]}]]